[[{"header":{"parameterUnit":"m.s-1","parameterCategory":1,"la1":31.0,"la2":29.5877,"lo1":-88.7671,"lo2":-86.6584,"dy":0.0162,"dx":0.0185,"nx":115,"ny":88,"refTime":"2023-11-21T18:00:00:Z","depth":0,"parameterNumber":2,"parameterNumberName":"U-component_of_WINDS"},"data":[0.0,0.0,0.0,0.0,0.0,0.0,0.0,0.0,0.0,0.0,0.0,0.0,0.0,0.0,0.0,0.0,0.0,0.0,0.0,0.0,0.0,0.0,0.0,0.0,0.0,0.0,0.0,0.0,0.0,0.0,0.0,0.0,0.0,0.0,0.0,0.0,0.0,0.0,0.0,0.0,0.0,0.0,0.0,0.0,0.0,0.0,0.0,0.0,0.0,0.0,0.0,0.0,0.0,0.0,0.0,0.0,0.0,0.0,0.0,0.0,0.0,0.0,0.0,0.0,0.0,0.0,0.0,0.0,0.0,0.0,0.0,0.0,0.0,0.0,0.0,0.0,0.0,0.0,0.0,0.0,0.0,0.0,0.0,0.0,0.0,0.0,0.0,0.0,0.0,0.0,0.0,0.0,0.0,0.0,0.0,0.0,0.0,0.0,0.0,0.0,0.0,0.0,0.0,0.0,0.0,0.0,0.0,0.0,0.0,0.0,0.0,0.0,0.0,0.0,0.0,0.0,0.0,0.0,0.0,0.0,0.0,0.0,0.0,0.0,0.0,0.0,0.0,0.0,0.0,0.0,0.0,0.0,0.0,0.0,0.0,0.0,0.0,0.0,0.0,0.0,0.0,0.0,0.0,0.0,0.0,0.0,0.0,0.0,0.0,0.0,0.0,0.0,0.0,0.0,0.0,0.0,0.0,0.0,0.0,0.0,0.0,0.0,0.0,0.0,0.0,0.0,0.0,0.0,0.0,0.0,0.0,0.0,0.0,0.0,0.0,0.0,0.0,0.0,0.0,0.0,0.0,0.0,0.0,0.0,0.0,0.0,0.0,0.0,0.0,0.0,0.0,0.0,0.0,0.0,0.0,0.0,0.0,0.0,0.0,0.0,0.0,0.0,0.0,0.0,0.0,0.0,0.0,0.0,0.0,0.0,0.0,0.0,0.0,0.0,0.0,0.0,0.0,0.0,0.0,0.0,0.0,0.0,0.0,0.0,0.0,0.0,0.0,0.0,0.0,0.0,0.0,0.0,0.0,0.0,0.0,0.0,0.0,0.0,0.0,0.0,0.0,0.0,0.0,0.0,0.0,0.0,0.0,0.0,0.0,0.0,0.0,0.0,0.0,0.0,0.0,0.0,0.0,0.0,0.0,0.0,0.0,0.0,0.0,0.0,0.0,0.0,0.0,0.0,0.0,0.0,0.0,0.0,0.0,0.0,0.0,0.0,0.0,0.0,0.0,0.0,0.0,0.0,0.0,0.0,0.0,0.0,0.0,0.0,0.0,0.0,0.0,0.0,0.0,0.0,0.0,0.0,0.0,0.0,0.0,0.0,0.0,0.0,0.0,0.0,0.0,0.0,0.0,0.0,0.0,0.0,0.0,0.0,0.0,0.0,0.0,0.0,0.0,0.0,0.0,0.0,0.0,0.0,0.0,0.0,0.0,0.0,0.0,0.0,0.0,0.0,0.0,0.0,0.0,0.0,0.0,0.0,0.0,0.0,0.0,0.0,0.0,0.0,0.0,0.0,0.0,0.0,0.0,0.0,0.0,0.0,0.0,0.0,0.0,0.0,0.0,0.0,0.0,0.0,0.0,0.0,0.0,0.0,0.0,0.0,0.0,0.0,0.0,0.0,0.0,0.0,0.0,0.0,0.0,0.0,0.0,0.0,0.0,0.0,0.0,0.0,0.0,0.0,0.0,0.0,0.0,0.0,0.0,0.0,0.0,0.0,0.0,0.0,0.0,0.0,0.0,0.0,0.0,0.0,0.0,0.0,0.0,0.0,0.0,0.0,0.0,0.0,0.0,0.0,0.0,0.0,0.0,0.0,0.0,0.0,0.0,0.0,0.0,0.0,0.0,0.0,0.0,0.0,0.0,0.0,0.0,0.0,0.0,0.0,0.0,0.0,0.0,0.0,0.0,0.0,0.0,0.0,0.0,0.0,0.0,0.0,0.0,0.0,0.0,0.0,0.0,0.0,0.0,0.0,0.0,0.0,0.0,0.0,0.0,0.0,0.0,0.0,0.0,0.0,0.0,0.0,0.0,0.0,0.0,0.0,0.0,0.0,0.0,0.0,0.0,0.0,0.0,0.0,0.0,0.0,0.0,0.0,0.0,0.0,0.0,0.0,0.0,0.0,0.0,0.0,0.0,0.0,0.0,0.0,0.0,0.0,0.0,0.0,0.0,0.0,0.0,0.0,0.0,0.0,0.0,0.0,0.0,0.0,0.0,0.0,0.0,0.0,0.0,0.0,0.0,0.0,0.0,0.0,0.0,0.0,0.0,0.0,0.0,0.0,0.0,0.0,0.0,0.0,0.0,0.0,0.0,0.0,0.0,0.0,0.0,0.0,0.0,0.0,0.0,0.0,0.0,0.0,0.0,0.0,0.0,0.0,0.0,0.0,0.0,0.0,0.0,0.0,0.0,0.0,0.0,0.0,0.0,0.0,0.0,0.0,0.0,0.0,0.0,0.0,0.0,0.0,0.0,0.0,0.0,0.0,0.0,0.0,0.0,0.0,0.0,0.0,0.0,0.0,0.0,0.0,0.0,0.0,0.0,0.0,0.0,0.0,0.0,0.0,0.0,0.0,0.0,0.0,0.0,0.0,0.0,0.0,0.0,0.0,0.0,0.0,0.0,0.0,0.0,0.0,0.0,0.0,0.0,0.0,0.0,0.0,0.0,0.0,0.0,0.0,0.0,0.0,0.0,0.0,0.0,0.0,0.0,0.0,0.0,0.0,0.0,0.0,0.0,0.0,0.0,0.0,0.0,0.0,0.0,0.0,0.0,0.0,0.0,0.0,0.0,0.0,0.0,0.0,0.0,0.0,0.0,0.0,0.0,0.0,0.0,0.0,0.0,0.0,0.0,0.0,0.0,0.0,0.0,0.0,0.0,0.0,0.0,0.0,0.0,0.0,0.0,0.0,0.0,0.0,0.0,0.0,0.0,0.0,0.0,0.0,0.0,0.0,0.0,0.0,0.0,0.0,0.0,0.0,0.0,0.0,0.0,0.0,0.0,0.0,0.0,0.0,0.0,0.0,0.0,0.0,0.0,0.0,0.0,0.0,0.0,0.0,0.0,0.0,0.0,0.0,0.0,0.0,0.0,0.0,0.0,0.0,0.0,0.0,0.0,0.0,0.0,0.0,0.0,0.0,0.0,0.0,0.0,0.0,0.0,0.0,0.0,0.0,0.0,0.0,0.0,0.0,0.0,0.0,0.0,0.0,0.0,0.0,0.0,0.0,0.0,0.0,0.0,0.0,0.0,0.0,0.0,0.0,0.0,0.0,0.0,0.0,0.0,0.0,0.0,0.0,0.0,0.0,0.0,0.0,0.0,0.0,0.0,0.0,0.0,0.0,0.0,0.0,0.0,0.0,0.0,0.0,0.0,0.0,0.0,0.0,0.0,0.0,0.0,0.0,0.0,0.0,0.0,0.0,0.0,0.0,0.0,0.0,0.0,0.0,0.0,0.0,0.0,0.0,0.0,0.0,0.0,0.0,0.0,0.0,0.0,0.0,0.0,0.0,0.0,0.0,0.0,0.0,0.0,0.0,0.0,0.0,0.0,0.0,0.0,0.0,0.0,0.0,0.0,0.0,0.0,0.0,0.0,0.0,0.0,0.0,0.0,0.0,0.0,0.0,0.0,0.0,0.0,0.0,0.0,0.0,0.0,0.0,0.0,0.0,0.0,0.0,0.0,0.0,0.0,0.0,0.0,0.0,0.0,0.0,0.0,0.0,0.0,0.0,0.0,0.0,0.0,0.0,0.0,0.0,0.0,0.0,0.0,0.0,0.0,0.0,0.0,0.0,0.0,0.0,0.0,0.0,0.0,0.0,0.0,0.0,0.0,0.0,0.0,0.0,0.0,0.0,0.0,0.0,0.0,0.0,0.0,0.0,0.0,0.0,0.0,0.0,0.0,0.0,0.0,0.0,0.0,0.0,0.0,0.0,0.0,0.0,0.0,0.0,0.0,0.0,0.0,0.0,0.0,0.0,0.0,0.0,0.0,0.0,0.0,0.0,0.0,0.0,0.0,0.0,0.0,0.0,0.0,0.0,0.0,0.0,0.0,0.0,0.0,0.0,0.0,0.0,0.0,0.0,0.0,0.0,0.0,0.0,0.0,0.0,0.0,0.0,0.0,0.0,0.0,0.0,0.0,0.0,0.0,0.0,0.0,0.0,0.0,0.0,0.0,0.0,0.0,0.0,0.0,0.0,0.0,0.0,0.0,0.0,0.0,0.0,0.0,0.0,0.0,0.0,0.0,0.0,0.0,0.0,2.9827,0.0,0.0,0.0,0.0,0.0,0.0,0.0,0.0,0.0,0.0,0.0,0.0,0.0,0.0,0.0,0.0,0.0,0.0,0.0,0.0,0.0,0.0,0.0,0.0,0.0,0.0,0.0,0.0,0.0,0.0,0.0,0.0,0.0,0.0,0.0,0.0,0.0,0.0,0.0,0.0,0.0,0.0,0.0,0.0,0.0,0.0,0.0,0.0,0.0,0.0,0.0,0.0,0.0,0.0,0.0,0.0,0.0,0.0,0.0,0.0,0.0,0.0,0.0,0.0,0.0,0.0,0.0,0.0,0.0,0.0,0.0,0.0,0.0,0.0,0.0,0.0,0.0,0.0,0.0,0.0,0.0,0.0,0.0,0.0,0.0,0.0,0.0,0.0,0.0,0.0,0.0,0.0,0.0,0.0,0.0,0.0,0.0,0.0,0.0,0.0,0.0,0.0,0.0,0.0,0.0,0.0,0.0,0.0,0.0,0.0,2.9902,2.9946,2.9902,2.9902,2.9946,0.0,0.0,0.0,0.0,0.0,0.0,0.0,0.0,0.0,0.0,0.0,0.0,0.0,0.0,0.0,0.0,0.0,0.0,0.0,0.0,0.0,0.0,0.0,0.0,0.0,0.0,0.0,0.0,0.0,0.0,0.0,0.0,0.0,0.0,0.0,0.0,0.0,0.0,0.0,0.0,0.0,0.0,0.0,0.0,0.0,0.0,0.0,0.0,0.0,0.0,0.0,0.0,0.0,0.0,0.0,0.0,0.0,0.0,0.0,0.0,0.0,0.0,0.0,0.0,0.0,0.0,0.0,0.0,0.0,0.0,0.0,0.0,0.0,0.0,0.0,0.0,0.0,0.0,0.0,0.0,0.0,0.0,0.0,0.0,0.0,0.0,0.0,0.0,0.0,0.0,0.0,0.0,0.0,0.0,0.0,0.0,0.0,0.0,0.0,0.0,0.0,0.0,0.0,0.0,0.0,0.0,0.0,0.0,0.0,0.0,0.0,0.0,3.0226,3.0206,3.0162,0.0,0.0,0.0,0.0,0.0,0.0,0.0,0.0,0.0,0.0,0.0,0.0,0.0,0.0,0.0,0.0,0.0,0.0,0.0,0.0,0.0,0.0,0.0,0.0,0.0,0.0,0.0,0.0,0.0,0.0,0.0,0.0,0.0,0.0,0.0,0.0,0.0,0.0,0.0,0.0,0.0,0.0,0.0,0.0,0.0,0.0,0.0,0.0,0.0,0.0,0.0,0.0,0.0,0.0,0.0,0.0,0.0,0.0,0.0,0.0,0.0,0.0,0.0,0.0,0.0,0.0,0.0,0.0,0.0,0.0,0.0,0.0,0.0,0.0,0.0,0.0,0.0,0.0,0.0,0.0,0.0,0.0,0.0,0.0,0.0,0.0,0.0,0.0,0.0,0.0,0.0,0.0,0.0,0.0,0.0,0.0,0.0,0.0,0.0,0.0,0.0,0.0,0.0,0.0,0.0,0.0,0.0,0.0,0.0,0.0,3.1154,3.1769,3.1277,0.0,3.0965,0.0,0.0,0.0,0.0,0.0,0.0,0.0,0.0,0.0,0.0,0.0,0.0,0.0,0.0,0.0,0.0,0.0,0.0,0.0,0.0,0.0,0.0,0.0,0.0,0.0,0.0,0.0,0.0,0.0,0.0,0.0,0.0,0.0,0.0,0.0,0.0,0.0,0.0,0.0,0.0,0.0,0.0,0.0,0.0,0.0,0.0,0.0,0.0,0.0,0.0,0.0,0.0,0.0,0.0,0.0,0.0,0.0,0.0,0.0,0.0,0.0,0.0,0.0,0.0,0.0,0.0,0.0,0.0,0.0,0.0,0.0,0.0,0.0,0.0,0.0,0.0,0.0,0.0,0.0,0.0,0.0,0.0,0.0,0.0,0.0,0.0,0.0,0.0,0.0,0.0,0.0,0.0,0.0,0.0,0.0,0.0,0.0,0.0,0.0,0.0,0.0,0.0,0.0,0.0,0.0,0.0,0.0,0.0,0.0,0.0,3.1931,3.2643,3.201,3.1394,0.0,0.0,0.0,0.0,0.0,0.0,0.0,0.0,0.0,0.0,0.0,0.0,0.0,0.0,0.0,0.0,0.0,0.0,0.0,0.0,0.0,0.0,0.0,0.0,0.0,0.0,0.0,0.0,0.0,0.0,0.0,0.0,0.0,0.0,0.0,0.0,0.0,0.0,0.0,0.0,0.0,0.0,0.0,0.0,0.0,0.0,0.0,0.0,0.0,0.0,0.0,0.0,0.0,0.0,0.0,0.0,0.0,0.0,0.0,0.0,0.0,0.0,0.0,0.0,0.0,0.0,0.0,0.0,0.0,0.0,0.0,0.0,0.0,0.0,0.0,0.0,0.0,0.0,0.0,0.0,0.0,0.0,0.0,0.0,0.0,0.0,0.0,0.0,0.0,0.0,0.0,0.0,0.0,0.0,0.0,0.0,0.0,0.0,0.0,0.0,0.0,0.0,0.0,0.0,0.0,0.0,0.0,0.0,0.0,0.0,3.2757,3.274,3.3048,3.2384,3.1672,3.1005,0.0,0.0,0.0,0.0,0.0,0.0,0.0,0.0,0.0,0.0,0.0,0.0,0.0,0.0,0.0,0.0,0.0,0.0,0.0,0.0,0.0,0.0,0.0,0.0,0.0,0.0,0.0,0.0,0.0,0.0,0.0,0.0,0.0,0.0,0.0,0.0,0.0,0.0,0.0,0.0,0.0,0.0,0.0,0.0,0.0,0.0,0.0,0.0,0.0,0.0,0.0,0.0,0.0,0.0,0.0,0.0,0.0,0.0,0.0,0.0,0.0,0.0,0.0,0.0,0.0,0.0,0.0,0.0,0.0,0.0,0.0,0.0,0.0,0.0,0.0,0.0,0.0,0.0,0.0,0.0,0.0,0.0,0.0,0.0,0.0,0.0,0.0,0.0,0.0,0.0,0.0,0.0,0.0,0.0,0.0,0.0,0.0,0.0,0.0,0.0,0.0,0.0,0.0,0.0,0.0,0.0,0.0,0.0,0.0,3.4581,3.3729,3.321,3.2399,3.1718,0.0,0.0,0.0,0.0,0.0,0.0,0.0,0.0,0.0,0.0,0.0,0.0,0.0,0.0,0.0,0.0,0.0,0.0,0.0,0.0,0.0,0.0,0.0,0.0,0.0,0.0,0.0,0.0,0.0,0.0,0.0,0.0,0.0,0.0,0.0,0.0,0.0,0.0,0.0,0.0,0.0,0.0,0.0,0.0,0.0,0.0,0.0,0.0,0.0,0.0,0.0,0.0,0.0,0.0,0.0,0.0,0.0,0.0,0.0,0.0,0.0,0.0,0.0,0.0,0.0,0.0,0.0,0.0,0.0,0.0,0.0,0.0,0.0,0.0,0.0,0.0,0.0,0.0,0.0,0.0,0.0,0.0,0.0,0.0,0.0,0.0,0.0,0.0,0.0,0.0,0.0,0.0,0.0,0.0,0.0,0.0,0.0,0.0,0.0,0.0,0.0,0.0,0.0,0.0,0.0,0.0,0.0,0.0,0.0,3.4762,3.4762,3.4457,3.3695,3.3064,3.2399,0.0,0.0,0.0,0.0,0.0,0.0,0.0,0.0,0.0,0.0,0.0,0.0,0.0,0.0,0.0,0.0,0.0,0.0,0.0,0.0,0.0,0.0,0.0,0.0,0.0,0.0,0.0,0.0,0.0,0.0,0.0,0.0,0.0,0.0,0.0,0.0,0.0,0.0,0.0,0.0,0.0,0.0,0.0,0.0,0.0,0.0,0.0,0.0,0.0,0.0,0.0,0.0,0.0,0.0,0.0,0.0,0.0,0.0,0.0,0.0,0.0,0.0,0.0,0.0,0.0,0.0,0.0,0.0,0.0,0.0,0.0,0.0,0.0,0.0,0.0,0.0,0.0,0.0,0.0,0.0,0.0,0.0,0.0,0.0,0.0,0.0,0.0,0.0,0.0,0.0,0.0,0.0,0.0,0.0,0.0,0.0,0.0,0.0,0.0,0.0,0.0,0.0,0.0,0.0,0.0,0.0,0.0,0.0,0.0,3.4813,0.0,3.4969,0.0,3.3404,3.2546,0.0,0.0,0.0,0.0,0.0,0.0,0.0,0.0,0.0,0.0,0.0,0.0,0.0,0.0,0.0,0.0,0.0,0.0,0.0,0.0,0.0,0.0,0.0,0.0,0.0,0.0,0.0,0.0,0.0,0.0,0.0,0.0,0.0,0.0,0.0,0.0,0.0,0.0,0.0,0.0,0.0,0.0,0.0,0.0,0.0,0.0,0.0,0.0,0.0,0.0,0.0,0.0,0.0,0.0,0.0,0.0,0.0,0.0,0.0,0.0,0.0,0.0,0.0,0.0,0.0,0.0,0.0,0.0,0.0,0.0,0.0,0.0,0.0,0.0,0.0,0.0,0.0,0.0,0.0,0.0,0.0,0.0,0.0,0.0,0.0,0.0,0.0,0.0,0.0,0.0,0.0,0.0,0.0,0.0,0.0,0.0,0.0,0.0,0.0,0.0,0.0,0.0,0.0,0.0,0.0,0.0,0.0,0.0,3.4845,3.6206,3.6109,3.5497,3.423,3.355,3.2158,0.0,0.0,0.0,0.0,0.0,0.0,0.0,0.0,0.0,0.0,0.0,0.0,0.0,0.0,0.0,0.0,0.0,0.0,0.0,0.0,0.0,0.0,0.0,0.0,0.0,0.0,0.0,0.0,0.0,0.0,0.0,0.0,0.0,0.0,0.0,0.0,0.0,0.0,0.0,0.0,0.0,0.0,0.0,0.0,0.0,0.0,0.0,0.0,0.0,0.0,0.0,0.0,0.0,0.0,0.0,0.0,0.0,0.0,0.0,0.0,0.0,0.0,0.0,0.0,0.0,0.0,0.0,0.0,0.0,0.0,0.0,0.0,0.0,0.0,0.0,0.0,0.0,0.0,0.0,0.0,0.0,0.0,0.0,0.0,0.0,0.0,0.0,0.0,0.0,0.0,0.0,0.0,0.0,0.0,0.0,0.0,0.0,0.0,0.0,0.0,0.0,0.0,0.0,0.0,0.0,0.0,0.0,0.0,0.0,3.5969,3.7044,3.7422,3.6938,3.5376,3.3971,0.0,0.0,0.0,0.0,0.0,0.0,0.0,0.0,0.0,0.0,0.0,0.0,0.0,0.0,0.0,0.0,0.0,0.0,0.0,0.0,0.0,0.0,0.0,0.0,0.0,0.0,0.0,0.0,0.0,0.0,0.0,0.0,0.0,0.0,0.0,0.0,0.0,0.0,0.0,0.0,0.0,0.0,0.0,0.0,0.0,0.0,0.0,0.0,0.0,0.0,0.0,0.0,0.0,0.0,0.0,0.0,0.0,0.0,0.0,0.0,0.0,0.0,0.0,0.0,0.0,0.0,0.0,0.0,0.0,0.0,0.0,0.0,0.0,0.0,0.0,0.0,0.0,0.0,0.0,0.0,0.0,0.0,0.0,0.0,0.0,0.0,0.0,0.0,0.0,0.0,0.0,0.0,0.0,0.0,0.0,0.0,0.0,0.0,0.0,0.0,0.0,0.0,0.0,0.0,0.0,0.0,0.0,0.0,0.0,3.7847,3.8972,3.9159,3.8294,3.7025,3.5396,3.3388,0.0,0.0,0.0,0.0,0.0,0.0,0.0,0.0,0.0,0.0,0.0,0.0,0.0,0.0,0.0,0.0,0.0,0.0,0.0,0.0,0.0,0.0,0.0,0.0,0.0,0.0,0.0,0.0,0.0,0.0,0.0,0.0,0.0,0.0,0.0,0.0,0.0,0.0,0.0,0.0,0.0,0.0,0.0,0.0,0.0,0.0,0.0,0.0,0.0,0.0,0.0,0.0,0.0,0.0,0.0,0.0,0.0,0.0,0.0,0.0,0.0,0.0,0.0,0.0,0.0,0.0,0.0,0.0,0.0,0.0,0.0,0.0,0.0,0.0,0.0,0.0,0.0,0.0,0.0,0.0,0.0,0.0,0.0,0.0,0.0,0.0,0.0,0.0,0.0,0.0,0.0,0.0,0.0,0.0,0.0,0.0,0.0,0.0,0.0,0.0,0.0,0.0,0.0,0.0,0.0,0.0,0.0,0.0,4.1244,4.1749,4.1091,3.8991,3.8699,3.6627,0.0,0.0,0.0,0.0,0.0,0.0,0.0,0.0,0.0,0.0,0.0,0.0,0.0,0.0,0.0,0.0,0.0,0.0,0.0,0.0,0.0,0.0,0.0,0.0,0.0,0.0,0.0,0.0,0.0,0.0,0.0,0.0,0.0,0.0,0.0,0.0,0.0,0.0,0.0,0.0,0.0,0.0,0.0,0.0,0.0,0.0,0.0,0.0,0.0,0.0,0.0,0.0,0.0,0.0,0.0,0.0,0.0,0.0,0.0,0.0,0.0,0.0,0.0,0.0,0.0,0.0,0.0,0.0,0.0,0.0,0.0,0.0,0.0,0.0,0.0,0.0,0.0,0.0,0.0,0.0,0.0,0.0,0.0,0.0,0.0,0.0,0.0,0.0,0.0,0.0,0.0,0.0,0.0,0.0,0.0,0.0,0.0,0.0,0.0,0.0,0.0,0.0,0.0,0.0,0.0,0.0,0.0,0.0,0.0,4.2912,4.5794,4.6285,4.4138,4.1902,3.9534,0.0,0.0,0.0,0.0,0.0,0.0,0.0,0.0,0.0,0.0,0.0,0.0,0.0,0.0,0.0,0.0,0.0,0.0,0.0,0.0,0.0,0.0,0.0,0.0,0.0,0.0,0.0,0.0,0.0,0.0,0.0,0.0,0.0,0.0,0.0,0.0,0.0,0.0,0.0,0.0,0.0,0.0,0.0,0.0,0.0,0.0,0.0,0.0,0.0,0.0,0.0,0.0,0.0,0.0,0.0,0.0,0.0,0.0,0.0,0.0,0.0,0.0,0.0,0.0,0.0,0.0,0.0,0.0,0.0,0.0,0.0,0.0,0.0,0.0,0.0,0.0,0.0,0.0,0.0,0.0,0.0,0.0,0.0,0.0,0.0,0.0,0.0,0.0,0.0,0.0,0.0,0.0,0.0,0.0,0.0,0.0,0.0,0.0,0.0,0.0,0.0,0.0,0.0,0.0,0.0,0.0,0.0,0.0,4.3587,4.4879,4.9011,5.0464,4.9108,4.5733,4.2284,0.0,0.0,0.0,0.0,0.0,0.0,0.0,0.0,0.0,0.0,0.0,0.0,0.0,0.0,0.0,0.0,0.0,0.0,0.0,0.0,0.0,0.0,0.0,0.0,0.0,0.0,0.0,0.0,0.0,0.0,0.0,0.0,0.0,0.0,0.0,0.0,0.0,0.0,0.0,0.0,0.0,0.0,0.0,0.0,0.0,0.0,0.0,0.0,0.0,0.0,0.0,0.0,0.0,0.0,0.0,0.0,0.0,0.0,0.0,0.0,0.0,0.0,0.0,0.0,0.0,0.0,0.0,0.0,0.0,0.0,0.0,0.0,0.0,0.0,0.0,0.0,0.0,0.0,0.0,0.0,0.0,0.0,0.0,0.0,0.0,0.0,0.0,0.0,0.0,0.0,0.0,0.0,0.0,0.0,0.0,0.0,0.0,0.0,0.0,0.0,0.0,0.0,0.0,0.0,0.0,0.0,0.0,0.0,4.6072,4.7077,5.1512,5.3716,5.3338,4.9365,4.4723,0.0,0.0,0.0,0.0,0.0,0.0,0.0,0.0,0.0,0.0,0.0,0.0,0.0,0.0,0.0,0.0,0.0,0.0,0.0,0.0,0.0,0.0,0.0,0.0,0.0,0.0,0.0,0.0,0.0,0.0,0.0,0.0,0.0,0.0,0.0,0.0,0.0,0.0,0.0,0.0,0.0,0.0,0.0,0.0,0.0,0.0,0.0,0.0,0.0,0.0,0.0,0.0,0.0,0.0,0.0,0.0,0.0,0.0,0.0,0.0,0.0,0.0,0.0,0.0,0.0,0.0,0.0,0.0,0.0,0.0,0.0,0.0,0.0,0.0,0.0,0.0,0.0,0.0,0.0,0.0,0.0,0.0,0.0,0.0,0.0,0.0,0.0,0.0,0.0,0.0,0.0,0.0,0.0,0.0,0.0,0.0,0.0,0.0,0.0,0.0,0.0,0.0,0.0,0.0,0.0,0.0,0.0,0.0,4.6743,4.9458,5.3432,5.5608,5.5644,5.0151,4.5897,0.0,0.0,0.0,0.0,0.0,0.0,0.0,0.0,0.0,0.0,0.0,0.0,0.0,0.0,0.0,0.0,0.0,0.0,0.0,0.0,0.0,0.0,0.0,0.0,0.0,0.0,0.0,0.0,0.0,0.0,0.0,0.0,0.0,0.0,0.0,0.0,0.0,0.0,0.0,0.0,0.0,0.0,0.0,0.0,0.0,0.0,0.0,0.0,3.5252,0.0,0.0,0.0,0.0,0.0,0.0,0.0,0.0,0.0,0.0,0.0,0.0,0.0,0.0,0.0,0.0,0.0,0.0,0.0,0.0,0.0,0.0,0.0,0.0,0.0,0.0,0.0,0.0,0.0,0.0,0.0,0.0,0.0,0.0,0.0,0.0,0.0,0.0,0.0,0.0,0.0,0.0,0.0,0.0,0.0,0.0,0.0,0.0,0.0,0.0,0.0,0.0,0.0,0.0,0.0,0.0,0.0,0.0,0.0,4.8167,5.175,5.4992,5.6934,5.7384,5.2959,4.8915,0.0,0.0,0.0,0.0,0.0,0.0,0.0,0.0,0.0,0.0,0.0,0.0,0.0,0.0,0.0,0.0,0.0,0.0,0.0,0.0,0.0,0.0,0.0,0.0,0.0,0.0,0.0,0.0,0.0,0.0,0.0,0.0,0.0,0.0,0.0,0.0,0.0,0.0,0.0,0.0,0.0,0.0,0.0,0.0,0.0,0.0,0.0,0.0,0.0,0.0,0.0,0.0,0.0,0.0,0.0,0.0,0.0,0.0,0.0,0.0,0.0,0.0,0.0,0.0,0.0,0.0,0.0,0.0,0.0,0.0,0.0,0.0,0.0,0.0,0.0,0.0,0.0,0.0,0.0,0.0,0.0,0.0,0.0,0.0,0.0,0.0,0.0,0.0,0.0,0.0,0.0,0.0,0.0,0.0,0.0,0.0,0.0,0.0,0.0,0.0,0.0,0.0,0.0,0.0,0.0,0.0,0.0,4.6308,4.9789,5.3966,5.6381,5.8067,5.8999,5.6195,5.2218,4.7177,0.0,0.0,0.0,0.0,0.0,0.0,0.0,0.0,0.0,0.0,0.0,0.0,0.0,0.0,0.0,0.0,0.0,0.0,0.0,0.0,0.0,0.0,0.0,0.0,0.0,0.0,0.0,0.0,0.0,0.0,0.0,0.0,0.0,0.0,0.0,0.0,0.0,0.0,3.4585,3.5357,0.0,0.0,0.0,0.0,0.0,0.0,0.0,0.0,3.5427,0.0,0.0,0.0,0.0,0.0,0.0,0.0,0.0,0.0,0.0,0.0,0.0,0.0,0.0,0.0,0.0,0.0,0.0,0.0,0.0,0.0,0.0,0.0,0.0,0.0,0.0,0.0,0.0,0.0,0.0,0.0,0.0,0.0,0.0,0.0,0.0,0.0,0.0,0.0,0.0,0.0,0.0,0.0,0.0,0.0,0.0,0.0,0.0,0.0,0.0,0.0,0.0,0.0,0.0,0.0,0.0,4.6173,4.7884,5.095,5.5627,5.8018,5.9449,5.9761,5.7384,5.3856,4.9312,0.0,0.0,0.0,0.0,0.0,0.0,0.0,0.0,0.0,0.0,0.0,0.0,0.0,0.0,0.0,0.0,0.0,0.0,0.0,0.0,0.0,0.0,0.0,0.0,0.0,0.0,0.0,0.0,0.0,0.0,0.0,0.0,0.0,0.0,0.0,0.0,0.0,0.0,0.0,3.6906,3.7177,0.0,0.0,0.0,0.0,0.0,0.0,0.0,0.0,3.7255,0.0,0.0,0.0,0.0,0.0,0.0,0.0,0.0,0.0,0.0,0.0,0.0,0.0,0.0,0.0,0.0,0.0,0.0,0.0,0.0,0.0,0.0,0.0,0.0,0.0,0.0,0.0,0.0,0.0,0.0,0.0,0.0,0.0,0.0,0.0,0.0,0.0,0.0,0.0,0.0,0.0,0.0,0.0,0.0,0.0,0.0,0.0,0.0,0.0,0.0,0.0,0.0,0.0,0.0,0.0,4.7383,4.9726,5.3139,5.7788,5.9531,6.034,6.0523,5.7549,5.3931,0.0,0.0,0.0,0.0,0.0,0.0,0.0,0.0,0.0,0.0,0.0,0.0,0.0,0.0,0.0,0.0,0.0,0.0,0.0,0.0,0.0,0.0,0.0,0.0,0.0,0.0,0.0,0.0,0.0,0.0,0.0,0.0,0.0,0.0,0.0,0.0,0.0,0.0,0.0,0.0,3.8361,3.9116,4.0354,0.0,0.0,0.0,0.0,0.0,0.0,3.8302,3.8019,0.0,0.0,0.0,0.0,0.0,0.0,0.0,0.0,0.0,0.0,0.0,0.0,0.0,0.0,0.0,0.0,0.0,0.0,0.0,0.0,0.0,0.0,0.0,0.0,0.0,0.0,0.0,0.0,0.0,0.0,0.0,0.0,0.0,0.0,0.0,0.0,0.0,0.0,0.0,0.0,0.0,0.0,0.0,0.0,0.0,0.0,0.0,0.0,0.0,0.0,0.0,0.0,0.0,0.0,0.0,4.8069,5.128,5.5169,5.9696,6.0703,6.1249,6.145,5.7549,5.3667,0.0,0.0,0.0,0.0,0.0,0.0,0.0,0.0,0.0,0.0,0.0,0.0,0.0,0.0,0.0,0.0,0.0,0.0,0.0,0.0,0.0,0.0,0.0,0.0,0.0,0.0,0.0,0.0,0.0,0.0,0.0,0.0,0.0,0.0,0.0,0.0,0.0,0.0,0.0,0.0,0.0,4.0915,4.2262,4.1462,0.0,0.0,0.0,0.0,3.9262,3.9806,0.0,0.0,0.0,0.0,0.0,0.0,0.0,0.0,0.0,0.0,0.0,0.0,0.0,0.0,0.0,0.0,0.0,0.0,0.0,0.0,0.0,0.0,0.0,0.0,0.0,0.0,0.0,0.0,0.0,0.0,0.0,0.0,0.0,0.0,0.0,0.0,0.0,0.0,0.0,0.0,0.0,0.0,0.0,0.0,0.0,0.0,0.0,0.0,0.0,0.0,0.0,0.0,0.0,0.0,0.0,0.0,4.8102,5.1884,5.6047,6.0421,6.1598,6.2345,6.2941,5.7884,5.3748,0.0,0.0,0.0,0.0,0.0,0.0,0.0,0.0,0.0,0.0,0.0,0.0,0.0,0.0,0.0,0.0,0.0,0.0,0.0,0.0,0.0,0.0,0.0,0.0,0.0,0.0,0.0,0.0,0.0,0.0,0.0,0.0,0.0,0.0,0.0,0.0,0.0,0.0,0.0,0.0,0.0,4.2031,4.4186,4.2893,4.171,0.0,0.0,4.3234,4.3913,4.5667,0.0,0.0,0.0,0.0,0.0,0.0,0.0,0.0,0.0,0.0,0.0,0.0,0.0,0.0,0.0,0.0,0.0,0.0,0.0,0.0,0.0,0.0,0.0,0.0,0.0,0.0,0.0,0.0,0.0,0.0,0.0,0.0,0.0,0.0,0.0,0.0,0.0,0.0,0.0,0.0,0.0,0.0,0.0,0.0,0.0,0.0,0.0,0.0,0.0,0.0,0.0,0.0,0.0,0.0,0.0,4.6354,4.9551,5.4316,5.8342,6.1532,6.2842,6.3458,6.3444,5.7635,5.3353,0.0,0.0,0.0,0.0,0.0,0.0,0.0,0.0,0.0,0.0,0.0,0.0,0.0,0.0,0.0,0.0,0.0,0.0,0.0,0.0,0.0,0.0,0.0,0.0,0.0,0.0,0.0,0.0,0.0,0.0,0.0,0.0,0.0,0.0,0.0,0.0,0.0,0.0,0.0,0.0,0.0,0.0,4.4732,4.538,0.0,0.0,0.0,4.5559,4.4487,0.0,0.0,0.0,0.0,0.0,0.0,0.0,0.0,0.0,0.0,0.0,0.0,0.0,0.0,0.0,0.0,0.0,0.0,0.0,0.0,0.0,0.0,0.0,0.0,0.0,0.0,0.0,0.0,0.0,0.0,0.0,0.0,0.0,0.0,0.0,0.0,0.0,0.0,0.0,0.0,0.0,0.0,0.0,0.0,0.0,0.0,0.0,0.0,0.0,0.0,0.0,0.0,0.0,0.0,0.0,0.0,0.0,5.0536,5.6051,6.0059,6.2378,6.379,6.4374,6.4081,5.88,0.0,0.0,0.0,0.0,0.0,0.0,0.0,0.0,0.0,0.0,0.0,0.0,0.0,0.0,0.0,0.0,0.0,0.0,0.0,0.0,0.0,0.0,0.0,0.0,0.0,0.0,0.0,3.0196,0.0,0.0,0.0,0.0,0.0,0.0,0.0,0.0,0.0,0.0,0.0,0.0,0.0,0.0,4.6039,4.5698,4.7397,4.8329,0.0,0.0,4.7426,4.6265,4.8122,4.8392,0.0,0.0,0.0,0.0,0.0,0.0,0.0,0.0,0.0,0.0,0.0,0.0,0.0,0.0,0.0,0.0,0.0,0.0,0.0,0.0,0.0,0.0,0.0,0.0,0.0,0.0,0.0,0.0,0.0,0.0,0.0,0.0,0.0,0.0,0.0,0.0,0.0,0.0,0.0,0.0,0.0,0.0,0.0,0.0,0.0,0.0,0.0,0.0,0.0,0.0,0.0,0.0,0.0,0.0,0.0,5.0674,5.6084,6.0291,6.3107,6.4195,6.498,6.5547,6.2666,5.884,0.0,0.0,0.0,0.0,0.0,0.0,0.0,0.0,0.0,0.0,0.0,0.0,0.0,0.0,0.0,0.0,0.0,0.0,0.0,0.0,0.0,0.0,0.0,0.0,0.0,0.0,0.0,0.0,0.0,0.0,0.0,0.0,0.0,0.0,0.0,0.0,0.0,0.0,0.0,0.0,0.0,4.6335,4.786,4.8253,4.9286,0.0,0.0,4.9264,5.1574,5.3923,5.3512,4.7346,0.0,0.0,0.0,0.0,0.0,0.0,0.0,0.0,0.0,0.0,0.0,0.0,0.0,0.0,0.0,0.0,0.0,0.0,0.0,0.0,0.0,0.0,0.0,0.0,0.0,0.0,0.0,0.0,0.0,0.0,0.0,0.0,0.0,0.0,0.0,0.0,0.0,0.0,0.0,0.0,0.0,0.0,0.0,0.0,0.0,0.0,0.0,0.0,0.0,0.0,0.0,0.0,0.0,4.9118,5.1408,5.7487,6.1632,6.36,6.4886,6.5975,6.6886,6.34,5.9318,0.0,0.0,0.0,0.0,0.0,0.0,0.0,0.0,0.0,0.0,0.0,0.0,0.0,0.0,0.0,0.0,0.0,0.0,0.0,0.0,0.0,0.0,0.0,0.0,0.0,0.0,0.0,0.0,3.343,3.3829,3.4825,0.0,0.0,0.0,0.0,0.0,0.0,0.0,0.0,0.0,0.0,4.8445,5.0098,5.2202,0.0,0.0,5.3616,5.3189,5.2112,5.3108,5.2191,4.7212,4.4527,0.0,0.0,0.0,0.0,0.0,0.0,0.0,0.0,0.0,0.0,0.0,0.0,0.0,0.0,0.0,0.0,0.0,0.0,0.0,0.0,0.0,0.0,0.0,0.0,0.0,0.0,0.0,0.0,0.0,0.0,0.0,0.0,0.0,0.0,0.0,0.0,0.0,0.0,0.0,0.0,0.0,0.0,0.0,0.0,0.0,0.0,0.0,0.0,0.0,0.0,0.0,0.0,5.0047,5.2349,5.8486,6.2546,6.422,6.578,6.6872,6.7517,6.5093,6.1609,0.0,0.0,0.0,0.0,0.0,0.0,0.0,0.0,0.0,0.0,0.0,0.0,0.0,0.0,0.0,0.0,0.0,0.0,0.0,0.0,0.0,0.0,0.0,0.0,0.0,0.0,0.0,0.0,3.4433,3.4929,3.571,0.0,0.0,0.0,0.0,0.0,0.0,0.0,0.0,0.0,0.0,5.0499,5.1187,5.3563,5.4941,5.3693,5.377,5.3378,5.1782,5.1794,5.083,4.7352,0.0,0.0,0.0,0.0,0.0,0.0,0.0,0.0,0.0,0.0,0.0,0.0,0.0,0.0,0.0,0.0,0.0,0.0,0.0,0.0,0.0,0.0,0.0,0.0,0.0,0.0,0.0,0.0,0.0,0.0,4.0349,0.0,0.0,0.0,0.0,0.0,0.0,0.0,0.0,0.0,0.0,0.0,0.0,0.0,0.0,0.0,0.0,0.0,0.0,0.0,0.0,0.0,0.0,5.0347,5.3254,5.8831,6.2781,6.4957,6.669,6.7584,6.7651,6.8398,6.6643,6.1736,0.0,0.0,0.0,0.0,0.0,0.0,0.0,0.0,0.0,0.0,0.0,0.0,0.0,0.0,0.0,0.0,0.0,0.0,0.0,0.0,0.0,0.0,0.0,0.0,0.0,0.0,3.4536,3.5249,3.5806,0.0,0.0,0.0,0.0,0.0,0.0,0.0,0.0,0.0,0.0,4.8432,5.2053,5.0711,5.1488,5.2372,5.2525,4.9789,4.8481,5.1023,5.1121,5.022,0.0,0.0,0.0,0.0,0.0,0.0,0.0,0.0,0.0,0.0,0.0,0.0,0.0,0.0,0.0,0.0,0.0,0.0,0.0,0.0,0.0,0.0,0.0,0.0,0.0,0.0,0.0,4.2929,4.3048,0.0,0.0,0.0,0.0,0.0,0.0,0.0,0.0,0.0,0.0,0.0,4.8759,4.8995,0.0,0.0,0.0,0.0,0.0,0.0,0.0,0.0,0.0,0.0,0.0,0.0,5.1052,5.3645,5.9252,6.3458,6.6087,6.7251,6.8316,6.933,6.9214,6.6576,6.1266,0.0,0.0,0.0,0.0,0.0,0.0,0.0,0.0,0.0,0.0,0.0,0.0,0.0,0.0,0.0,0.0,0.0,0.0,0.0,0.0,0.0,0.0,0.0,0.0,0.0,3.6268,0.0,0.0,0.0,0.0,0.0,0.0,0.0,0.0,0.0,0.0,0.0,4.249,4.5776,4.7702,4.9183,5.0333,5.2119,5.3646,0.0,0.0,0.0,0.0,0.0,0.0,0.0,0.0,0.0,0.0,0.0,0.0,0.0,0.0,4.2802,3.9151,3.8695,3.8796,3.8427,0.0,0.0,0.0,0.0,0.0,0.0,0.0,0.0,0.0,0.0,0.0,0.0,0.0,0.0,0.0,0.0,4.5852,0.0,0.0,0.0,0.0,0.0,0.0,0.0,0.0,4.8386,5.1095,5.2898,5.2848,5.3169,0.0,5.287,5.0615,0.0,0.0,0.0,0.0,0.0,0.0,0.0,0.0,5.1788,5.4083,5.9775,6.4106,6.6711,6.7793,6.8808,6.9755,6.935,6.7167,6.2892,5.7172,5.2743,0.0,0.0,0.0,0.0,0.0,0.0,0.0,0.0,0.0,0.0,0.0,0.0,0.0,0.0,0.0,0.0,0.0,0.0,0.0,0.0,0.0,0.0,0.0,3.7625,0.0,0.0,0.0,0.0,0.0,0.0,0.0,0.0,0.0,4.2122,4.2736,4.4527,4.811,4.9213,4.9723,4.9691,0.0,0.0,0.0,0.0,0.0,0.0,0.0,4.827,4.7516,4.7119,4.7428,4.9159,4.9326,4.9037,4.8407,0.0,0.0,4.249,4.176,4.1539,4.0658,3.9692,3.86,3.7326,3.6188,3.4726,0.0,0.0,0.0,0.0,0.0,0.0,0.0,0.0,4.7183,4.731,0.0,4.792,0.0,0.0,0.0,0.0,0.0,4.7022,0.0,0.0,5.3578,5.5649,5.6385,5.6079,5.6183,5.6746,5.5487,5.4759,5.4427,5.0975,0.0,0.0,0.0,0.0,0.0,0.0,5.2587,5.4989,6.055,6.4613,6.6846,6.8335,6.9113,6.9214,6.9147,6.835,6.6558,6.2186,5.8705,5.617,5.0185,0.0,0.0,0.0,0.0,0.0,0.0,0.0,0.0,0.0,0.0,0.0,0.0,0.0,0.0,0.0,0.0,0.0,0.0,0.0,0.0,3.8697,0.0,0.0,0.0,0.0,0.0,0.0,0.0,0.0,0.0,0.0,4.363,4.5158,4.7148,4.9309,0.0,0.0,0.0,0.0,5.2281,4.7262,4.613,4.6124,4.6304,4.789,4.977,5.1246,0.0,0.0,5.3917,5.1581,4.975,4.8867,4.9804,4.9191,4.6401,4.4844,4.3505,4.1846,4.0615,3.9039,3.7487,3.6126,3.4234,5.5509,0.0,0.0,0.0,0.0,5.052,5.1395,5.2068,5.2708,5.2876,5.2672,5.1592,0.0,0.0,0.0,0.0,0.0,0.0,5.1462,5.2706,5.6029,5.9001,6.1312,6.1019,6.0832,6.0835,6.0403,5.9591,5.8403,5.7297,5.4278,4.9417,0.0,0.0,0.0,0.0,5.4033,5.7457,6.1436,6.5121,6.8402,6.8876,6.962,7.0635,6.995,6.9242,6.8384,6.5413,6.2186,5.8773,5.5375,0.0,0.0,0.0,0.0,0.0,0.0,0.0,0.0,0.0,0.0,0.0,0.0,0.0,0.0,0.0,0.0,0.0,0.0,0.0,4.1716,4.1409,4.075,0.0,0.0,0.0,0.0,0.0,0.0,0.0,0.0,0.0,4.857,4.7067,4.6398,0.0,0.0,4.7681,4.6458,4.9461,5.1905,5.2345,5.2784,0.0,5.5665,5.4292,5.3389,5.4267,5.6416,5.7836,5.7172,5.756,5.7788,5.7172,5.659,5.542,5.3134,5.0235,4.7655,4.5873,4.4629,4.3308,4.125,4.0062,3.884,6.1117,5.7372,5.5481,5.4309,5.3874,5.441,5.5174,5.6037,5.6124,5.6224,5.6237,5.5299,5.3885,5.2065,5.0826,0.0,0.0,0.0,5.4559,5.664,5.8665,6.12,6.4045,6.3583,6.3367,6.3433,6.3082,6.2399,6.1368,6.0423,5.829,5.4972,0.0,0.0,5.0674,5.3451,5.6304,5.9342,6.2695,6.5764,6.8538,6.9214,7.0094,7.1244,7.0659,7.0085,6.9553,6.7539,6.5008,6.2211,5.8959,5.5235,0.0,0.0,0.0,0.0,0.0,0.0,0.0,0.0,0.0,0.0,0.0,3.9866,3.9301,0.0,0.0,0.0,4.1955,4.2317,4.2615,4.2093,0.0,0.0,0.0,0.0,0.0,0.0,0.0,4.3472,4.6398,4.9309,5.1124,5.0274,4.9884,5.1257,5.0945,5.0473,4.9977,0.0,5.4932,5.5473,5.5984,5.691,5.8613,5.7909,5.7433,5.8887,5.9996,6.0661,6.016,6.0732,6.0959,6.0519,5.9523,5.8093,5.6295,5.3562,5.0818,4.8341,4.6914,4.5437,4.3447,4.2074,4.0472,6.6313,6.4614,6.0044,5.8274,5.8419,5.7753,5.8063,5.9112,5.8174,5.7974,5.8486,5.8782,5.7976,5.6345,5.5291,0.0,5.4861,5.5812,5.8186,6.1467,6.1301,6.2704,6.5329,6.4657,6.464,6.5191,6.4419,6.4,6.3781,6.175,6.0904,6.1152,5.7893,5.5303,5.3882,5.6644,5.8975,6.0512,6.3896,6.6406,6.8064,6.9519,7.0601,7.1278,7.1312,7.0973,7.0263,6.8876,6.7421,6.5831,6.1604,5.8236,5.6012,0.0,0.0,0.0,0.0,0.0,0.0,0.0,0.0,0.0,0.0,0.0,0.0,0.0,0.0,0.0,4.3309,0.0,4.2879,4.1917,0.0,0.0,0.0,4.3962,4.6586,4.7586,4.8252,4.8502,0.0,0.0,5.2353,5.4116,5.6108,5.8229,5.8582,5.8067,5.6676,5.8689,5.9872,5.7323,5.73,5.7684,5.8684,6.0039,6.1757,6.3562,6.4088,6.3419,6.2617,6.1822,6.1027,6.0517,5.9545,5.8399,5.6726,5.5008,5.3023,4.963,4.7615,4.5959,4.422,4.2016,3.9792,6.8877,6.7878,6.6377,6.4136,6.145,6.1283,6.1252,6.1434,6.1513,6.1447,6.1383,6.092,5.9944,5.8763,5.8808,5.8953,5.9175,6.0718,6.1987,6.3024,6.4059,6.4937,6.5647,6.6593,6.6963,6.6993,6.7362,6.7087,6.6497,6.641,6.5287,6.3031,6.2665,6.0669,5.7066,5.7753,5.9321,6.1682,6.366,6.6238,6.9553,7.0567,7.1142,7.1312,7.1312,7.1244,7.1041,7.0161,6.8944,6.7421,6.5208,6.2064,5.7873,5.4808,0.0,0.0,0.0,0.0,0.0,0.0,0.0,0.0,0.0,4.0036,3.9906,0.0,4.2611,0.0,4.4821,4.6157,4.7375,4.6782,0.0,0.0,4.7448,4.7923,4.8972,5.1084,5.217,5.1092,5.3136,5.5194,5.6661,5.7625,5.958,6.3015,6.0059,5.732,5.7022,5.9349,6.0967,6.0717,6.2376,6.4219,6.4383,6.4964,6.5241,6.5147,6.5222,6.4803,6.3548,6.3545,6.3104,6.1696,6.1041,5.9635,5.6914,5.5097,5.302,5.0017,4.8109,4.6239,4.4083,4.1978,3.9927,7.0897,7.0163,6.9827,6.8148,6.5694,6.4972,6.4734,6.488,6.4504,6.437,6.4552,6.3332,6.2173,6.1233,6.1662,6.1829,6.187,6.3222,6.4093,6.4546,6.5662,6.6373,6.6711,6.7895,6.835,6.8297,6.858,6.8459,6.7913,6.8227,6.7502,6.5755,6.6122,6.4786,6.1781,6.0631,6.0979,6.2796,6.4741,6.7251,7.0094,7.0906,7.0749,6.9558,6.9524,6.9132,6.8282,6.7329,6.6522,6.5984,6.427,6.1723,5.833,5.561,5.2622,0.0,0.0,0.0,0.0,0.0,0.0,0.0,0.0,0.0,0.0,0.0,4.5891,4.5833,4.7679,4.905,4.9333,4.9337,4.9801,5.0779,5.1277,5.2178,5.3676,5.5306,5.6212,5.5907,5.7529,5.9164,6.0622,6.1799,6.333,6.5847,6.3909,6.2035,6.1607,6.3252,6.4432,6.4167,6.5813,6.733,6.7629,6.7829,6.7585,6.6772,6.6225,6.5603,6.438,6.4266,6.3712,6.2094,6.1077,5.9636,5.671,5.4414,5.2126,4.9542,4.7545,4.5721,4.3815,4.1534,3.9301,7.2424,7.1721,7.1671,7.112,7.0198,6.8741,6.8282,6.8272,6.702,6.6853,6.7389,6.5942,6.4723,6.3949,6.4355,6.4287,6.3949,6.4802,6.5527,6.617,6.6812,6.7455,6.8098,6.8876,6.9248,6.9248,6.9107,6.9052,6.9052,6.8819,6.8629,6.8462,6.8428,6.7657,6.5995,6.3985,6.3299,6.3833,6.6335,6.8345,6.9992,7.0411,6.9524,6.7255,6.7154,6.6343,6.464,6.3581,6.3233,6.3615,6.1783,6.0037,5.8694,5.5928,5.34,0.0,4.917,0.0,0.0,0.0,0.0,0.0,0.0,0.0,0.0,4.936,5.0228,4.9457,5.1141,5.181,5.0746,5.1544,5.2931,5.4816,5.5364,5.6638,5.9152,5.9674,6.014,6.1189,6.1917,6.2844,6.3851,6.5545,6.6618,6.7234,6.777,6.759,6.694,6.751,6.7837,6.7112,6.7678,6.8161,6.8639,6.8921,6.8666,6.798,6.7131,6.6103,6.497,6.4555,6.3672,6.1963,6.0578,5.874,5.6192,5.3496,5.0862,4.8289,4.6456,4.4804,4.3098,4.071,3.793,7.2968,7.2491,7.292,7.2969,7.2834,7.2655,7.0996,6.8428,6.8304,6.8446,6.8702,6.819,6.7799,6.7651,6.7752,6.7752,6.7651,6.8079,6.8335,6.847,6.8605,6.8741,6.891,6.962,6.9992,7.0026,7.0512,7.0782,7.0782,7.0782,6.9996,6.8695,6.8695,6.7355,6.5034,0.0,0.0,0.0,6.669,6.7988,6.8884,6.7766,6.6886,6.645,6.6243,0.0,6.5547,6.5193,6.474,6.4221,6.3226,0.0,0.0,0.0,0.0,0.0,0.0,0.0,0.0,0.0,0.0,0.0,5.1972,5.1383,4.9718,5.1404,5.2909,5.3506,5.3987,5.4623,5.5544,5.689,5.7942,5.8541,6.0348,6.1782,6.2413,6.3079,6.3505,6.3299,6.4036,6.4604,6.5159,6.5969,6.6889,6.7768,6.8502,6.8693,6.7802,6.8025,6.8035,6.7878,6.8261,6.8832,6.9467,6.9283,6.8634,6.7786,6.7451,6.6582,6.5014,6.4851,6.4042,6.1645,6.0126,5.8313,5.5045,5.2348,4.989,4.7468,4.5527,4.3589,4.1572,3.9533,3.6813,7.3872,0.0,7.3999,7.3815,0.0,7.3787,7.2847,7.1064,7.0569,6.9996,6.9444,6.9322,6.912,6.887,6.8783,6.8837,6.9045,6.9079,6.9166,6.9252,6.9538,6.962,6.9654,7.0398,7.0939,7.1278,7.165,7.2022,7.236,7.2022,7.1357,7.049,7.0153,6.9288,6.7947,6.8404,6.8156,6.6925,6.7752,6.8749,6.9917,6.9187,6.8068,6.6819,0.0,0.0,0.0,0.0,0.0,0.0,0.0,0.0,0.0,6.1036,0.0,5.9234,5.7526,5.6497,5.6384,5.6303,5.6466,5.7036,5.7983,5.7747,5.5831,5.6525,5.743,5.8157,5.8441,5.8885,5.9605,6.0798,6.1513,6.1614,6.2959,6.4011,6.4301,6.4754,6.526,6.5715,6.5947,6.631,6.6779,6.7421,6.7987,6.8511,6.9177,6.9377,6.8559,6.8752,6.9077,6.8892,6.9064,6.9334,6.9475,6.9285,6.8699,6.7979,6.747,6.6687,6.5356,6.4909,6.3942,6.1308,5.9333,5.7216,5.4262,5.155,4.8944,4.6995,4.511,4.2741,3.9726,3.7692,3.5173,7.5105,7.5201,7.4984,7.4559,7.3883,7.4194,7.4309,7.4105,0.0,0.0,0.0,7.0355,6.9984,6.9485,6.9275,6.933,6.9678,6.9572,6.9538,6.9746,7.0317,7.05,7.0432,7.1278,7.1921,7.2394,7.2529,7.2902,7.3443,7.2868,7.2597,7.2529,7.1988,7.165,7.1515,7.1379,7.0681,6.9389,6.8951,6.9356,7.0782,7.0715,6.9558,6.7322,6.7288,6.6456,6.4906,6.4348,6.4248,6.4781,6.4181,6.37,6.3333,6.2248,6.1366,6.0868,6.0008,5.976,6.0553,6.0619,6.1102,6.2199,6.3165,6.3194,6.1857,6.1648,6.1715,6.2159,6.2615,6.2966,6.2966,6.3902,6.4404,6.4267,6.4909,6.5496,6.5986,6.6137,6.6728,6.7517,6.7456,6.7703,6.8226,6.8736,6.9144,6.9217,6.9683,6.9883,6.9197,6.939,6.975,6.9727,6.9666,6.9574,6.9382,6.9091,6.8699,6.8136,6.7459,6.6554,6.5669,6.4703,6.3152,6.0856,5.8373,5.5909,5.3407,5.0719,4.83,4.6563,4.4783,4.2166,3.792,3.5458,3.2841,7.6375,7.6301,7.62,7.5889,7.5405,7.5875,7.5812,7.5162,7.4321,7.3356,7.2361,7.2361,7.1864,7.1007,7.1007,7.1007,7.0973,7.1007,7.1007,0.0,7.1751,7.1751,7.1244,7.2529,7.2902,7.2462,7.3037,7.3375,7.3477,7.3375,7.3308,7.3308,7.324,7.2868,7.2259,7.1616,7.1515,7.1762,6.9726,6.885,6.9052,6.827,6.7657,6.7355,6.7179,6.699,6.6668,6.5791,6.5304,6.5404,6.4706,6.4927,6.6201,6.512,6.4972,6.6076,6.5593,6.531,6.5187,6.5187,6.534,6.5526,6.5883,6.5077,6.2963,6.3396,6.3766,6.3768,6.4354,6.4723,6.4705,6.5895,6.6665,6.6677,6.751,6.8122,6.8156,6.8364,6.8432,6.835,6.8171,6.8293,6.8685,6.8732,6.8998,6.9528,6.9595,6.976,6.9467,6.9169,6.923,6.9633,6.9607,6.9478,6.9285,6.8797,6.8301,6.7899,6.7213,6.6268,6.5125,6.3842,6.2228,6.0144,5.7455,5.4893,5.2652,5.0201,4.7931,4.5972,4.37,4.0694,3.6444,3.2914,2.9361,7.7178,7.738,7.7309,7.7036,7.6699,7.6965,7.6666,7.604,7.5914,7.5001,7.3638,7.305,7.2586,7.2101,7.1977,7.2067,7.2246,7.2417,7.2678,7.3071,7.3232,7.3017,7.2779,7.3572,7.3912,7.3797,7.4102,7.4475,7.4814,7.4382,7.4086,7.4052,7.3713,7.3105,7.2462,7.2462,7.2462,7.236,7.1289,7.0861,7.1233,7.0838,7.067,7.067,7.0579,7.0489,7.0489,6.9894,6.9568,6.986,6.9266,6.9233,6.9816,6.8841,6.8371,6.864,6.7913,6.751,6.7456,6.751,6.7598,6.7598,6.7772,6.7573,6.6492,6.6356,6.6458,6.6897,6.6978,6.706,6.6973,6.7611,6.7892,6.7658,6.8261,6.8774,6.9054,6.93,6.9558,6.9839,6.9692,6.9553,6.9888,6.9217,6.8865,6.9323,6.8998,6.8677,6.8946,6.8748,6.8748,6.9409,6.9382,6.9091,6.8994,6.86,6.8,6.7491,6.6659,6.57,6.4463,6.3116,6.1434,5.9364,5.6745,5.4424,5.2232,4.9858,4.7679,4.5705,4.3018,3.9654,3.5153,2.9423,2.3927,7.7983,7.8354,7.8118,7.7914,7.7711,7.755,7.7281,7.6861,7.7022,7.6265,7.4933,7.3877,7.3254,7.3118,7.2847,7.2994,7.3331,7.3606,7.3969,7.4453,7.4321,7.4139,7.4037,7.4491,7.4901,7.5092,7.5229,7.5637,7.5986,7.5323,7.4864,7.4796,7.4119,7.3443,7.2902,7.3274,7.3274,7.2935,7.2902,7.3105,7.3477,7.3646,7.3713,7.3747,7.3713,7.3747,7.3713,7.3215,7.3114,7.3443,7.3114,7.2843,7.2631,7.1874,7.1209,7.0636,6.9917,6.9524,6.9524,6.9502,6.9524,6.9524,6.9566,6.9674,6.9832,6.9184,6.8879,6.9356,6.9252,6.9127,6.8985,6.9187,6.9077,6.8627,6.8931,6.9379,6.9793,6.9984,7.0367,7.1154,7.0858,7.0574,7.054,6.9677,6.9097,6.9124,6.8434,6.8082,6.8456,6.8558,6.8726,6.8991,6.8994,6.8797,6.86,6.8101,6.7593,6.6869,6.6023,6.5046,6.3872,6.2553,6.0852,5.857,5.6308,5.4026,5.1865,4.9745,4.7426,4.5146,4.2201,3.8187,3.2141,2.5469,1.9414,7.9331,7.9026,7.8724,7.8486,7.8167,7.7516,7.746,7.7697,7.7137,7.6975,7.6665,7.5652,7.4752,7.4206,7.3867,7.3901,7.4172,7.424,7.4308,7.4501,7.4957,7.4923,7.4479,7.5641,7.5948,7.5538,7.6051,7.6241,7.6156,7.6054,7.5798,7.5506,7.4864,7.4458,7.4322,7.3815,7.3781,7.439,7.439,7.4119,7.3544,7.4153,7.4492,7.4525,7.4525,7.4525,7.4492,7.3815,7.3443,7.3477,7.351,7.3443,7.3375,7.3308,7.324,7.3138,7.3071,7.2979,7.2911,7.2462,7.2022,7.2056,7.1447,7.1164,7.1396,7.1328,7.0803,7.026,7.0396,7.0444,7.006,7.0601,7.0794,7.0306,7.0397,7.0714,7.0623,7.0996,7.1222,7.1243,7.08,7.0456,7.033,6.9789,6.9566,6.9429,6.8837,6.8578,6.8888,6.8926,6.8699,6.8666,6.86,6.8501,6.8201,6.7593,6.6974,6.6236,6.5266,6.427,6.3159,6.1615,5.9767,5.8121,5.5905,5.3654,5.1549,4.9286,4.686,4.3645,4.0104,3.5595,2.7931,2.1876,1.7737,7.9939,7.9769,7.9634,7.9058,7.8172,7.7895,7.757,7.7124,7.6874,7.6918,7.7099,7.6484,7.5845,7.5104,7.4889,7.4889,7.5104,7.5458,7.5754,7.5969,7.6154,7.6119,7.5914,7.6519,7.6656,7.6359,7.7079,7.733,7.7144,7.6957,7.6435,7.5709,7.5371,7.5127,7.4848,7.495,7.495,7.4814,7.5255,7.5323,7.4864,7.51,7.527,7.527,7.527,7.527,7.5236,7.4931,7.4796,7.4796,7.4796,7.4687,7.4339,7.4246,7.4043,7.3763,7.3603,7.3569,7.3695,7.3298,7.3037,7.3037,7.2766,7.2779,7.3105,7.3105,7.2976,7.288,7.2467,7.2103,7.1927,7.211,7.2045,7.1671,7.1185,7.0916,7.0882,7.1007,7.1131,7.1233,7.0858,7.0515,7.0263,6.9683,6.9003,6.8705,6.8446,6.8554,6.8531,6.8601,6.8567,6.8201,6.8101,6.8101,6.7899,6.7285,6.6448,6.5669,6.4795,6.3706,6.2379,6.1348,5.9841,5.7761,5.5785,5.3726,5.1549,4.8948,4.6241,4.2189,3.5773,3.0243,2.473,2.0358,1.6545,8.0209,8.0175,8.0309,7.9564,7.8413,7.8303,7.7679,7.6743,7.6656,7.6839,7.7228,7.6931,7.6656,7.6347,7.5869,7.5766,7.5926,7.6348,7.6679,7.6953,7.6828,7.6793,7.6793,7.7099,7.7099,7.6987,7.7468,7.7743,7.7652,7.7187,7.6537,7.5872,7.5709,7.5534,7.5408,7.5884,7.585,7.5408,7.585,7.5994,7.5676,7.5676,7.5676,7.5676,7.5676,7.5676,7.5676,7.5676,7.5676,7.5676,7.5676,7.5567,7.5247,7.5026,7.4755,7.45,7.4305,7.4213,7.449,7.4102,7.3781,7.3781,7.3612,7.3661,7.4026,7.4172,7.4385,7.4547,7.4253,7.3837,7.3509,7.3249,7.2846,7.2598,7.1684,7.1098,7.103,7.0973,7.1098,7.1222,7.0825,7.0423,7.0136,6.9357,6.8545,6.8319,6.8163,6.814,6.8013,6.8175,6.8201,6.7797,6.7593,6.7491,6.7388,6.6764,6.6023,6.5016,6.4127,6.3019,6.1732,6.1015,5.9937,5.7818,5.6057,5.4113,5.1666,4.892,4.4415,3.9347,3.323,2.6862,2.3129,1.9025,1.537,8.0209,8.0209,8.0476,8.0134,7.942,7.8706,7.7924,7.7142,7.6496,7.6718,7.7511,7.7114,7.724,7.7731,7.6895,7.6461,7.6461,7.6656,7.6724,7.6724,7.6805,7.6828,7.6793,7.7133,7.7258,7.7237,7.7444,7.7319,7.7034,7.6539,7.6156,7.6156,7.6035,7.5872,7.6122,7.6224,7.6156,7.619,7.6258,7.6096,7.5872,7.5777,7.5811,7.5811,7.5709,7.5777,7.5777,7.5709,7.5743,7.5709,7.5743,7.5709,7.5642,7.5642,7.5832,7.5858,7.5764,7.5669,7.5756,7.5119,7.4559,7.4492,7.4018,7.3637,7.4173,7.4355,7.4624,7.4665,7.5461,7.5495,7.4665,7.4028,7.3528,7.3215,7.2233,7.1647,7.1376,7.1435,7.1312,7.1222,7.0825,7.033,6.986,6.8946,6.8723,6.8759,6.8306,6.7753,6.8009,6.7967,6.7695,6.7388,6.7005,6.6723,6.6586,6.6161,6.5266,6.4239,6.3334,6.2351,6.1523,6.0595,5.9342,5.8048,5.6269,5.4205,5.1758,4.7671,4.2011,3.6685,3.1056,2.5677,2.1648,1.7815,1.3984,8.0309,8.051,8.0576,8.0202,7.9522,7.9019,7.8443,7.7924,7.7652,7.7782,7.8237,7.8126,7.8066,7.8177,7.8032,7.7844,7.7778,7.819,7.8338,7.8142,7.7789,7.7789,7.8235,7.7915,7.7766,7.8051,7.8465,7.858,7.8269,7.8083,7.7835,7.7645,7.7645,7.7741,7.7801,7.7896,7.799,7.799,7.7896,7.7611,7.7386,7.7261,7.7164,7.713,7.669,7.669,7.7164,7.7164,7.6961,7.6487,7.6487,7.655,7.6612,7.6802,7.6786,7.6377,7.6309,7.6275,7.6427,7.5943,7.5526,7.5492,7.5161,7.5052,7.5491,7.5675,7.5857,7.6162,7.6513,7.6548,7.6059,7.5352,7.4905,7.4713,7.3864,7.2969,7.2416,7.2225,7.2033,7.1266,7.0641,7.0082,6.9637,6.9247,6.9022,6.8798,6.8372,6.7942,6.7903,6.7695,6.7388,6.7005,6.6554,6.6023,6.5483,6.5266,6.4715,6.3706,6.2672,6.1732,6.0923,6.0071,5.8924,5.7535,5.5949,5.3505,5.0622,4.4568,3.9171,3.4088,2.8507,2.4186,2.0135,1.6447,1.244,8.051,8.0675,8.0808,8.0365,7.962,7.9389,7.8948,7.8269,7.8235,7.8468,7.8735,7.8661,7.853,7.8735,7.9057,7.9102,7.897,7.9118,7.9034,7.8905,7.8263,7.8332,7.8768,7.8485,7.8431,7.8718,7.9258,7.9407,7.9187,7.9093,7.8811,7.8524,7.8654,7.8654,7.8681,7.8871,7.8999,7.8905,7.8681,7.8428,7.8269,7.8074,7.8111,7.8247,7.7874,7.7671,7.801,7.801,7.7773,7.7333,7.7232,7.7329,7.7488,7.7679,7.7528,7.6973,7.7076,7.7169,7.7148,7.6743,7.6462,7.6462,7.6001,7.5899,7.6402,7.6402,7.6587,7.6953,7.7043,7.6862,7.6668,7.6256,7.5914,7.5605,7.4774,7.3877,7.3037,7.2756,7.2022,7.0993,7.0363,6.9893,6.9478,6.9188,6.8863,6.8501,6.8101,6.7695,6.7593,6.7078,6.6796,6.648,6.5915,6.5235,6.4715,6.4382,6.3932,6.2903,6.2234,6.1284,6.0316,5.9578,5.8467,5.7068,5.4914,5.2297,4.7916,4.1792,3.6519,3.1793,2.7237,2.2858,1.9059,1.5072,1.1213,8.0709,8.1005,8.1297,8.0823,8.0014,7.998,7.9211,7.8311,7.8243,7.865,7.9189,7.8676,7.891,7.9415,7.9939,8.0192,7.996,7.9262,7.8797,7.8763,7.8496,7.8462,7.8599,7.8913,7.9128,7.9128,7.9407,7.9534,7.9511,7.9231,7.8947,7.8818,7.8763,7.8927,7.8784,7.9016,7.8913,7.8982,7.8859,7.8502,7.8108,7.8277,7.8616,7.9025,7.9058,7.8754,7.8145,7.8145,7.8145,7.801,7.7976,7.7976,7.8006,7.8269,7.8156,7.7861,7.8237,7.8332,7.8005,7.7494,7.721,7.7142,7.6374,7.613,7.6539,7.6377,7.6402,7.6736,7.6645,7.6587,7.6495,7.6427,7.6245,7.5742,7.4821,7.3923,7.3242,7.2666,7.1907,7.0716,7.0082,6.9703,6.9285,6.8797,6.8301,6.8101,6.7593,6.7005,6.6901,6.6343,6.5947,6.5839,6.5266,6.4493,6.3932,6.3364,6.2788,6.2204,6.1642,6.0952,5.9825,5.8955,5.7916,5.6434,5.31,5.0468,4.545,3.967,3.5154,3.0553,2.6047,2.1682,1.7894,1.4045,0.9981,8.061,8.1005,8.0906,8.0868,8.0857,8.0726,8.0395,7.9994,7.9896,7.9933,8.0069,7.9799,7.9833,8.0168,8.0629,8.0823,8.1016,8.0583,8.0481,8.0378,7.9933,7.9775,7.9985,7.9837,7.9693,7.978,7.9462,7.959,8.0096,8.0071,8.0218,8.0474,8.0672,8.0672,8.0508,8.0768,8.0863,8.0768,8.0577,8.0384,8.0287,8.0092,8.013,8.0137,8.017,7.9935,7.9532,7.9498,7.9261,7.8788,7.8754,7.8517,7.8311,7.8778,7.8871,7.8511,7.8579,7.8776,7.8725,7.8434,7.8245,7.8013,7.7278,7.6999,7.7085,7.6675,7.6436,7.6587,7.6645,7.6645,7.6309,7.6216,7.6173,7.6245,7.547,7.4503,7.3436,7.2134,7.0943,7.0149,6.9703,6.9382,6.8896,6.8401,6.8,6.7695,6.7109,6.6586,6.613,6.57,6.5266,6.4967,6.427,6.3819,6.3364,6.2788,6.2087,6.1494,6.1044,6.0316,5.9329,5.8198,5.7248,5.476,5.1594,4.7493,4.2704,3.8035,3.3644,2.9185,2.4624,2.0483,1.668,1.2711,0.8489,8.061,8.1005,8.0906,8.1102,8.1393,8.12,8.1102,8.1005,8.0709,8.061,8.0476,8.0276,8.0309,8.061,8.0906,8.1102,8.1428,8.149,8.149,8.1455,8.0851,8.0658,8.0838,8.0429,8.0287,8.0378,8.0097,8.0287,8.0828,8.0863,8.1104,8.1421,8.1585,8.1585,8.1393,8.1585,8.1715,8.1585,8.1393,8.12,8.12,8.1102,8.0906,8.0576,8.061,8.0476,8.0209,8.0209,8.0006,7.9634,7.9532,7.9261,7.8889,7.9559,7.9654,7.9206,7.9303,7.9597,7.9419,7.9221,7.9126,7.8893,7.8156,7.7577,7.7528,7.7016,7.6743,7.6529,7.6461,7.6368,7.5994,7.5933,7.5994,7.6182,7.5408,7.45,7.3206,7.1472,7.0336,6.986,6.9478,6.8994,6.86,6.8101,6.7797,6.7317,6.6796,6.6268,6.57,6.5266,6.4715,6.4158,6.3736,6.3249,6.2788,6.2116,6.1404,6.0923,6.0316,5.9578,5.8704,5.7532,5.6444,5.2321,4.8843,4.4968,4.0237,3.6162,3.1869,2.7395,2.3164,1.8856,1.4939,1.0651,0.6525,8.0743,8.1005,8.1297,8.1393,8.1393,8.1393,8.1297,8.1005,8.0808,8.0709,8.061,8.0309,8.0376,8.061,8.0906,8.12,8.1393,8.1681,8.1776,8.1585,8.129,8.097,8.0774,8.0607,8.0672,8.0868,8.116,8.129,8.1256,8.1386,8.1393,8.1393,8.149,8.1393,8.149,8.1428,8.149,8.149,8.12,8.1102,8.1102,8.1102,8.0906,8.0709,8.061,8.051,8.0209,8.0209,8.0209,8.0175,8.0107,8.0073,8.0242,8.0476,8.0202,7.9624,8.0399,8.0361,8.0048,7.9911,7.9815,7.9586,7.8939,7.8258,7.7938,7.7502,7.6965,7.6582,7.6284,7.6028,7.5805,7.5709,7.5676,7.5445,7.4769,7.3508,7.1882,7.0764,7.0149,6.9703,6.9285,6.8797,6.8301,6.7797,6.7388,6.7005,6.6512,6.5947,6.5483,6.4936,6.427,6.3706,6.3049,6.2585,6.2116,6.188,6.1044,6.0043,5.955,5.8802,5.7551,5.618,5.4152,5.023,4.6139,4.2165,3.8406,3.4371,3.0223,2.5985,2.1525,1.7232,1.3027,0.9012,0.5139,8.1086,8.1005,8.1102,8.1297,8.1681,8.1715,8.162,8.1524,8.1102,8.0906,8.0808,8.041,8.051,8.0906,8.1005,8.12,8.1585,8.181,8.1776,8.181,8.1715,8.1297,8.0906,8.0709,8.0709,8.1005,8.12,8.1393,8.1393,8.1585,8.162,8.1428,8.1585,8.1715,8.1715,8.1715,8.1715,8.1681,8.1585,8.1585,8.1585,8.1585,8.1393,8.0906,8.0906,8.0709,8.0309,8.0209,8.0209,8.0209,8.041,8.041,8.0209,8.0476,8.0474,8.0372,8.034,8.0542,8.0633,8.0467,8.0467,8.0565,7.9722,7.9148,7.9007,7.7856,7.7148,7.6775,7.6435,7.6028,7.5805,7.5709,7.5315,7.4455,7.385,7.2747,7.1131,7.0343,6.9988,6.9382,6.9124,6.8665,6.8101,6.7593,6.7317,6.6901,6.6268,6.5515,6.5046,6.4239,6.3478,6.3049,6.2498,6.1998,6.1672,6.1433,6.0681,5.9301,5.8522,5.7889,5.6099,5.4152,5.1519,4.7935,4.3916,3.9971,3.646,3.2792,2.8622,2.4535,2.057,1.6275,1.1863,0.7803,0.405,8.18,8.1927,8.1927,8.2223,8.2673,8.2397,8.2259,8.2094,8.1531,8.1102,8.0906,8.061,8.0476,8.0808,8.0906,8.12,8.1585,8.1715,8.1776,8.1776,8.1681,8.1393,8.1005,8.061,8.051,8.0709,8.1102,8.12,8.1297,8.1585,8.1681,8.162,8.1715,8.1776,8.181,8.1776,8.181,8.1776,8.1776,8.1776,8.1776,8.1776,8.149,8.1102,8.1005,8.0709,8.0309,8.0209,8.0209,8.041,8.051,8.051,8.0309,8.051,8.051,8.051,8.041,8.0476,8.0709,8.0808,8.0808,8.074,8.0266,7.9828,7.9454,7.8604,7.7997,7.7052,7.6707,7.6272,7.5681,7.5422,7.4795,7.3769,7.3001,7.1971,7.0457,7.0199,6.9711,6.919,6.8927,6.8694,6.776,6.742,6.7109,6.6586,6.5839,6.5297,6.4715,6.3592,6.2788,6.2468,6.2027,6.1552,6.0923,6.0681,5.9797,5.855,5.6542,5.6076,5.4313,5.2,4.9091,4.5794,4.1833,3.7996,3.4689,3.1083,2.701,2.2999,1.9393,1.544,1.0992,0.6738,0.3113,8.2751,8.3191,8.3191,8.3525,8.3748,8.3225,8.2811,8.2645,8.1799,8.1297,8.1005,8.0808,8.0777,8.0811,8.1073,8.1303,8.1702,8.1991,8.2017,8.1888,8.1627,8.1234,8.1039,8.061,8.041,8.051,8.0808,8.1005,8.12,8.149,8.181,8.175,8.1784,8.1948,8.2086,8.2086,8.2052,8.2094,8.2086,8.2052,8.1888,8.1784,8.149,8.1102,8.0808,8.0709,8.041,8.0309,8.041,8.061,8.061,8.051,8.0309,8.051,8.051,8.041,8.051,8.0675,8.0675,8.0906,8.0906,8.0774,8.0675,8.0338,7.9794,7.9322,7.871,7.7726,7.7318,7.6623,7.5662,7.5167,7.4504,7.3509,7.2581,7.1655,7.0864,7.0239,6.9615,6.8763,6.8986,6.8549,6.7747,6.7109,6.6796,6.6406,6.5623,6.4936,6.427,6.3364,6.2555,6.1998,6.1523,6.1073,6.0438,5.9825,5.8802,5.7505,5.4865,5.335,5.174,4.9552,4.682,4.3534,4.0016,3.6404,3.3146,2.9234,2.5332,2.1629,1.8017,1.3881,0.9758,0.5973,0.2158,8.3432,8.3191,8.3426,8.3689,8.388,8.3225,8.2914,8.288,8.1868,8.1531,8.1331,8.1039,8.1282,8.1725,8.1611,8.1977,8.2835,8.2721,8.2742,8.2811,8.1605,8.1205,8.1107,8.091,8.0709,8.0709,8.1102,8.1234,8.1234,8.1627,8.1715,8.1627,8.237,8.2673,8.2707,8.3121,8.3438,8.3237,8.2852,8.2577,8.2342,8.1868,8.1468,8.1141,8.0644,8.051,8.051,8.051,8.051,8.0576,8.061,8.051,8.0309,8.061,8.0709,8.061,8.0808,8.1005,8.1102,8.1102,8.1102,8.1102,8.0774,8.0542,8.0372,7.963,7.9158,7.8483,7.7945,7.7073,7.5905,7.4906,7.4273,7.3606,7.2674,7.1807,7.1345,7.0204,6.9222,6.8795,6.8496,6.8193,6.742,6.6901,6.648,6.6085,6.5406,6.4604,6.3819,6.3019,6.2321,6.1642,6.1164,6.056,5.9825,5.9024,5.7524,5.6076,5.3478,5.0774,4.9301,4.7214,4.4431,4.1565,3.8399,3.4971,3.1437,2.799,2.4074,2.0341,1.6785,1.3137,0.9331,0.5357,0.1509,8.4421,8.4284,8.4588,8.4889,8.4949,8.4328,8.3983,8.3845,8.3059,8.2555,8.2423,8.2227,8.2368,8.2476,8.2433,8.284,8.3251,8.3444,8.3466,8.3369,8.2629,8.2026,8.1585,8.1483,8.1282,8.0845,8.138,8.1581,8.188,8.2314,8.2721,8.2652,8.3162,8.3397,8.3431,8.3782,8.3719,8.3719,8.3444,8.3237,8.3134,8.2664,8.2227,8.1626,8.0851,8.0411,8.0885,8.0646,8.0644,8.061,8.061,8.051,8.0309,8.061,8.0709,8.0709,8.0808,8.1102,8.1297,8.1297,8.12,8.1393,8.0906,8.0709,8.0442,8.0003,7.9464,7.9126,7.8553,7.7681,7.6174,7.4771,7.4103,7.3496,7.2456,7.1682,7.1285,7.0317,6.9246,6.8849,6.8242,6.774,6.706,6.6649,6.6054,6.5515,6.5077,6.427,6.3478,6.2672,6.1998,6.1404,6.0802,6.0194,5.9454,5.8088,5.6229,5.4467,5.2229,4.9427,4.7167,4.4781,4.2293,3.9318,3.6497,3.3264,2.9713,2.6266,2.2773,1.9056,1.5647,1.237,0.9049,0.503,0.1174,8.5273,8.5514,8.5788,8.6093,8.6191,8.5466,8.5087,8.5018,8.4363,8.3713,8.3689,8.3689,8.3289,8.3294,8.3457,8.3525,8.3697,8.393,8.4161,8.4265,8.3457,8.2881,8.2306,8.2169,8.193,8.1118,8.1551,8.2022,8.2428,8.3174,8.3306,8.3817,8.4156,8.419,8.4092,8.4132,8.4239,8.4373,8.4166,8.3895,8.3891,8.359,8.302,8.2412,8.1461,8.0987,8.136,8.1224,8.1018,8.0816,8.0814,8.068,8.0445,8.041,8.061,8.0709,8.0906,8.12,8.1428,8.1524,8.149,8.1393,8.1005,8.0709,8.0576,8.0342,7.987,7.933,7.8724,7.7883,7.6375,7.4635,7.3727,7.322,7.2241,7.1528,7.1123,7.0501,6.9463,6.8852,6.8147,6.7504,6.6902,6.6318,6.5577,6.4967,6.4493,6.3932,6.3134,6.2321,6.1642,6.0923,6.0316,5.9052,5.817,5.7194,5.534,5.2818,5.0652,4.7773,4.5006,4.2039,3.9632,3.7425,3.4601,3.1405,2.8146,2.4685,2.1168,1.7611,1.4339,1.1214,0.8048,0.47,0.0839,8.5514,8.5514,8.5992,8.6294,8.6191,8.5535,8.5225,8.5052,8.4466,8.4018,8.3989,8.3955,8.4205,8.4311,8.4063,8.4299,8.4682,8.4786,8.4858,8.4961,8.401,8.299,8.3057,8.2785,8.2682,8.2508,8.2261,8.2051,8.2658,8.2859,8.3748,8.4156,8.4708,8.4984,8.5156,8.5436,8.5474,8.5236,8.5026,8.4786,8.4583,8.3837,8.3295,8.2784,8.2172,8.2002,8.2206,8.2309,8.2344,8.2105,8.1732,8.1326,8.1021,8.0816,8.0743,8.0906,8.1102,8.1393,8.162,8.1715,8.1681,8.1585,8.12,8.0906,8.0808,8.051,8.0073,7.9634,7.8523,7.7279,7.6706,7.4827,7.3656,7.3077,7.2591,7.1929,7.1488,7.0503,6.9223,6.8818,6.8107,6.7363,6.6726,6.6012,6.5232,6.4585,6.4045,6.3364,6.2555,6.188,6.1164,6.0438,5.9825,5.8297,5.6785,5.5762,5.4278,5.1346,4.887,4.5827,4.2863,3.95,3.6922,3.4786,3.2624,2.9713,2.6437,2.3105,1.9887,1.6483,1.3191,1.006,0.7383,0.4535,-0.0336,8.5514,8.5618,8.6093,8.6294,8.626,8.5949,8.5777,8.5708,8.5363,8.519,8.519,8.5225,8.5198,8.527,8.5333,8.5367,8.5439,8.5476,8.5513,8.5309,8.4489,8.3738,8.3602,8.3432,8.3228,8.3022,8.2707,8.3036,8.3891,8.4373,8.4609,8.5156,8.5639,8.5777,8.5811,8.5852,8.6059,8.5753,8.5547,8.5341,8.5273,8.4385,8.3807,8.3634,8.2951,8.2714,8.3055,8.2853,8.2717,8.2445,8.197,8.1665,8.1393,8.0885,8.061,8.0906,8.12,8.149,8.1715,8.1681,8.1585,8.149,8.1102,8.0808,8.0709,8.051,8.0209,7.9837,7.896,7.7748,7.751,7.5289,7.4111,7.36,7.2735,7.197,7.1529,7.0295,6.9473,6.873,6.7508,6.6838,6.648,6.5792,6.5023,6.431,6.3622,6.2903,6.2116,6.1404,6.0681,5.9825,5.908,5.7788,5.6052,5.473,5.2945,5.0052,4.7072,4.4189,4.0881,3.7682,3.4822,3.2505,3.0207,2.7877,2.5003,2.1662,1.8435,1.5342,1.2038,0.9054,0.7219,0.4031,-0.084,8.5514,8.5514,8.6093,8.6294,8.6294,8.6294,8.6294,8.6194,8.626,8.6225,8.6194,8.626,8.6125,8.6059,8.6159,8.6159,8.5992,8.5856,8.5652,8.5446,8.5066,8.4551,8.4177,8.3974,8.3908,8.3807,8.3873,8.4411,8.4786,8.5233,8.5783,8.5987,8.626,8.6294,8.6294,8.6059,8.5992,8.589,8.5788,8.5788,8.5515,8.507,8.4728,8.4995,8.37,8.3428,8.394,8.3738,8.3396,8.3125,8.2615,8.2038,8.1732,8.102,8.068,8.0941,8.12,8.1462,8.1826,8.1765,8.184,8.1983,8.1248,8.0947,8.078,8.058,8.0209,7.9972,7.8993,7.8082,7.751,7.5752,7.4472,7.3763,7.266,7.158,7.1342,7.0599,6.973,6.8658,6.7058,6.6433,6.6226,6.5565,6.4819,6.3713,6.3019,6.2321,6.1642,6.0802,6.0071,5.9205,5.8325,5.7146,5.5604,5.3798,5.1557,4.8586,4.5528,4.2602,3.9298,3.5863,3.3196,3.0377,2.8019,2.5503,2.2785,2.021,1.7293,1.4189,1.0876,0.8386,0.6888,0.3358,-0.1344,8.5514,8.5514,8.6128,8.6294,8.6329,8.6363,8.6194,8.5992,8.6194,8.6194,8.5992,8.6194,8.6194,8.6194,8.6294,8.6329,8.6093,8.5823,8.5514,8.5411,8.4958,8.4679,8.4471,8.4505,8.4653,8.4693,8.5036,8.507,8.5101,8.5267,8.5643,8.6191,8.6294,8.6294,8.6294,8.6194,8.6294,8.6194,8.6194,8.589,8.5583,8.5136,8.5066,8.4961,8.4825,8.4656,8.4791,8.4588,8.4483,8.4205,8.3629,8.2915,8.241,8.1868,8.1356,8.1111,8.1171,8.1474,8.2183,8.2355,8.2296,8.2337,8.19,8.1596,8.1121,8.0547,8.0107,7.987,7.8958,7.8114,7.7304,7.5549,7.434,7.3453,7.2649,7.1913,7.1502,7.0664,6.9934,6.9346,6.7977,6.6877,6.6293,6.5421,6.4546,6.3434,6.2438,6.1761,6.1044,6.0316,5.9454,5.8578,5.7661,5.6497,5.4837,5.3047,5.0263,4.712,4.4003,4.1004,3.75,3.4105,3.1331,2.8671,2.599,2.3448,2.0867,1.8444,1.5835,1.3197,1.0049,0.8223,0.6892,0.2687,-0.2015,8.6744,8.6744,8.7401,8.7329,8.6949,8.6915,8.6573,8.6061,8.5992,8.589,8.5686,8.5788,8.589,8.6093,8.6194,8.6194,8.5992,8.572,8.5411,8.5202,8.4853,8.4606,8.4606,8.4606,8.4853,8.5063,8.5273,8.5309,8.5343,8.5611,8.6053,8.6225,8.6294,8.6294,8.6294,8.6294,8.6194,8.6093,8.589,8.5583,8.5377,8.5168,8.5063,8.5063,8.5063,8.5063,8.5063,8.5063,8.4958,8.4505,8.3896,8.3389,8.2813,8.2139,8.163,8.2337,8.1626,8.179,8.236,8.2607,8.2613,8.2376,8.197,8.1427,8.0986,8.0513,8.0107,7.9801,7.9327,7.8478,7.7661,7.6498,7.5504,7.4518,7.2928,7.2266,7.16,7.0631,6.9929,6.937,6.881,6.7672,6.6453,6.5389,6.4477,6.3326,6.2115,6.1222,6.0467,5.9702,5.8829,5.7944,5.7017,5.5947,5.3984,5.2129,4.9057,4.5804,4.2394,3.919,3.5677,3.2337,2.9589,2.6779,2.4258,2.1695,1.9115,1.682,1.4691,1.2204,0.9388,0.7889,0.6053,0.2013,-0.2684,8.8217,8.846,8.8536,8.8053,8.7225,8.7536,8.6953,8.5823,8.6131,8.5892,8.5514,8.5583,8.5788,8.589,8.6093,8.6194,8.589,8.5618,8.5411,8.5063,8.4747,8.4606,8.4606,8.4606,8.4606,8.4747,8.5273,8.5549,8.5754,8.5958,8.626,8.6294,8.6294,8.6294,8.6294,8.6294,8.6194,8.6093,8.5686,8.548,8.5377,8.5168,8.5168,8.5168,8.5168,8.5063,8.5063,8.5063,8.4958,8.4505,8.4167,8.3761,8.3321,8.2611,8.2275,8.2717,8.2344,8.2479,8.2852,8.2989,8.2684,8.231,8.1597,8.1224,8.0412,8.0175,8.0006,7.9699,7.9355,7.8702,7.798,7.6918,7.5798,7.4605,7.3399,7.27,7.1935,7.0866,7.0067,6.9683,6.8922,6.8102,6.6843,6.5528,6.4427,6.3238,6.2107,6.0912,5.9882,5.8955,5.8198,5.7303,5.6236,5.5127,5.3148,5.0881,4.7677,4.4408,4.0878,3.7427,3.3954,3.0945,2.8189,2.5371,2.251,2.0089,1.7647,1.5679,1.37,1.1048,0.872,0.7056,0.4537,0.0671,-0.3352,8.9598,9.0147,8.9088,8.7846,8.6639,8.795,8.7367,8.5754,8.6509,8.6131,8.5307,8.5583,8.5788,8.5992,8.6093,8.6093,8.589,8.5618,8.5377,8.5063,8.4747,8.4606,8.4606,8.4606,8.4747,8.4958,8.5273,8.5583,8.589,8.6093,8.6294,8.6294,8.6294,8.6294,8.6294,8.6294,8.6294,8.6093,8.5788,8.5686,8.5583,8.5377,8.5168,8.5273,8.5202,8.5097,8.5063,8.5063,8.4958,8.4606,8.4471,8.4167,8.3693,8.3219,8.3123,8.3159,8.3123,8.3294,8.3636,8.3704,8.36,8.3053,8.2069,8.0919,8.0276,8.0006,7.9699,7.9492,7.9146,7.8298,7.7312,7.6293,7.5592,7.4581,7.3642,7.278,7.1981,7.0973,7.0318,6.9849,6.9116,6.8142,6.7336,6.6012,6.4603,6.3403,6.1668,6.0432,5.9039,5.8071,5.7431,5.6655,5.5445,5.4004,5.2192,4.9459,4.6081,4.2499,3.8876,3.5617,3.2386,2.9589,2.6806,2.4087,2.1383,1.8952,1.6344,1.4361,1.2044,0.9888,0.7889,0.6218,0.2683,-0.1674,-0.5187,8.9873,8.9701,8.988,8.9364,8.8398,8.8536,8.7779,8.6509,8.6371,8.5891,8.5097,8.548,8.5686,8.5686,8.589,8.5992,8.589,8.5377,8.5168,8.5063,8.4853,8.4606,8.4606,8.464,8.464,8.4853,8.5273,8.548,8.5686,8.6093,8.6294,8.6294,8.6294,8.6294,8.6294,8.6294,8.6294,8.6194,8.5992,8.5788,8.5788,8.5583,8.5307,8.5202,8.5411,8.5063,8.4853,8.4958,8.4853,8.4747,8.4606,8.4403,8.4099,8.3795,8.3731,8.3906,8.3798,8.3971,8.4381,8.4242,8.3832,8.2374,8.1359,8.0479,8.0107,7.9904,7.9699,7.9355,7.8936,7.8014,7.7411,7.6442,7.5534,7.4669,7.3772,7.2874,7.1945,7.108,7.0214,6.9681,6.9006,6.8087,6.7306,6.6332,6.4941,6.3582,6.1776,5.9935,5.8557,5.7431,5.6915,5.6,5.4913,5.2901,5.1076,4.7982,4.4464,4.0817,3.7092,3.3988,3.0839,2.8189,2.5542,2.2831,2.0251,1.7647,1.5185,1.288,1.0732,0.891,0.7227,0.5376,0.1172,-0.3514,-0.6526,9.0219,8.9807,9.05,9.026,8.9364,8.9053,8.8226,8.6989,8.6474,8.5754,8.5097,8.5411,8.5514,8.5618,8.5788,8.5788,8.5686,8.5273,8.5063,8.4853,8.4747,8.4606,8.4606,8.4606,8.464,8.4713,8.5168,8.5514,8.5618,8.6026,8.6228,8.6294,8.6294,8.6294,8.6294,8.6194,8.6194,8.6194,8.6093,8.5992,8.5992,8.5788,8.5514,8.5307,8.5411,8.5168,8.4853,8.4853,8.4853,8.4747,8.4606,8.4606,8.4437,8.4268,8.4306,8.4374,8.448,8.4239,8.4615,8.4137,8.3317,8.2064,8.0782,8.0208,7.9904,7.9699,7.9355,7.9146,7.8724,7.8122,7.7555,7.6658,7.5649,7.4751,7.4154,7.3283,7.2128,7.1164,7.0317,6.9596,6.8715,6.7699,6.6663,6.5735,6.4289,6.2807,6.1076,5.9467,5.8392,5.7288,5.6394,5.5445,5.4376,5.2167,4.9907,4.6547,4.3167,3.9355,3.5718,3.2315,2.9279,2.6792,2.4271,2.1545,1.8952,1.6336,1.4038,1.1884,1.008,0.8269,0.6084,0.3391,0.0337,-0.4212,-0.6714,9.0778,9.0778,9.0812,8.9985,8.895,8.9398,8.864,8.7126,8.6817,8.6234,8.5341,8.5411,8.5514,8.5583,8.5788,8.5788,8.548,8.5273,8.4958,8.4747,8.464,8.4606,8.4606,8.4606,8.4606,8.4713,8.5168,8.5514,8.5514,8.5992,8.6294,8.6294,8.6294,8.6294,8.6329,8.6093,8.6093,8.6194,8.5992,8.6093,8.6093,8.5992,8.5788,8.5583,8.5514,8.5168,8.4958,8.4853,8.4853,8.464,8.4606,8.4606,8.4573,8.4539,8.4505,8.4539,8.4573,8.4539,8.4539,8.3253,8.2368,8.1791,8.0544,7.9766,7.9492,7.9146,7.9041,7.8936,7.837,7.7783,7.7293,7.6581,7.5635,7.5088,7.4486,7.358,7.2391,7.1339,7.0521,6.934,6.824,6.7243,6.6103,6.488,6.3435,6.1846,6.032,5.8989,5.8173,5.7192,5.6266,5.5043,5.3802,5.1174,4.8709,4.5213,4.1727,3.7934,3.4299,3.0825,2.7877,2.5384,2.2831,2.0262,1.781,1.5358,1.3045,1.0893,0.8257,0.5597,0.325,0.0686,-0.2047,-0.4576,-0.7081,9.0812,9.0812,9.0812,9.0536,8.9985,8.9226,8.8261,8.7229,8.6611,8.6029,8.572,8.5686,8.5788,8.5788,8.5788,8.5788,8.548,8.5168,8.4958,8.464,8.4606,8.4606,8.4606,8.4606,8.4606,8.4747,8.5168,8.5514,8.5514,8.5992,8.6294,8.6294,8.6294,8.6294,8.6294,8.6194,8.6194,8.6294,8.6194,8.6228,8.6294,8.6194,8.5992,8.5788,8.5618,8.5377,8.4958,8.4958,8.4819,8.464,8.464,8.4674,8.4674,8.464,8.464,8.464,8.4606,8.437,8.3756,8.2844,8.1892,8.1181,8.0267,7.9492,7.9388,7.9041,7.883,7.8617,7.8046,7.7523,7.7258,7.5958,7.5103,7.5227,7.4754,7.3623,7.241,7.169,7.0782,6.9233,6.7939,6.6476,6.5251,6.4325,6.2925,6.1963,6.0441,5.9363,5.8454,5.7277,5.6103,5.4679,5.2992,5.0407,4.7379,4.3992,4.0246,3.6363,3.2813,2.9368,2.6477,2.3964,2.1717,1.9287,1.6828,1.4368,1.1718,0.8905,0.542,0.2561,0.0342,-0.1711,-0.3911,-0.5752,-0.7428,9.0812,9.0812,9.0812,9.064,9.0295,8.9364,8.8398,8.7296,8.6336,8.589,8.589,8.589,8.589,8.589,8.589,8.589,8.5583,8.5273,8.5097,8.4747,8.4606,8.4606,8.4606,8.4606,8.4606,8.4747,8.5168,8.5514,8.5514,8.6026,8.6329,8.6294,8.6294,8.6294,8.6294,8.6294,8.6294,8.6294,8.6329,8.6294,8.6294,8.6194,8.6194,8.5992,8.5788,8.5583,8.5273,8.5063,8.4924,8.4887,8.4916,8.495,8.4776,8.4843,8.4809,8.4742,8.4573,8.4128,8.338,8.2427,8.1509,8.0666,7.9685,7.9213,7.9074,7.8724,7.8511,7.8296,7.7829,7.7499,7.6958,7.5588,7.5259,7.538,7.4531,7.3367,7.23,7.1547,7.0213,6.8725,6.7305,6.5853,6.4483,6.3545,6.2431,6.1623,6.0891,5.9697,5.8644,5.7244,5.5904,5.4276,5.2115,4.9368,4.6334,4.2832,3.8899,3.483,3.1386,2.799,2.5384,2.3015,2.0586,1.8318,1.5851,1.3211,1.0232,0.7077,0.3551,0.0508,-0.186,-0.3889,-0.5915,-0.7282,-0.8307,9.0812,9.0812,9.0812,9.0398,8.9812,8.9674,8.8777,8.7329,8.6301,8.5925,8.5959,8.6061,8.6061,8.6061,8.5925,8.589,8.5788,8.5377,8.5202,8.4958,8.4747,8.4606,8.4606,8.4606,8.4606,8.4853,8.5063,8.5411,8.5514,8.6026,8.6294,8.6294,8.6294,8.6294,8.6294,8.6294,8.6294,8.6294,8.6294,8.6294,8.6294,8.6294,8.6194,8.6093,8.5992,8.589,8.5686,8.5583,8.5377,8.5511,8.5709,8.5327,8.5255,8.5384,8.5148,8.4877,8.464,8.4094,8.3274,8.2354,8.1464,8.0655,7.9535,7.8923,7.8617,7.8403,7.8188,7.7971,7.7642,7.7311,7.6878,7.6167,7.556,7.5083,7.4328,7.3226,7.2095,7.0791,6.9426,6.8001,6.6565,6.5222,6.3806,6.2753,6.2086,6.1356,6.0538,5.969,5.844,5.7177,5.5581,5.3643,5.1271,4.8331,4.5101,4.1565,3.781,3.3881,3.0369,2.6983,2.4517,2.1889,1.9612,1.7328,1.4698,1.1884,0.8386,0.5206,0.1849,-0.1008,-0.3533,-0.5406,-0.712,-0.8199,-0.9417,9.0812,9.0812,9.0812,9.0674,9.0433,8.9916,8.8536,8.6742,8.6263,8.6469,8.6952,8.6401,8.6538,8.6917,8.6469,8.6162,8.5823,8.5618,8.5307,8.5063,8.4853,8.4606,8.4606,8.4606,8.4606,8.4747,8.4958,8.5307,8.5618,8.6026,8.6294,8.6294,8.6294,8.6294,8.6294,8.6294,8.6294,8.6294,8.6294,8.6294,8.6294,8.6294,8.6194,8.6194,8.6093,8.5992,8.5959,8.5755,8.5686,8.5581,8.5951,8.5739,8.5128,8.5424,8.5452,8.4742,8.4539,8.4196,8.3448,8.2825,8.1926,8.1049,7.9994,7.9148,7.8602,7.8221,7.8004,7.7642,7.7311,7.6976,7.6492,7.5919,7.5337,7.4739,7.3948,7.3,7.1777,7.0465,6.9062,6.7225,6.5797,6.4425,6.315,6.2487,6.1681,6.1002,6.0123,5.9296,5.8114,5.6799,5.5166,5.3094,5.0123,4.6994,4.359,4.0218,3.6648,3.29,2.9427,2.6307,2.374,2.1265,1.8808,1.6016,1.3376,0.9878,0.6205,0.3189,0.0168,-0.2351,-0.4878,-0.6596,-0.8166,-0.9256,-1.0548,9.0812,9.0812,9.0812,9.064,9.0329,8.9881,8.8708,8.7363,8.7191,8.7501,8.7743,8.7087,8.7156,8.7605,8.6846,8.6332,8.654,8.5926,8.5583,8.5377,8.4958,8.4853,8.4747,8.464,8.4606,8.4747,8.4853,8.5168,8.5514,8.589,8.6194,8.6294,8.6294,8.6294,8.6294,8.6294,8.6294,8.6294,8.6294,8.6294,8.6294,8.6294,8.6294,8.6294,8.6093,8.6196,8.637,8.62,8.6234,8.6234,8.6537,8.6189,8.5403,8.5294,8.5249,8.464,8.4606,8.4331,8.3819,8.302,8.2435,8.1684,8.056,7.9504,7.8791,7.831,7.7851,7.7389,7.7088,7.6637,7.6034,7.5454,7.5016,7.4419,7.3593,7.2796,7.1537,7.0277,6.8489,6.6568,6.5102,6.3658,6.262,6.2086,6.1411,6.0591,5.982,5.8684,5.7473,5.5867,5.4185,5.2188,4.8905,4.5617,4.2079,3.8794,3.545,3.2044,2.8726,2.5737,2.3063,2.0303,1.7665,1.4698,1.173,0.8215,0.453,0.151,-0.1344,-0.3864,-0.6408,-0.7989,-0.9578,-1.0662,-1.1974,9.0812,9.0812,9.0812,9.0398,8.9778,8.9778,8.9364,8.8743,8.8708,8.8743,8.857,8.7846,8.795,8.8329,8.7432,8.7018,8.6917,8.6473,8.5926,8.5925,8.5377,8.5063,8.4992,8.4954,8.5052,8.4916,8.4988,8.5301,8.5307,8.5686,8.6093,8.6294,8.6294,8.6294,8.6294,8.6294,8.6294,8.6294,8.6294,8.6294,8.6294,8.6294,8.6294,8.6294,8.6398,8.657,8.7156,8.7296,8.7331,8.7298,8.7193,8.6776,8.5947,8.4848,8.4708,8.4742,8.4708,8.4466,8.4049,8.3423,8.2862,8.2009,8.0816,7.9892,7.9134,7.819,7.7675,7.7167,7.6751,7.6034,7.5454,7.4866,7.4388,7.3874,7.3076,7.2367,7.1344,6.958,6.7254,6.5477,6.4148,6.2914,6.2354,6.1681,6.1002,6.0315,5.9568,5.8569,5.6636,5.4963,5.2985,5.0972,4.7314,4.3861,4.0898,3.7589,3.4465,3.1194,2.7962,2.5238,2.2515,1.9568,1.6681,1.3204,0.9555,0.6372,0.3021,0.0168,-0.2856,-0.5885,-0.7949,-0.9573,-1.0843,-1.1927,-1.291,9.0812,9.0812,9.0812,9.0364,8.9847,9.0329,9.0123,8.9502,9.0054,8.9916,8.9364,8.8743,8.8743,8.9157,8.8364,8.7846,8.7365,8.6988,8.6371,8.6131,8.572,8.5545,8.5407,8.5637,8.5667,8.5627,8.556,8.5395,8.5373,8.5652,8.589,8.5992,8.6194,8.6294,8.6294,8.6294,8.6294,8.6294,8.6294,8.6294,8.6294,8.6294,8.6294,8.6329,8.6398,8.6777,8.726,8.7501,8.7846,8.8123,8.795,8.7567,8.6797,8.5356,8.5012,8.5283,8.4877,8.4567,8.4359,8.3867,8.344,8.2786,8.1757,8.0575,7.9484,7.831,7.7422,7.6863,7.6264,7.5571,7.4984,7.4388,7.3905,7.3231,7.2519,7.1956,7.1232,6.8773,6.6186,6.4661,6.33,6.2571,6.2007,6.1411,6.0755,6.0204,5.9508,5.8287,5.5652,5.3664,5.1293,4.9033,4.5342,4.1895,3.9168,3.6463,3.3467,3.0232,2.7131,2.4432,2.1763,1.7946,1.4203,1.071,0.7212,0.4195,0.1511,-0.1176,-0.4034,-0.7066,-0.9164,-1.0465,-1.1767,-1.2878,-1.3707,9.0812,9.0812,9.0812,9.0571,9.0329,9.064,9.0571,9.0295,9.064,9.0571,9.0123,8.9502,8.9502,8.9881,8.9088,8.8743,8.8191,8.7537,8.7366,8.6989,8.644,8.6334,8.6434,8.6564,8.6413,8.6372,8.5858,8.5701,8.5471,8.5583,8.5686,8.589,8.6093,8.6294,8.6294,8.6294,8.6294,8.6294,8.6294,8.6294,8.6294,8.6294,8.6294,8.6329,8.6674,8.7122,8.7812,8.8157,8.8674,8.8536,8.8019,8.6915,8.6083,8.5085,8.4877,8.4979,8.4843,8.4606,8.4392,8.4211,8.3775,8.312,8.2145,8.0715,7.9495,7.8355,7.7268,7.675,7.5719,7.4984,7.4659,7.4057,7.3447,7.2797,7.2204,7.148,7.0122,6.8035,6.6118,6.483,6.3516,6.2776,6.2122,6.1111,6.0561,5.9927,5.9228,5.7629,5.5046,5.2257,5.0049,4.7232,4.3511,4.0531,3.7982,3.5231,3.257,2.9442,2.6337,2.286,1.9512,1.5428,1.1552,0.9054,0.6208,0.2517,-0.0168,-0.2688,-0.5038,-0.7725,-0.9516,-1.1191,-1.2324,-1.3474,-1.4318,9.0812,9.0812,9.0812,9.0812,9.0812,9.0812,9.0778,9.0778,9.0812,9.0812,9.0709,9.0088,9.0295,9.0123,8.964,8.9571,8.9226,8.8399,8.8364,8.802,8.7573,8.7331,8.7431,8.7556,8.7199,8.6779,8.6298,8.5932,8.5671,8.5684,8.5686,8.589,8.6093,8.6194,8.6294,8.6194,8.6194,8.6194,8.6194,8.6194,8.6194,8.6294,8.6294,8.6536,8.7018,8.7812,8.8536,8.9191,8.9605,8.9087,8.8052,8.6847,8.5849,8.509,8.4911,8.4911,8.4809,8.4674,8.4426,8.4102,8.3884,8.332,8.2088,8.0786,7.9529,7.8323,7.7381,7.6207,7.5315,7.4659,7.4299,7.3692,7.3077,7.2326,7.1728,7.0689,6.8972,6.7324,6.6144,6.4712,6.3827,6.2892,6.2206,6.1162,6.0338,5.9701,5.8261,5.6443,5.439,5.1379,4.8734,4.562,4.2236,3.9318,3.6797,3.4148,3.1482,2.8538,2.5397,2.1179,1.713,1.3742,1.0887,0.8729,0.5709,0.1679,-0.1512,-0.4201,-0.655,-0.839,-0.9884,-1.1401,-1.2847,-1.4014,-1.4717,9.0812,9.0812,9.0812,9.0812,9.0812,9.0812,9.0812,9.0812,9.0812,9.0812,9.0778,9.0743,9.0743,9.0812,9.0605,9.0329,8.9709,8.9157,8.8812,8.8536,8.8364,8.8192,8.8257,8.8345,8.7783,8.7261,8.6602,8.5993,8.5633,8.5545,8.5514,8.5583,8.589,8.5992,8.5992,8.6026,8.6196,8.6162,8.6061,8.6095,8.6093,8.6093,8.6294,8.6605,8.7018,8.7812,8.857,8.9329,8.995,8.9741,8.86,8.7154,8.6091,8.5196,8.4911,8.4979,8.4843,8.4567,8.4319,8.3993,8.3775,8.3343,8.2075,8.0672,7.9382,7.806,7.6921,7.5528,7.4659,7.4419,7.3936,7.32,7.2452,7.1692,7.0859,6.9293,6.7418,6.6642,6.5742,6.4604,6.3471,6.2922,6.2865,6.1678,6.0307,5.9528,5.8291,5.6319,5.3571,5.056,4.7572,4.4132,4.0918,3.8091,3.5332,3.289,3.0339,2.7416,2.4092,1.9678,1.5798,1.2567,0.9888,0.7554,0.4365,0.0672,-0.252,-0.5382,-0.7052,-0.8747,-1.0094,-1.1607,-1.3051,-1.4187,-1.506]},{"header":{"parameterUnit":"m.s-1","parameterCategory":1,"la1":31.0,"la2":29.5877,"lo1":-88.7671,"lo2":-86.6584,"dy":0.0162,"dx":0.0185,"nx":115,"ny":88,"refTime":"2023-11-21T18:00:00:Z","depth":0,"parameterNumber":3,"parameterNumberName":"V-component_of_WINDS"},"data":[0.0,0.0,0.0,0.0,0.0,0.0,0.0,0.0,0.0,0.0,0.0,0.0,0.0,0.0,0.0,0.0,0.0,0.0,0.0,0.0,0.0,0.0,0.0,0.0,0.0,0.0,0.0,0.0,0.0,0.0,0.0,0.0,0.0,0.0,0.0,0.0,0.0,0.0,0.0,0.0,0.0,0.0,0.0,0.0,0.0,0.0,0.0,0.0,0.0,0.0,0.0,0.0,0.0,0.0,0.0,0.0,0.0,0.0,0.0,0.0,0.0,0.0,0.0,0.0,0.0,0.0,0.0,0.0,0.0,0.0,0.0,0.0,0.0,0.0,0.0,0.0,0.0,0.0,0.0,0.0,0.0,0.0,0.0,0.0,0.0,0.0,0.0,0.0,0.0,0.0,0.0,0.0,0.0,0.0,0.0,0.0,0.0,0.0,0.0,0.0,0.0,0.0,0.0,0.0,0.0,0.0,0.0,0.0,0.0,0.0,0.0,0.0,0.0,0.0,0.0,0.0,0.0,0.0,0.0,0.0,0.0,0.0,0.0,0.0,0.0,0.0,0.0,0.0,0.0,0.0,0.0,0.0,0.0,0.0,0.0,0.0,0.0,0.0,0.0,0.0,0.0,0.0,0.0,0.0,0.0,0.0,0.0,0.0,0.0,0.0,0.0,0.0,0.0,0.0,0.0,0.0,0.0,0.0,0.0,0.0,0.0,0.0,0.0,0.0,0.0,0.0,0.0,0.0,0.0,0.0,0.0,0.0,0.0,0.0,0.0,0.0,0.0,0.0,0.0,0.0,0.0,0.0,0.0,0.0,0.0,0.0,0.0,0.0,0.0,0.0,0.0,0.0,0.0,0.0,0.0,0.0,0.0,0.0,0.0,0.0,0.0,0.0,0.0,0.0,0.0,0.0,0.0,0.0,0.0,0.0,0.0,0.0,0.0,0.0,0.0,0.0,0.0,0.0,0.0,0.0,0.0,0.0,0.0,0.0,0.0,0.0,0.0,0.0,0.0,0.0,0.0,0.0,0.0,0.0,0.0,0.0,0.0,0.0,0.0,0.0,0.0,0.0,0.0,0.0,0.0,0.0,0.0,0.0,0.0,0.0,0.0,0.0,0.0,0.0,0.0,0.0,0.0,0.0,0.0,0.0,0.0,0.0,0.0,0.0,0.0,0.0,0.0,0.0,0.0,0.0,0.0,0.0,0.0,0.0,0.0,0.0,0.0,0.0,0.0,0.0,0.0,0.0,0.0,0.0,0.0,0.0,0.0,0.0,0.0,0.0,0.0,0.0,0.0,0.0,0.0,0.0,0.0,0.0,0.0,0.0,0.0,0.0,0.0,0.0,0.0,0.0,0.0,0.0,0.0,0.0,0.0,0.0,0.0,0.0,0.0,0.0,0.0,0.0,0.0,0.0,0.0,0.0,0.0,0.0,0.0,0.0,0.0,0.0,0.0,0.0,0.0,0.0,0.0,0.0,0.0,0.0,0.0,0.0,0.0,0.0,0.0,0.0,0.0,0.0,0.0,0.0,0.0,0.0,0.0,0.0,0.0,0.0,0.0,0.0,0.0,0.0,0.0,0.0,0.0,0.0,0.0,0.0,0.0,0.0,0.0,0.0,0.0,0.0,0.0,0.0,0.0,0.0,0.0,0.0,0.0,0.0,0.0,0.0,0.0,0.0,0.0,0.0,0.0,0.0,0.0,0.0,0.0,0.0,0.0,0.0,0.0,0.0,0.0,0.0,0.0,0.0,0.0,0.0,0.0,0.0,0.0,0.0,0.0,0.0,0.0,0.0,0.0,0.0,0.0,0.0,0.0,0.0,0.0,0.0,0.0,0.0,0.0,0.0,0.0,0.0,0.0,0.0,0.0,0.0,0.0,0.0,0.0,0.0,0.0,0.0,0.0,0.0,0.0,0.0,0.0,0.0,0.0,0.0,0.0,0.0,0.0,0.0,0.0,0.0,0.0,0.0,0.0,0.0,0.0,0.0,0.0,0.0,0.0,0.0,0.0,0.0,0.0,0.0,0.0,0.0,0.0,0.0,0.0,0.0,0.0,0.0,0.0,0.0,0.0,0.0,0.0,0.0,0.0,0.0,0.0,0.0,0.0,0.0,0.0,0.0,0.0,0.0,0.0,0.0,0.0,0.0,0.0,0.0,0.0,0.0,0.0,0.0,0.0,0.0,0.0,0.0,0.0,0.0,0.0,0.0,0.0,0.0,0.0,0.0,0.0,0.0,0.0,0.0,0.0,0.0,0.0,0.0,0.0,0.0,0.0,0.0,0.0,0.0,0.0,0.0,0.0,0.0,0.0,0.0,0.0,0.0,0.0,0.0,0.0,0.0,0.0,0.0,0.0,0.0,0.0,0.0,0.0,0.0,0.0,0.0,0.0,0.0,0.0,0.0,0.0,0.0,0.0,0.0,0.0,0.0,0.0,0.0,0.0,0.0,0.0,0.0,0.0,0.0,0.0,0.0,0.0,0.0,0.0,0.0,0.0,0.0,0.0,0.0,0.0,0.0,0.0,0.0,0.0,0.0,0.0,0.0,0.0,0.0,0.0,0.0,0.0,0.0,0.0,0.0,0.0,0.0,0.0,0.0,0.0,0.0,0.0,0.0,0.0,0.0,0.0,0.0,0.0,0.0,0.0,0.0,0.0,0.0,0.0,0.0,0.0,0.0,0.0,0.0,0.0,0.0,0.0,0.0,0.0,0.0,0.0,0.0,0.0,0.0,0.0,0.0,0.0,0.0,0.0,0.0,0.0,0.0,0.0,0.0,0.0,0.0,0.0,0.0,0.0,0.0,0.0,0.0,0.0,0.0,0.0,0.0,0.0,0.0,0.0,0.0,0.0,0.0,0.0,0.0,0.0,0.0,0.0,0.0,0.0,0.0,0.0,0.0,0.0,0.0,0.0,0.0,0.0,0.0,0.0,0.0,0.0,0.0,0.0,0.0,0.0,0.0,0.0,0.0,0.0,0.0,0.0,0.0,0.0,0.0,0.0,0.0,0.0,0.0,0.0,0.0,0.0,0.0,0.0,0.0,0.0,0.0,0.0,0.0,0.0,0.0,0.0,0.0,0.0,0.0,0.0,0.0,0.0,0.0,0.0,0.0,0.0,0.0,0.0,0.0,0.0,0.0,0.0,0.0,0.0,0.0,0.0,0.0,0.0,0.0,0.0,0.0,0.0,0.0,0.0,0.0,0.0,0.0,0.0,0.0,0.0,0.0,0.0,0.0,0.0,0.0,0.0,0.0,0.0,0.0,0.0,0.0,0.0,0.0,0.0,0.0,0.0,0.0,0.0,0.0,0.0,0.0,0.0,0.0,0.0,0.0,0.0,0.0,0.0,0.0,0.0,0.0,0.0,0.0,0.0,0.0,0.0,0.0,0.0,0.0,0.0,0.0,0.0,0.0,0.0,0.0,0.0,0.0,0.0,0.0,0.0,0.0,0.0,0.0,0.0,0.0,0.0,0.0,0.0,0.0,0.0,0.0,0.0,0.0,0.0,0.0,0.0,0.0,0.0,0.0,0.0,0.0,0.0,0.0,0.0,0.0,0.0,0.0,0.0,0.0,0.0,0.0,0.0,0.0,0.0,0.0,0.0,0.0,0.0,0.0,0.0,0.0,0.0,0.0,0.0,0.0,0.0,0.0,0.0,0.0,0.0,0.0,0.0,0.0,0.0,0.0,0.0,0.0,0.0,0.0,0.0,0.0,0.0,0.0,0.0,0.0,0.0,0.0,0.0,0.0,0.0,0.0,0.0,0.0,0.0,0.0,0.0,0.0,0.0,0.0,0.0,0.0,0.0,0.0,0.0,0.0,0.0,0.0,0.0,0.0,0.0,0.0,0.0,0.0,0.0,0.0,0.0,0.0,0.0,0.0,0.0,0.0,0.0,0.0,0.0,0.0,0.0,0.0,0.0,0.0,0.0,0.0,0.0,0.0,0.0,0.0,0.0,0.0,0.0,0.0,0.0,0.0,0.0,0.0,0.0,0.0,0.0,0.0,0.0,0.0,0.0,0.0,0.0,0.0,0.0,0.0,0.0,0.0,0.0,0.0,0.0,0.0,0.0,0.0,0.0,0.0,0.0,0.0,0.0,0.0,0.0,0.0,0.0,0.0,0.0,0.0,0.0,0.0,0.0,0.0,0.0,0.0,0.0,0.0,0.0,0.0,0.0,0.0,0.0,0.0,0.0,0.0,0.0,0.0,0.0,0.0,0.0,0.0,0.0,0.0,0.0,0.0,0.0,0.0,0.0,0.0,0.0,0.0,-1.9836,0.0,0.0,0.0,0.0,0.0,0.0,0.0,0.0,0.0,0.0,0.0,0.0,0.0,0.0,0.0,0.0,0.0,0.0,0.0,0.0,0.0,0.0,0.0,0.0,0.0,0.0,0.0,0.0,0.0,0.0,0.0,0.0,0.0,0.0,0.0,0.0,0.0,0.0,0.0,0.0,0.0,0.0,0.0,0.0,0.0,0.0,0.0,0.0,0.0,0.0,0.0,0.0,0.0,0.0,0.0,0.0,0.0,0.0,0.0,0.0,0.0,0.0,0.0,0.0,0.0,0.0,0.0,0.0,0.0,0.0,0.0,0.0,0.0,0.0,0.0,0.0,0.0,0.0,0.0,0.0,0.0,0.0,0.0,0.0,0.0,0.0,0.0,0.0,0.0,0.0,0.0,0.0,0.0,0.0,0.0,0.0,0.0,0.0,0.0,0.0,0.0,0.0,0.0,0.0,0.0,0.0,0.0,0.0,0.0,0.0,-2.0074,-2.0009,-2.0074,-2.0074,-2.0009,0.0,0.0,0.0,0.0,0.0,0.0,0.0,0.0,0.0,0.0,0.0,0.0,0.0,0.0,0.0,0.0,0.0,0.0,0.0,0.0,0.0,0.0,0.0,0.0,0.0,0.0,0.0,0.0,0.0,0.0,0.0,0.0,0.0,0.0,0.0,0.0,0.0,0.0,0.0,0.0,0.0,0.0,0.0,0.0,0.0,0.0,0.0,0.0,0.0,0.0,0.0,0.0,0.0,0.0,0.0,0.0,0.0,0.0,0.0,0.0,0.0,0.0,0.0,0.0,0.0,0.0,0.0,0.0,0.0,0.0,0.0,0.0,0.0,0.0,0.0,0.0,0.0,0.0,0.0,0.0,0.0,0.0,0.0,0.0,0.0,0.0,0.0,0.0,0.0,0.0,0.0,0.0,0.0,0.0,0.0,0.0,0.0,0.0,0.0,0.0,0.0,0.0,0.0,0.0,0.0,0.0,0.0,0.0,0.0,0.0,0.0,0.0,-2.0292,-2.0183,-2.0249,0.0,0.0,0.0,0.0,0.0,0.0,0.0,0.0,0.0,0.0,0.0,0.0,0.0,0.0,0.0,0.0,0.0,0.0,0.0,0.0,0.0,0.0,0.0,0.0,0.0,0.0,0.0,0.0,0.0,0.0,0.0,0.0,0.0,0.0,0.0,0.0,0.0,0.0,0.0,0.0,0.0,0.0,0.0,0.0,0.0,0.0,0.0,0.0,0.0,0.0,0.0,0.0,0.0,0.0,0.0,0.0,0.0,0.0,0.0,0.0,0.0,0.0,0.0,0.0,0.0,0.0,0.0,0.0,0.0,0.0,0.0,0.0,0.0,0.0,0.0,0.0,0.0,0.0,0.0,0.0,0.0,0.0,0.0,0.0,0.0,0.0,0.0,0.0,0.0,0.0,0.0,0.0,0.0,0.0,0.0,0.0,0.0,0.0,0.0,0.0,0.0,0.0,0.0,0.0,0.0,0.0,0.0,0.0,0.0,0.0,-2.1013,-2.1428,-2.0899,0.0,-2.0593,0.0,0.0,0.0,0.0,0.0,0.0,0.0,0.0,0.0,0.0,0.0,0.0,0.0,0.0,0.0,0.0,0.0,0.0,0.0,0.0,0.0,0.0,0.0,0.0,0.0,0.0,0.0,0.0,0.0,0.0,0.0,0.0,0.0,0.0,0.0,0.0,0.0,0.0,0.0,0.0,0.0,0.0,0.0,0.0,0.0,0.0,0.0,0.0,0.0,0.0,0.0,0.0,0.0,0.0,0.0,0.0,0.0,0.0,0.0,0.0,0.0,0.0,0.0,0.0,0.0,0.0,0.0,0.0,0.0,0.0,0.0,0.0,0.0,0.0,0.0,0.0,0.0,0.0,0.0,0.0,0.0,0.0,0.0,0.0,0.0,0.0,0.0,0.0,0.0,0.0,0.0,0.0,0.0,0.0,0.0,0.0,0.0,0.0,0.0,0.0,0.0,0.0,0.0,0.0,0.0,0.0,0.0,0.0,0.0,0.0,-2.1538,-2.2018,-2.149,-2.1076,0.0,0.0,0.0,0.0,0.0,0.0,0.0,0.0,0.0,0.0,0.0,0.0,0.0,0.0,0.0,0.0,0.0,0.0,0.0,0.0,0.0,0.0,0.0,0.0,0.0,0.0,0.0,0.0,0.0,0.0,0.0,0.0,0.0,0.0,0.0,0.0,0.0,0.0,0.0,0.0,0.0,0.0,0.0,0.0,0.0,0.0,0.0,0.0,0.0,0.0,0.0,0.0,0.0,0.0,0.0,0.0,0.0,0.0,0.0,0.0,0.0,0.0,0.0,0.0,0.0,0.0,0.0,0.0,0.0,0.0,0.0,0.0,0.0,0.0,0.0,0.0,0.0,0.0,0.0,0.0,0.0,0.0,0.0,0.0,0.0,0.0,0.0,0.0,0.0,0.0,0.0,0.0,0.0,0.0,0.0,0.0,0.0,0.0,0.0,0.0,0.0,0.0,0.0,0.0,0.0,0.0,0.0,0.0,0.0,0.0,-2.2199,-2.2084,-2.2186,-2.1843,-2.1363,-2.0815,0.0,0.0,0.0,0.0,0.0,0.0,0.0,0.0,0.0,0.0,0.0,0.0,0.0,0.0,0.0,0.0,0.0,0.0,0.0,0.0,0.0,0.0,0.0,0.0,0.0,0.0,0.0,0.0,0.0,0.0,0.0,0.0,0.0,0.0,0.0,0.0,0.0,0.0,0.0,0.0,0.0,0.0,0.0,0.0,0.0,0.0,0.0,0.0,0.0,0.0,0.0,0.0,0.0,0.0,0.0,0.0,0.0,0.0,0.0,0.0,0.0,0.0,0.0,0.0,0.0,0.0,0.0,0.0,0.0,0.0,0.0,0.0,0.0,0.0,0.0,0.0,0.0,0.0,0.0,0.0,0.0,0.0,0.0,0.0,0.0,0.0,0.0,0.0,0.0,0.0,0.0,0.0,0.0,0.0,0.0,0.0,0.0,0.0,0.0,0.0,0.0,0.0,0.0,0.0,0.0,0.0,0.0,0.0,0.0,-2.3545,-2.2644,-2.2085,-2.1751,-2.1294,0.0,0.0,0.0,0.0,0.0,0.0,0.0,0.0,0.0,0.0,0.0,0.0,0.0,0.0,0.0,0.0,0.0,0.0,0.0,0.0,0.0,0.0,0.0,0.0,0.0,0.0,0.0,0.0,0.0,0.0,0.0,0.0,0.0,0.0,0.0,0.0,0.0,0.0,0.0,0.0,0.0,0.0,0.0,0.0,0.0,0.0,0.0,0.0,0.0,0.0,0.0,0.0,0.0,0.0,0.0,0.0,0.0,0.0,0.0,0.0,0.0,0.0,0.0,0.0,0.0,0.0,0.0,0.0,0.0,0.0,0.0,0.0,0.0,0.0,0.0,0.0,0.0,0.0,0.0,0.0,0.0,0.0,0.0,0.0,0.0,0.0,0.0,0.0,0.0,0.0,0.0,0.0,0.0,0.0,0.0,0.0,0.0,0.0,0.0,0.0,0.0,0.0,0.0,0.0,0.0,0.0,0.0,0.0,0.0,-2.3558,-2.3558,-2.3241,-2.2834,-2.2302,-2.1751,0.0,0.0,0.0,0.0,0.0,0.0,0.0,0.0,0.0,0.0,0.0,0.0,0.0,0.0,0.0,0.0,0.0,0.0,0.0,0.0,0.0,0.0,0.0,0.0,0.0,0.0,0.0,0.0,0.0,0.0,0.0,0.0,0.0,0.0,0.0,0.0,0.0,0.0,0.0,0.0,0.0,0.0,0.0,0.0,0.0,0.0,0.0,0.0,0.0,0.0,0.0,0.0,0.0,0.0,0.0,0.0,0.0,0.0,0.0,0.0,0.0,0.0,0.0,0.0,0.0,0.0,0.0,0.0,0.0,0.0,0.0,0.0,0.0,0.0,0.0,0.0,0.0,0.0,0.0,0.0,0.0,0.0,0.0,0.0,0.0,0.0,0.0,0.0,0.0,0.0,0.0,0.0,0.0,0.0,0.0,0.0,0.0,0.0,0.0,0.0,0.0,0.0,0.0,0.0,0.0,0.0,0.0,0.0,0.0,-2.3482,0.0,-2.3809,0.0,-2.2637,-2.1953,0.0,0.0,0.0,0.0,0.0,0.0,0.0,0.0,0.0,0.0,0.0,0.0,0.0,0.0,0.0,0.0,0.0,0.0,0.0,0.0,0.0,0.0,0.0,0.0,0.0,0.0,0.0,0.0,0.0,0.0,0.0,0.0,0.0,0.0,0.0,0.0,0.0,0.0,0.0,0.0,0.0,0.0,0.0,0.0,0.0,0.0,0.0,0.0,0.0,0.0,0.0,0.0,0.0,0.0,0.0,0.0,0.0,0.0,0.0,0.0,0.0,0.0,0.0,0.0,0.0,0.0,0.0,0.0,0.0,0.0,0.0,0.0,0.0,0.0,0.0,0.0,0.0,0.0,0.0,0.0,0.0,0.0,0.0,0.0,0.0,0.0,0.0,0.0,0.0,0.0,0.0,0.0,0.0,0.0,0.0,0.0,0.0,0.0,0.0,0.0,0.0,0.0,0.0,0.0,0.0,0.0,0.0,0.0,-2.3504,-2.4421,-2.4701,-2.4282,-2.3088,-2.263,-2.1691,0.0,0.0,0.0,0.0,0.0,0.0,0.0,0.0,0.0,0.0,0.0,0.0,0.0,0.0,0.0,0.0,0.0,0.0,0.0,0.0,0.0,0.0,0.0,0.0,0.0,0.0,0.0,0.0,0.0,0.0,0.0,0.0,0.0,0.0,0.0,0.0,0.0,0.0,0.0,0.0,0.0,0.0,0.0,0.0,0.0,0.0,0.0,0.0,0.0,0.0,0.0,0.0,0.0,0.0,0.0,0.0,0.0,0.0,0.0,0.0,0.0,0.0,0.0,0.0,0.0,0.0,0.0,0.0,0.0,0.0,0.0,0.0,0.0,0.0,0.0,0.0,0.0,0.0,0.0,0.0,0.0,0.0,0.0,0.0,0.0,0.0,0.0,0.0,0.0,0.0,0.0,0.0,0.0,0.0,0.0,0.0,0.0,0.0,0.0,0.0,0.0,0.0,0.0,0.0,0.0,0.0,0.0,0.0,0.0,-2.4837,-2.5341,-2.548,-2.515,-2.3974,-2.2914,0.0,0.0,0.0,0.0,0.0,0.0,0.0,0.0,0.0,0.0,0.0,0.0,0.0,0.0,0.0,0.0,0.0,0.0,0.0,0.0,0.0,0.0,0.0,0.0,0.0,0.0,0.0,0.0,0.0,0.0,0.0,0.0,0.0,0.0,0.0,0.0,0.0,0.0,0.0,0.0,0.0,0.0,0.0,0.0,0.0,0.0,0.0,0.0,0.0,0.0,0.0,0.0,0.0,0.0,0.0,0.0,0.0,0.0,0.0,0.0,0.0,0.0,0.0,0.0,0.0,0.0,0.0,0.0,0.0,0.0,0.0,0.0,0.0,0.0,0.0,0.0,0.0,0.0,0.0,0.0,0.0,0.0,0.0,0.0,0.0,0.0,0.0,0.0,0.0,0.0,0.0,0.0,0.0,0.0,0.0,0.0,0.0,0.0,0.0,0.0,0.0,0.0,0.0,0.0,0.0,0.0,0.0,0.0,0.0,-2.6378,-2.6535,-2.6538,-2.6074,-2.5092,-2.3875,-2.2521,0.0,0.0,0.0,0.0,0.0,0.0,0.0,0.0,0.0,0.0,0.0,0.0,0.0,0.0,0.0,0.0,0.0,0.0,0.0,0.0,0.0,0.0,0.0,0.0,0.0,0.0,0.0,0.0,0.0,0.0,0.0,0.0,0.0,0.0,0.0,0.0,0.0,0.0,0.0,0.0,0.0,0.0,0.0,0.0,0.0,0.0,0.0,0.0,0.0,0.0,0.0,0.0,0.0,0.0,0.0,0.0,0.0,0.0,0.0,0.0,0.0,0.0,0.0,0.0,0.0,0.0,0.0,0.0,0.0,0.0,0.0,0.0,0.0,0.0,0.0,0.0,0.0,0.0,0.0,0.0,0.0,0.0,0.0,0.0,0.0,0.0,0.0,0.0,0.0,0.0,0.0,0.0,0.0,0.0,0.0,0.0,0.0,0.0,0.0,0.0,0.0,0.0,0.0,0.0,0.0,0.0,0.0,0.0,-2.8746,-2.8426,-2.7586,-2.6299,-2.6103,-2.4705,0.0,0.0,0.0,0.0,0.0,0.0,0.0,0.0,0.0,0.0,0.0,0.0,0.0,0.0,0.0,0.0,0.0,0.0,0.0,0.0,0.0,0.0,0.0,0.0,0.0,0.0,0.0,0.0,0.0,0.0,0.0,0.0,0.0,0.0,0.0,0.0,0.0,0.0,0.0,0.0,0.0,0.0,0.0,0.0,0.0,0.0,0.0,0.0,0.0,0.0,0.0,0.0,0.0,0.0,0.0,0.0,0.0,0.0,0.0,0.0,0.0,0.0,0.0,0.0,0.0,0.0,0.0,0.0,0.0,0.0,0.0,0.0,0.0,0.0,0.0,0.0,0.0,0.0,0.0,0.0,0.0,0.0,0.0,0.0,0.0,0.0,0.0,0.0,0.0,0.0,0.0,0.0,0.0,0.0,0.0,0.0,0.0,0.0,0.0,0.0,0.0,0.0,0.0,0.0,0.0,0.0,0.0,0.0,0.0,-2.9493,-3.0743,-3.0781,-2.9353,-2.813,-2.6541,0.0,0.0,0.0,0.0,0.0,0.0,0.0,0.0,0.0,0.0,0.0,0.0,0.0,0.0,0.0,0.0,0.0,0.0,0.0,0.0,0.0,0.0,0.0,0.0,0.0,0.0,0.0,0.0,0.0,0.0,0.0,0.0,0.0,0.0,0.0,0.0,0.0,0.0,0.0,0.0,0.0,0.0,0.0,0.0,0.0,0.0,0.0,0.0,0.0,0.0,0.0,0.0,0.0,0.0,0.0,0.0,0.0,0.0,0.0,0.0,0.0,0.0,0.0,0.0,0.0,0.0,0.0,0.0,0.0,0.0,0.0,0.0,0.0,0.0,0.0,0.0,0.0,0.0,0.0,0.0,0.0,0.0,0.0,0.0,0.0,0.0,0.0,0.0,0.0,0.0,0.0,0.0,0.0,0.0,0.0,0.0,0.0,0.0,0.0,0.0,0.0,0.0,0.0,0.0,0.0,0.0,0.0,0.0,-3.0097,-3.07,-3.2748,-3.3243,-3.1891,-3.027,-2.812,0.0,0.0,0.0,0.0,0.0,0.0,0.0,0.0,0.0,0.0,0.0,0.0,0.0,0.0,0.0,0.0,0.0,0.0,0.0,0.0,0.0,0.0,0.0,0.0,0.0,0.0,0.0,0.0,0.0,0.0,0.0,0.0,0.0,0.0,0.0,0.0,0.0,0.0,0.0,0.0,0.0,0.0,0.0,0.0,0.0,0.0,0.0,0.0,0.0,0.0,0.0,0.0,0.0,0.0,0.0,0.0,0.0,0.0,0.0,0.0,0.0,0.0,0.0,0.0,0.0,0.0,0.0,0.0,0.0,0.0,0.0,0.0,0.0,0.0,0.0,0.0,0.0,0.0,0.0,0.0,0.0,0.0,0.0,0.0,0.0,0.0,0.0,0.0,0.0,0.0,0.0,0.0,0.0,0.0,0.0,0.0,0.0,0.0,0.0,0.0,0.0,0.0,0.0,0.0,0.0,0.0,0.0,0.0,-3.1516,-3.2053,-3.4419,-3.5051,-3.398,-3.2212,-2.9461,0.0,0.0,0.0,0.0,0.0,0.0,0.0,0.0,0.0,0.0,0.0,0.0,0.0,0.0,0.0,0.0,0.0,0.0,0.0,0.0,0.0,0.0,0.0,0.0,0.0,0.0,0.0,0.0,0.0,0.0,0.0,0.0,0.0,0.0,0.0,0.0,0.0,0.0,0.0,0.0,0.0,0.0,0.0,0.0,0.0,0.0,0.0,0.0,0.0,0.0,0.0,0.0,0.0,0.0,0.0,0.0,0.0,0.0,0.0,0.0,0.0,0.0,0.0,0.0,0.0,0.0,0.0,0.0,0.0,0.0,0.0,0.0,0.0,0.0,0.0,0.0,0.0,0.0,0.0,0.0,0.0,0.0,0.0,0.0,0.0,0.0,0.0,0.0,0.0,0.0,0.0,0.0,0.0,0.0,0.0,0.0,0.0,0.0,0.0,0.0,0.0,0.0,0.0,0.0,0.0,0.0,0.0,0.0,-3.2126,-3.3203,-3.5199,-3.594,-3.5449,-3.2724,-3.0235,0.0,0.0,0.0,0.0,0.0,0.0,0.0,0.0,0.0,0.0,0.0,0.0,0.0,0.0,0.0,0.0,0.0,0.0,0.0,0.0,0.0,0.0,0.0,0.0,0.0,0.0,0.0,0.0,0.0,0.0,0.0,0.0,0.0,0.0,0.0,0.0,0.0,0.0,0.0,0.0,0.0,0.0,0.0,0.0,0.0,0.0,0.0,0.0,-2.4569,0.0,0.0,0.0,0.0,0.0,0.0,0.0,0.0,0.0,0.0,0.0,0.0,0.0,0.0,0.0,0.0,0.0,0.0,0.0,0.0,0.0,0.0,0.0,0.0,0.0,0.0,0.0,0.0,0.0,0.0,0.0,0.0,0.0,0.0,0.0,0.0,0.0,0.0,0.0,0.0,0.0,0.0,0.0,0.0,0.0,0.0,0.0,0.0,0.0,0.0,0.0,0.0,0.0,0.0,0.0,0.0,0.0,0.0,0.0,-3.295,-3.4415,-3.5883,-3.6621,-3.6206,-3.4064,-3.1614,0.0,0.0,0.0,0.0,0.0,0.0,0.0,0.0,0.0,0.0,0.0,0.0,0.0,0.0,0.0,0.0,0.0,0.0,0.0,0.0,0.0,0.0,0.0,0.0,0.0,0.0,0.0,0.0,0.0,0.0,0.0,0.0,0.0,0.0,0.0,0.0,0.0,0.0,0.0,0.0,0.0,0.0,0.0,0.0,0.0,0.0,0.0,0.0,0.0,0.0,0.0,0.0,0.0,0.0,0.0,0.0,0.0,0.0,0.0,0.0,0.0,0.0,0.0,0.0,0.0,0.0,0.0,0.0,0.0,0.0,0.0,0.0,0.0,0.0,0.0,0.0,0.0,0.0,0.0,0.0,0.0,0.0,0.0,0.0,0.0,0.0,0.0,0.0,0.0,0.0,0.0,0.0,0.0,0.0,0.0,0.0,0.0,0.0,0.0,0.0,0.0,0.0,0.0,0.0,0.0,0.0,0.0,-3.2275,-3.39,-3.5382,-3.6614,-3.7171,-3.6867,-3.5456,-3.3266,-3.0345,0.0,0.0,0.0,0.0,0.0,0.0,0.0,0.0,0.0,0.0,0.0,0.0,0.0,0.0,0.0,0.0,0.0,0.0,0.0,0.0,0.0,0.0,0.0,0.0,0.0,0.0,0.0,0.0,0.0,0.0,0.0,0.0,0.0,0.0,0.0,0.0,0.0,0.0,-2.5826,-2.7008,0.0,0.0,0.0,0.0,0.0,0.0,0.0,0.0,-2.527,0.0,0.0,0.0,0.0,0.0,0.0,0.0,0.0,0.0,0.0,0.0,0.0,0.0,0.0,0.0,0.0,0.0,0.0,0.0,0.0,0.0,0.0,0.0,0.0,0.0,0.0,0.0,0.0,0.0,0.0,0.0,0.0,0.0,0.0,0.0,0.0,0.0,0.0,0.0,0.0,0.0,0.0,0.0,0.0,0.0,0.0,0.0,0.0,0.0,0.0,0.0,0.0,0.0,0.0,0.0,0.0,-3.1438,-3.2603,-3.4205,-3.6125,-3.7319,-3.7691,-3.7343,-3.6206,-3.4475,-3.1719,0.0,0.0,0.0,0.0,0.0,0.0,0.0,0.0,0.0,0.0,0.0,0.0,0.0,0.0,0.0,0.0,0.0,0.0,0.0,0.0,0.0,0.0,0.0,0.0,0.0,0.0,0.0,0.0,0.0,0.0,0.0,0.0,0.0,0.0,0.0,0.0,0.0,0.0,0.0,-2.8964,-2.944,0.0,0.0,0.0,0.0,0.0,0.0,0.0,0.0,-2.5724,0.0,0.0,0.0,0.0,0.0,0.0,0.0,0.0,0.0,0.0,0.0,0.0,0.0,0.0,0.0,0.0,0.0,0.0,0.0,0.0,0.0,0.0,0.0,0.0,0.0,0.0,0.0,0.0,0.0,0.0,0.0,0.0,0.0,0.0,0.0,0.0,0.0,0.0,0.0,0.0,0.0,0.0,0.0,0.0,0.0,0.0,0.0,0.0,0.0,0.0,0.0,0.0,0.0,0.0,0.0,-3.181,-3.3226,-3.5005,-3.7171,-3.7926,-3.8256,-3.7819,-3.6311,-3.4358,0.0,0.0,0.0,0.0,0.0,0.0,0.0,0.0,0.0,0.0,0.0,0.0,0.0,0.0,0.0,0.0,0.0,0.0,0.0,0.0,0.0,0.0,0.0,0.0,0.0,0.0,0.0,0.0,0.0,0.0,0.0,0.0,0.0,0.0,0.0,0.0,0.0,0.0,0.0,0.0,-2.9702,-2.9744,-2.9589,0.0,0.0,0.0,0.0,0.0,0.0,-2.6819,-2.6745,0.0,0.0,0.0,0.0,0.0,0.0,0.0,0.0,0.0,0.0,0.0,0.0,0.0,0.0,0.0,0.0,0.0,0.0,0.0,0.0,0.0,0.0,0.0,0.0,0.0,0.0,0.0,0.0,0.0,0.0,0.0,0.0,0.0,0.0,0.0,0.0,0.0,0.0,0.0,0.0,0.0,0.0,0.0,0.0,0.0,0.0,0.0,0.0,0.0,0.0,0.0,0.0,0.0,0.0,0.0,-3.2119,-3.3781,-3.5827,-3.8031,-3.8486,-3.8645,-3.8398,-3.6311,-3.419,0.0,0.0,0.0,0.0,0.0,0.0,0.0,0.0,0.0,0.0,0.0,0.0,0.0,0.0,0.0,0.0,0.0,0.0,0.0,0.0,0.0,0.0,0.0,0.0,0.0,0.0,0.0,0.0,0.0,0.0,0.0,0.0,0.0,0.0,0.0,0.0,0.0,0.0,0.0,0.0,0.0,-3.0275,-3.0284,-3.0124,0.0,0.0,0.0,0.0,-2.7491,-2.7872,0.0,0.0,0.0,0.0,0.0,0.0,0.0,0.0,0.0,0.0,0.0,0.0,0.0,0.0,0.0,0.0,0.0,0.0,0.0,0.0,0.0,0.0,0.0,0.0,0.0,0.0,0.0,0.0,0.0,0.0,0.0,0.0,0.0,0.0,0.0,0.0,0.0,0.0,0.0,0.0,0.0,0.0,0.0,0.0,0.0,0.0,0.0,0.0,0.0,0.0,0.0,0.0,0.0,0.0,0.0,0.0,-3.2141,-3.3855,-3.6051,-3.8492,-3.8678,-3.8957,-3.933,-3.6876,-3.4572,0.0,0.0,0.0,0.0,0.0,0.0,0.0,0.0,0.0,0.0,0.0,0.0,0.0,0.0,0.0,0.0,0.0,0.0,0.0,0.0,0.0,0.0,0.0,0.0,0.0,0.0,0.0,0.0,0.0,0.0,0.0,0.0,0.0,0.0,0.0,0.0,0.0,0.0,0.0,0.0,0.0,-3.2106,-3.1956,-3.1739,-3.1431,0.0,0.0,-2.9437,-2.948,-2.9515,0.0,0.0,0.0,0.0,0.0,0.0,0.0,0.0,0.0,0.0,0.0,0.0,0.0,0.0,0.0,0.0,0.0,0.0,0.0,0.0,0.0,0.0,0.0,0.0,0.0,0.0,0.0,0.0,0.0,0.0,0.0,0.0,0.0,0.0,0.0,0.0,0.0,0.0,0.0,0.0,0.0,0.0,0.0,0.0,0.0,0.0,0.0,0.0,0.0,0.0,0.0,0.0,0.0,0.0,0.0,-3.0536,-3.2642,-3.477,-3.6811,-3.8636,-3.9268,-3.9461,-3.926,-3.6541,-3.4318,0.0,0.0,0.0,0.0,0.0,0.0,0.0,0.0,0.0,0.0,0.0,0.0,0.0,0.0,0.0,0.0,0.0,0.0,0.0,0.0,0.0,0.0,0.0,0.0,0.0,0.0,0.0,0.0,0.0,0.0,0.0,0.0,0.0,0.0,0.0,0.0,0.0,0.0,0.0,0.0,0.0,0.0,-3.2202,-3.237,0.0,0.0,0.0,-3.102,-3.0718,0.0,0.0,0.0,0.0,0.0,0.0,0.0,0.0,0.0,0.0,0.0,0.0,0.0,0.0,0.0,0.0,0.0,0.0,0.0,0.0,0.0,0.0,0.0,0.0,0.0,0.0,0.0,0.0,0.0,0.0,0.0,0.0,0.0,0.0,0.0,0.0,0.0,0.0,0.0,0.0,0.0,0.0,0.0,0.0,0.0,0.0,0.0,0.0,0.0,0.0,0.0,0.0,0.0,0.0,0.0,0.0,0.0,-3.3133,-3.5537,-3.7529,-3.8978,-3.9667,-3.9836,-3.9269,-3.6742,0.0,0.0,0.0,0.0,0.0,0.0,0.0,0.0,0.0,0.0,0.0,0.0,0.0,0.0,0.0,0.0,0.0,0.0,0.0,0.0,0.0,0.0,0.0,0.0,0.0,0.0,0.0,-2.1838,0.0,0.0,0.0,0.0,0.0,0.0,0.0,0.0,0.0,0.0,0.0,0.0,0.0,0.0,-3.2387,-3.2596,-3.3034,-3.306,0.0,0.0,-3.2443,-3.1649,-3.14,-3.1127,0.0,0.0,0.0,0.0,0.0,0.0,0.0,0.0,0.0,0.0,0.0,0.0,0.0,0.0,0.0,0.0,0.0,0.0,0.0,0.0,0.0,0.0,0.0,0.0,0.0,0.0,0.0,0.0,0.0,0.0,0.0,0.0,0.0,0.0,0.0,0.0,0.0,0.0,0.0,0.0,0.0,0.0,0.0,0.0,0.0,0.0,0.0,0.0,0.0,0.0,0.0,0.0,0.0,0.0,0.0,-3.3065,-3.5558,-3.7674,-3.9433,-3.9532,-3.982,-4.0167,-3.8214,-3.6234,0.0,0.0,0.0,0.0,0.0,0.0,0.0,0.0,0.0,0.0,0.0,0.0,0.0,0.0,0.0,0.0,0.0,0.0,0.0,0.0,0.0,0.0,0.0,0.0,0.0,0.0,0.0,0.0,0.0,0.0,0.0,0.0,0.0,0.0,0.0,0.0,0.0,0.0,0.0,0.0,0.0,-3.305,-3.3668,-3.3787,-3.3874,0.0,0.0,-3.3073,-3.2384,-3.3044,-3.3114,-3.1935,0.0,0.0,0.0,0.0,0.0,0.0,0.0,0.0,0.0,0.0,0.0,0.0,0.0,0.0,0.0,0.0,0.0,0.0,0.0,0.0,0.0,0.0,0.0,0.0,0.0,0.0,0.0,0.0,0.0,0.0,0.0,0.0,0.0,0.0,0.0,0.0,0.0,0.0,0.0,0.0,0.0,0.0,0.0,0.0,0.0,0.0,0.0,0.0,0.0,0.0,0.0,0.0,0.0,-3.1443,-3.3226,-3.5748,-3.7583,-3.8783,-3.9374,-3.9838,-3.9991,-3.8283,-3.635,0.0,0.0,0.0,0.0,0.0,0.0,0.0,0.0,0.0,0.0,0.0,0.0,0.0,0.0,0.0,0.0,0.0,0.0,0.0,0.0,0.0,0.0,0.0,0.0,0.0,0.0,0.0,0.0,-2.3083,-2.3468,-2.4498,0.0,0.0,0.0,0.0,0.0,0.0,0.0,0.0,0.0,0.0,-3.3922,-3.3792,-3.4225,0.0,0.0,-3.4487,-3.4212,-3.3359,-3.3025,-3.309,-3.3366,-3.2351,0.0,0.0,0.0,0.0,0.0,0.0,0.0,0.0,0.0,0.0,0.0,0.0,0.0,0.0,0.0,0.0,0.0,0.0,0.0,0.0,0.0,0.0,0.0,0.0,0.0,0.0,0.0,0.0,0.0,0.0,0.0,0.0,0.0,0.0,0.0,0.0,0.0,0.0,0.0,0.0,0.0,0.0,0.0,0.0,0.0,0.0,0.0,0.0,0.0,0.0,0.0,0.0,-3.173,-3.335,-3.584,-3.7582,-3.8588,-3.9329,-3.9785,-3.977,-3.8726,-3.7018,0.0,0.0,0.0,0.0,0.0,0.0,0.0,0.0,0.0,0.0,0.0,0.0,0.0,0.0,0.0,0.0,0.0,0.0,0.0,0.0,0.0,0.0,0.0,0.0,0.0,0.0,0.0,0.0,-2.3555,-2.4006,-2.5004,0.0,0.0,0.0,0.0,0.0,0.0,0.0,0.0,0.0,0.0,-3.4384,-3.4202,-3.4784,-3.517,-3.5371,-3.5253,-3.4996,-3.4437,-3.3636,-3.3326,-3.4245,0.0,0.0,0.0,0.0,0.0,0.0,0.0,0.0,0.0,0.0,0.0,0.0,0.0,0.0,0.0,0.0,0.0,0.0,0.0,0.0,0.0,0.0,0.0,0.0,0.0,0.0,0.0,0.0,0.0,0.0,-2.2366,0.0,0.0,0.0,0.0,0.0,0.0,0.0,0.0,0.0,0.0,0.0,0.0,0.0,0.0,0.0,0.0,0.0,0.0,0.0,0.0,0.0,0.0,-3.1767,-3.3601,-3.5875,-3.7722,-3.903,-3.948,-3.981,-3.985,-3.9889,-3.8865,-3.6729,0.0,0.0,0.0,0.0,0.0,0.0,0.0,0.0,0.0,0.0,0.0,0.0,0.0,0.0,0.0,0.0,0.0,0.0,0.0,0.0,0.0,0.0,0.0,0.0,0.0,0.0,-2.4634,-2.4912,-2.5072,0.0,0.0,0.0,0.0,0.0,0.0,0.0,0.0,0.0,0.0,-3.3599,-3.4453,-3.5179,-3.5222,-3.5659,-3.6608,-3.6008,-3.5548,-3.5893,-3.5135,-3.4515,0.0,0.0,0.0,0.0,0.0,0.0,0.0,0.0,0.0,0.0,0.0,0.0,0.0,0.0,0.0,0.0,0.0,0.0,0.0,0.0,0.0,0.0,0.0,0.0,0.0,0.0,0.0,-2.3673,-2.3862,0.0,0.0,0.0,0.0,0.0,0.0,0.0,0.0,0.0,0.0,0.0,-2.9733,-3.0319,0.0,0.0,0.0,0.0,0.0,0.0,0.0,0.0,0.0,0.0,0.0,0.0,-3.1746,-3.3197,-3.5251,-3.7193,-3.8734,-3.922,-3.9641,-4.0229,-3.9961,-3.8826,-3.645,0.0,0.0,0.0,0.0,0.0,0.0,0.0,0.0,0.0,0.0,0.0,0.0,0.0,0.0,0.0,0.0,0.0,0.0,0.0,0.0,0.0,0.0,0.0,0.0,0.0,-2.516,0.0,0.0,0.0,0.0,0.0,0.0,0.0,0.0,0.0,0.0,0.0,-3.2018,-3.2352,-3.4025,-3.5244,-3.5244,-3.5821,-3.6355,0.0,0.0,0.0,0.0,0.0,0.0,0.0,0.0,0.0,0.0,0.0,0.0,0.0,0.0,-3.6557,-3.5562,-3.577,-3.6178,-3.6626,0.0,0.0,0.0,0.0,0.0,0.0,0.0,0.0,0.0,0.0,0.0,0.0,0.0,0.0,0.0,0.0,-2.581,0.0,0.0,0.0,0.0,0.0,0.0,0.0,0.0,-2.9217,-3.0853,-3.2099,-3.2703,-3.3223,0.0,-3.3037,-3.1781,0.0,0.0,0.0,0.0,0.0,0.0,0.0,0.0,-3.1892,-3.3305,-3.521,-3.7012,-3.8516,-3.9141,-3.9726,-4.0273,-4.0039,-3.8975,-3.7231,-3.4693,-3.2798,0.0,0.0,0.0,0.0,0.0,0.0,0.0,0.0,0.0,0.0,0.0,0.0,0.0,0.0,0.0,0.0,0.0,0.0,0.0,0.0,0.0,0.0,0.0,-2.5738,0.0,0.0,0.0,0.0,0.0,0.0,0.0,0.0,0.0,-3.0744,-3.1623,-3.2351,-3.2757,-3.4459,-3.5631,-3.5608,0.0,0.0,0.0,0.0,0.0,0.0,0.0,-3.6872,-3.7965,-3.7146,-3.6558,-3.7382,-3.7678,-3.7798,-3.8161,0.0,0.0,-3.7924,-3.8266,-3.8906,-3.9435,-3.9692,-4.0322,-4.182,-4.3319,-4.4648,0.0,0.0,0.0,0.0,0.0,0.0,0.0,0.0,-2.7104,-2.704,0.0,-2.7389,0.0,0.0,0.0,0.0,0.0,-2.7148,0.0,0.0,-3.1876,-3.3437,-3.388,-3.4534,-3.5107,-3.5459,-3.4672,-3.4217,-3.401,-3.2163,0.0,0.0,0.0,0.0,0.0,0.0,-3.2383,-3.3697,-3.5666,-3.7305,-3.8594,-3.9453,-3.9902,-3.9961,-3.9922,-3.9661,-3.9011,-3.6813,-3.51,-3.4085,-3.1511,0.0,0.0,0.0,0.0,0.0,0.0,0.0,0.0,0.0,0.0,0.0,0.0,0.0,0.0,0.0,0.0,0.0,0.0,0.0,0.0,-2.5613,0.0,0.0,0.0,0.0,0.0,0.0,0.0,0.0,0.0,0.0,-3.1991,-3.2211,-3.2708,-3.4048,0.0,0.0,0.0,0.0,-3.7292,-3.896,-3.8366,-3.8191,-3.9373,-3.8436,-3.7675,-3.8442,0.0,0.0,-3.7753,-3.8517,-3.9044,-3.8524,-3.9794,-4.055,-3.9981,-4.0913,-4.1829,-4.2397,-4.3364,-4.432,-4.4676,-4.6032,-4.7119,-3.3518,0.0,0.0,0.0,0.0,-2.9758,-3.0274,-3.0824,-3.0892,-3.1146,-3.1337,-2.9937,0.0,0.0,0.0,0.0,0.0,0.0,-3.0313,-3.1357,-3.3334,-3.4754,-3.5756,-3.6483,-3.7095,-3.7463,-3.7197,-3.6876,-3.6494,-3.5977,-3.4247,-3.1482,0.0,0.0,0.0,0.0,-3.2788,-3.4524,-3.6008,-3.7598,-3.9492,-3.9766,-4.0195,-4.0781,-4.0794,-4.0381,-3.968,-3.8339,-3.6813,-3.514,-3.3437,0.0,0.0,0.0,0.0,0.0,0.0,0.0,0.0,0.0,0.0,0.0,0.0,0.0,0.0,0.0,0.0,0.0,0.0,0.0,-2.735,-2.6891,-2.6972,0.0,0.0,0.0,0.0,0.0,0.0,0.0,0.0,0.0,-3.3537,-3.4039,-3.4489,0.0,0.0,-3.7252,-3.7286,-3.7952,-3.8408,-3.8205,-3.9058,0.0,-3.934,-3.9446,-3.9686,-4.0339,-4.0241,-4.0122,-4.0593,-4.1057,-4.141,-4.1729,-4.3227,-4.4281,-4.3995,-4.3669,-4.3859,-4.4493,-4.6013,-4.747,-4.8298,-5.014,-5.1778,-3.7452,-3.4814,-3.3337,-3.2632,-3.2371,-3.2693,-3.3316,-3.4004,-3.3556,-3.3616,-3.4125,-3.2574,-3.1741,-3.1438,-3.0238,0.0,0.0,0.0,-3.2137,-3.353,-3.4556,-3.587,-3.735,-3.7828,-3.8263,-3.8682,-3.8657,-3.8425,-3.8161,-3.7757,-3.6601,-3.4685,0.0,0.0,-3.2127,-3.2916,-3.4166,-3.5481,-3.6563,-3.7969,-3.957,-3.9961,-4.0469,-4.1133,-4.1207,-4.0873,-4.0156,-3.919,-3.8102,-3.6463,-3.4903,-3.3518,0.0,0.0,0.0,0.0,0.0,0.0,0.0,0.0,0.0,0.0,0.0,-2.7785,-2.7775,0.0,0.0,0.0,-2.7769,-2.8142,-2.8609,-2.8126,0.0,0.0,0.0,0.0,0.0,0.0,0.0,-3.1875,-3.3095,-3.4048,-3.4646,-3.553,-3.6077,-3.5558,-3.6675,-3.7519,-3.766,0.0,-3.8822,-3.8663,-3.9566,-4.022,-4.0096,-4.036,-4.0967,-4.1617,-4.201,-4.2082,-4.232,-4.2525,-4.2882,-4.3568,-4.4854,-4.6003,-4.5995,-4.6152,-4.6362,-4.6886,-4.8369,-5.0022,-5.1095,-5.3132,-5.4945,-4.0636,-3.9596,-3.6436,-3.5362,-3.5799,-3.5391,-3.593,-3.6758,-3.5301,-3.5179,-3.584,-3.4972,-3.4492,-3.4023,-3.2894,0.0,-3.2316,-3.2548,-3.3594,-3.5488,-3.5929,-3.6935,-3.8482,-3.8467,-3.8648,-3.9171,-3.909,-3.9027,-3.9085,-3.8212,-3.7872,-3.8212,-3.6351,-3.4893,-3.3997,-3.4882,-3.5787,-3.6719,-3.745,-3.834,-3.9297,-4.0137,-4.0762,-4.1152,-4.1172,-4.0976,-4.0566,-3.9766,-3.8926,-3.8008,-3.6107,-3.4819,-3.4493,0.0,0.0,0.0,0.0,0.0,0.0,0.0,0.0,0.0,0.0,0.0,0.0,0.0,0.0,0.0,-2.8125,0.0,-2.9195,-2.9215,0.0,0.0,0.0,-3.0926,-3.0109,-3.1646,-3.2547,-3.2103,0.0,0.0,-3.5479,-3.6846,-3.7313,-3.6033,-3.6428,-3.7171,-3.787,-3.8295,-3.8696,-3.9766,-3.9936,-4.0204,-4.1091,-4.1263,-4.1655,-4.2471,-4.3228,-4.3587,-4.3237,-4.3489,-4.3731,-4.417,-4.5279,-4.6245,-4.6762,-4.824,-4.9445,-4.9198,-5.0616,-5.2176,-5.3405,-5.5254,-5.6829,-4.2208,-4.1596,-4.008,-3.8728,-3.7657,-3.7554,-3.7904,-3.8202,-3.7327,-3.7287,-3.7616,-3.5884,-3.531,-3.5308,-3.5686,-3.5598,-3.538,-3.5766,-3.615,-3.6387,-3.7171,-3.7681,-3.8092,-3.8641,-3.9248,-3.9659,-3.9878,-4.0111,-3.9956,-4.0101,-3.9617,-3.8815,-3.8589,-3.736,-3.5314,-3.5391,-3.582,-3.6515,-3.7312,-3.8629,-4.0156,-4.0742,-4.1074,-4.1172,-4.1172,-4.1133,-4.1016,-4.0508,-3.9805,-3.8926,-3.7838,-3.6559,-3.5118,-3.3916,0.0,0.0,0.0,0.0,0.0,0.0,0.0,0.0,0.0,-2.8426,-2.9799,0.0,-3.0535,0.0,-2.9949,-2.9547,-3.0181,-2.9947,0.0,0.0,-3.1853,-3.2477,-3.2877,-3.3652,-3.4204,-3.4624,-3.5504,-3.6359,-3.6972,-3.7781,-3.814,-3.7863,-3.8262,-3.8663,-3.8825,-3.9282,-3.9593,-3.9619,-4.0507,-4.1109,-4.1215,-4.2188,-4.2978,-4.312,-4.3993,-4.4538,-4.3675,-4.4909,-4.6058,-4.5862,-4.7051,-4.8077,-4.8182,-4.961,-5.0756,-5.1344,-5.2502,-5.39,-5.4927,-5.699,-5.8917,-4.3022,-4.2576,-4.1542,-4.0544,-3.9473,-3.9232,-3.9475,-3.9759,-3.895,-3.8869,-3.9171,-3.7866,-3.6989,-3.643,-3.7233,-3.7334,-3.6809,-3.7055,-3.7191,-3.7266,-3.791,-3.832,-3.8516,-3.9199,-3.9661,-3.983,-4.0196,-4.0325,-4.0404,-4.0793,-4.0559,-3.9901,-4.0124,-3.9313,-3.7489,-3.6973,-3.7003,-3.7545,-3.8326,-3.922,-4.0469,-4.0937,-4.1053,-4.0769,-4.0749,-4.0722,-4.0624,-3.9858,-3.938,-3.9062,-3.8047,-3.6904,-3.557,-3.4918,-3.401,0.0,0.0,0.0,0.0,0.0,0.0,0.0,0.0,0.0,0.0,0.0,-3.1984,-3.2542,-3.1858,-3.155,-3.219,-3.204,-3.2187,-3.2976,-3.3141,-3.3401,-3.4031,-3.4224,-3.4616,-3.5617,-3.6123,-3.697,-3.7881,-3.8429,-3.8999,-3.9369,-3.9548,-3.9521,-3.9248,-3.9716,-4.0261,-4.0096,-4.0925,-4.1665,-4.185,-4.3004,-4.389,-4.3778,-4.488,-4.5511,-4.5079,-4.6052,-4.7144,-4.7218,-4.8149,-4.8942,-4.9081,-5.03,-5.1673,-5.2665,-5.4215,-5.5711,-5.6334,-5.8228,-5.9945,-4.3517,-4.3094,-4.1797,-4.1268,-4.1144,-4.0694,-4.0624,-4.1022,-4.0071,-3.9971,-4.0292,-3.9818,-3.8889,-3.7669,-3.8287,-3.8247,-3.7669,-3.7602,-3.7832,-3.8203,-3.8574,-3.8945,-3.9316,-3.9766,-3.998,-3.998,-4.0302,-4.0472,-4.0472,-4.0943,-4.1033,-4.0933,-4.0913,-4.0452,-3.9654,-3.8827,-3.86,-3.8926,-3.9465,-4.0057,-4.041,-4.0857,-4.0749,-4.0211,-4.0151,-4.006,-4.0,-3.8963,-3.856,-3.8983,-3.7861,-3.6971,-3.6321,-3.5802,-3.5177,0.0,-3.4111,0.0,0.0,0.0,0.0,0.0,0.0,0.0,0.0,-3.2362,-3.3246,-3.3832,-3.3849,-3.3968,-3.4229,-3.4441,-3.4538,-3.4419,-3.4427,-3.4369,-3.4497,-3.4453,-3.4897,-3.6043,-3.6654,-3.7388,-3.8746,-3.9189,-3.983,-4.0398,-4.072,-4.0412,-3.9825,-4.0164,-4.076,-4.1126,-4.1473,-4.2179,-4.289,-4.3907,-4.4592,-4.4358,-4.5494,-4.6501,-4.6343,-4.7118,-4.7981,-4.8411,-4.8837,-4.9289,-4.9496,-5.0766,-5.2212,-5.3395,-5.561,-5.7346,-5.7715,-5.9234,-6.0407,-4.4278,-4.3557,-4.2526,-4.2129,-4.2051,-4.1736,-4.1404,-4.0913,-4.0435,-4.0117,-4.0066,-4.0167,-4.0136,-3.985,-3.9909,-3.9909,-3.985,-3.9504,-3.9453,-3.9531,-3.9609,-3.9687,-3.9785,-4.0195,-4.041,-4.043,-4.0916,-4.1072,-4.1072,-4.1072,-4.1025,-4.0464,-4.0464,-4.0271,-3.9658,0.0,0.0,0.0,-3.948,-4.0048,-4.0373,-4.0116,-3.9991,-3.973,-4.0,0.0,-4.0167,-4.0146,-4.0062,-3.9935,-3.9316,0.0,0.0,0.0,0.0,0.0,0.0,0.0,0.0,0.0,0.0,0.0,-3.5553,-3.4821,-3.3378,-3.451,-3.5352,-3.5583,-3.5564,-3.5304,-3.4876,-3.5376,-3.5681,-3.5524,-3.6082,-3.6574,-3.6581,-3.6602,-3.7035,-3.7846,-3.8287,-3.901,-4.0126,-4.0823,-4.1191,-4.1325,-4.1773,-4.1684,-4.1346,-4.1279,-4.1488,-4.1596,-4.2241,-4.2802,-4.3408,-4.4138,-4.4785,-4.4866,-4.5926,-4.6838,-4.7019,-4.8427,-4.9364,-4.9255,-5.0006,-5.0691,-5.0883,-5.1893,-5.3034,-5.4126,-5.6473,-5.8372,-5.8824,-6.0586,-6.2186,-4.5047,0.0,-4.3155,-4.2617,0.0,-4.1959,-4.1636,-4.1443,-4.1361,-4.1025,-4.0499,-4.063,-4.0512,-4.0164,-4.0314,-4.0144,-3.9863,-3.9883,-3.9732,-3.9581,-3.9946,-4.0195,-4.0215,-4.0644,-4.0957,-4.1152,-4.1367,-4.1582,-4.1777,-4.1582,-4.1406,-4.1109,-4.0912,-4.0611,-4.0424,-4.0495,-4.0147,-3.9619,-3.9909,-4.0294,-4.0774,-4.0551,-4.0296,-3.9951,0.0,0.0,0.0,0.0,0.0,0.0,0.0,0.0,0.0,-3.7955,0.0,-3.7374,-3.7002,-3.6865,-3.6967,-3.709,-3.7197,-3.704,-3.6939,-3.6436,-3.5227,-3.5665,-3.606,-3.6517,-3.6874,-3.6974,-3.6705,-3.7075,-3.7327,-3.7388,-3.7271,-3.733,-3.7687,-3.7763,-3.8058,-3.8903,-3.943,-4.004,-4.0922,-4.1518,-4.1867,-4.1983,-4.2392,-4.2514,-4.2426,-4.2338,-4.233,-4.2631,-4.2947,-4.3325,-4.3835,-4.4352,-4.5041,-4.5422,-4.6588,-4.7568,-4.814,-4.9582,-5.0634,-5.0538,-5.1124,-5.1518,-5.1718,-5.2687,-5.412,-5.5513,-5.7999,-6.0198,-6.0881,-6.2115,-6.3128,-4.5575,-4.4962,-4.3949,-4.3047,-4.2656,-4.2191,-4.1829,-4.1714,0.0,0.0,0.0,-4.103,-4.0813,-4.0117,-4.04,-4.0229,-3.9623,-3.9965,-3.9946,-3.9661,-4.0393,-4.0703,-4.0664,-4.1152,-4.1523,-4.1797,-4.1875,-4.209,-4.2402,-4.207,-4.1914,-4.1875,-4.1562,-4.1367,-4.1289,-4.1211,-4.1014,-4.067,-4.0413,-4.065,-4.1072,-4.1033,-4.0769,-4.0251,-4.0231,-4.0326,-4.0165,-3.9432,-3.9371,-3.9698,-3.933,-3.8844,-3.8621,-3.852,-3.8532,-3.8591,-3.8414,-3.8439,-3.8576,-3.8618,-3.8366,-3.7929,-3.7766,-3.741,-3.6984,-3.6495,-3.6535,-3.7164,-3.7996,-3.8397,-3.8397,-3.8586,-3.8889,-3.919,-3.8425,-3.8196,-3.8675,-3.857,-3.872,-3.977,-4.0332,-4.068,-4.14,-4.1915,-4.2371,-4.2624,-4.2911,-4.3034,-4.3029,-4.294,-4.2952,-4.3359,-4.3532,-4.3898,-4.4201,-4.4654,-4.5256,-4.5959,-4.7016,-4.8354,-4.9485,-5.0551,-5.1368,-5.1747,-5.21,-5.2364,-5.2712,-5.3916,-5.5319,-5.6738,-5.943,-6.193,-6.2799,-6.364,-6.4109,-4.6118,-4.4945,-4.4885,-4.4257,-4.3535,-4.271,-4.2023,-4.1663,-4.1409,-4.1292,-4.1148,-4.1148,-4.1073,-4.0996,-4.0996,-4.0996,-4.0976,-4.0996,-4.0996,0.0,-4.1426,-4.1426,-4.1133,-4.1875,-4.209,-4.1836,-4.2168,-4.2363,-4.2422,-4.2363,-4.2324,-4.2324,-4.2285,-4.207,-4.1719,-4.1348,-4.1289,-4.1641,-4.0867,-4.0354,-4.0472,-4.0415,-4.0452,-4.0271,-4.0565,-4.0651,-4.0654,-4.0515,-4.0411,-4.0473,-4.0041,-3.9982,-4.037,-3.9516,-3.9232,-3.9899,-3.9412,-3.9049,-3.9556,-3.9556,-3.9454,-3.9372,-3.9002,-3.8525,-3.7646,-3.753,-3.7749,-3.8127,-3.8668,-3.8889,-3.9071,-3.9593,-4.0056,-4.0262,-4.0164,-4.0127,-4.0147,-3.9869,-3.9908,-4.0664,-4.0962,-4.1441,-4.2297,-4.274,-4.2905,-4.3235,-4.3277,-4.338,-4.3408,-4.3221,-4.305,-4.3511,-4.3919,-4.405,-4.4352,-4.5106,-4.5853,-4.6448,-4.7502,-4.8812,-5.0198,-5.101,-5.1754,-5.2513,-5.3111,-5.3708,-5.4285,-5.551,-5.687,-5.8316,-6.0424,-6.2068,-6.3441,-6.4948,-6.5946,-4.6373,-4.6036,-4.5312,-4.4926,-4.473,-4.3323,-4.2496,-4.1933,-4.1432,-4.1147,-4.1029,-4.112,-4.1067,-4.1209,-4.1347,-4.119,-4.0875,-4.16,-4.1539,-4.0922,-4.1433,-4.1732,-4.1597,-4.1625,-4.1817,-4.2178,-4.2353,-4.2566,-4.276,-4.2728,-4.2773,-4.2754,-4.2558,-4.2207,-4.1836,-4.1836,-4.1836,-4.1777,-4.1366,-4.1325,-4.1542,-4.1519,-4.142,-4.142,-4.1574,-4.1728,-4.1728,-4.1582,-4.1594,-4.1562,-4.1414,-4.1394,-4.133,-4.0753,-4.0475,-4.0634,-4.0404,-4.0164,-4.0332,-4.0164,-4.0017,-4.0017,-3.9722,-3.921,-3.8583,-3.8504,-3.8563,-3.8818,-3.9453,-3.9699,-3.9845,-4.0224,-4.0592,-4.1056,-4.0813,-4.0713,-4.1083,-4.0821,-4.0769,-4.1138,-4.1463,-4.1999,-4.2201,-4.2624,-4.2823,-4.2899,-4.2905,-4.3123,-4.3502,-4.3377,-4.3377,-4.3794,-4.4201,-4.4654,-4.4805,-4.5405,-4.6299,-4.7038,-4.8209,-4.9509,-5.1047,-5.2029,-5.2935,-5.3452,-5.4321,-5.4901,-5.5282,-5.6602,-5.8096,-5.9563,-6.1436,-6.3153,-6.4744,-6.6475,-6.7568,-4.6626,-4.6615,-4.5786,-4.5438,-4.532,-4.3876,-4.2837,-4.2386,-4.1602,-4.1194,-4.1109,-4.1162,-4.1235,-4.1158,-4.1636,-4.1298,-4.0857,-4.1644,-4.1637,-4.0846,-4.1409,-4.1733,-4.1675,-4.1504,-4.1732,-4.2269,-4.2346,-4.2576,-4.2991,-4.3051,-4.3223,-4.3183,-4.2793,-4.2402,-4.209,-4.2305,-4.2305,-4.2109,-4.209,-4.2207,-4.2422,-4.2519,-4.2558,-4.2578,-4.2558,-4.2578,-4.2558,-4.2484,-4.2425,-4.2402,-4.2425,-4.2268,-4.1933,-4.1915,-4.1736,-4.1401,-4.139,-4.1363,-4.1363,-4.094,-4.0749,-4.0749,-4.0367,-4.0024,-3.9509,-3.9542,-3.9368,-3.924,-3.9581,-4.0112,-4.0433,-4.0551,-4.0893,-4.1644,-4.1214,-4.1072,-4.1522,-4.143,-4.1243,-4.1288,-4.1947,-4.2196,-4.2176,-4.2698,-4.2967,-4.2775,-4.2555,-4.2749,-4.3401,-4.3676,-4.3994,-4.4377,-4.4805,-4.5106,-4.5405,-4.6151,-4.6891,-4.7918,-4.9078,-5.0364,-5.1722,-5.3189,-5.4074,-5.4379,-5.5333,-5.5945,-5.6107,-5.7478,-5.9356,-6.1011,-6.2566,-6.4187,-6.59,-6.767,-6.8838,-4.6497,-4.5856,-4.6141,-4.5542,-4.445,-4.3856,-4.3158,-4.2406,-4.1882,-4.136,-4.1194,-4.1504,-4.1436,-4.1133,-4.1579,-4.1599,-4.1114,-4.1152,-4.119,-4.1084,-4.155,-4.1531,-4.1284,-4.1928,-4.2099,-4.1872,-4.2156,-4.2697,-4.3087,-4.3029,-4.3322,-4.3594,-4.3223,-4.2988,-4.291,-4.2617,-4.2598,-4.2949,-4.2949,-4.2793,-4.2461,-4.2812,-4.3008,-4.3027,-4.3027,-4.3027,-4.3008,-4.2617,-4.2402,-4.2422,-4.2441,-4.2402,-4.2363,-4.2324,-4.2285,-4.2226,-4.2187,-4.2347,-4.2308,-4.1836,-4.1582,-4.1601,-4.125,-4.088,-4.0394,-4.0356,-3.9855,-3.9146,-3.9222,-3.9855,-4.0449,-4.0762,-4.1286,-4.2035,-4.1882,-4.1654,-4.1808,-4.1404,-4.1327,-4.1756,-4.2122,-4.2544,-4.2677,-4.3186,-4.347,-4.3174,-4.3014,-4.3061,-4.3886,-4.4334,-4.4827,-4.5234,-4.5405,-4.5555,-4.6002,-4.6891,-4.7772,-4.8789,-5.008,-5.1352,-5.2529,-5.3561,-5.4288,-5.4915,-5.5905,-5.6787,-5.7503,-5.8997,-6.0794,-6.2332,-6.3562,-6.4547,-6.6607,-6.8342,-6.9208,-4.6385,-4.6055,-4.6209,-4.5644,-4.4679,-4.4296,-4.3441,-4.2312,-4.1956,-4.1546,-4.121,-4.1528,-4.1395,-4.1203,-4.1512,-4.1512,-4.1203,-4.1612,-4.156,-4.1248,-4.1563,-4.1545,-4.1432,-4.1546,-4.1621,-4.1676,-4.2069,-4.2425,-4.2762,-4.3098,-4.3465,-4.3711,-4.3516,-4.3156,-4.2779,-4.2837,-4.2837,-4.276,-4.3012,-4.3051,-4.3223,-4.3359,-4.3457,-4.3457,-4.3457,-4.3457,-4.3437,-4.3262,-4.3183,-4.3183,-4.3183,-4.2903,-4.2488,-4.2651,-4.2534,-4.2159,-4.2281,-4.2261,-4.212,-4.2106,-4.2168,-4.2168,-4.2012,-4.1597,-4.0941,-4.0941,-4.0451,-3.9571,-3.9757,-4.0173,-4.0487,-4.0798,-4.1386,-4.1797,-4.1931,-4.1773,-4.1753,-4.1618,-4.1483,-4.1542,-4.1947,-4.237,-4.2637,-4.2911,-4.3118,-4.2932,-4.2978,-4.3464,-4.4081,-4.4763,-4.5384,-4.6002,-4.6151,-4.6151,-4.6448,-4.7332,-4.8499,-4.9485,-5.0624,-5.205,-5.3513,-5.4515,-5.5075,-5.5294,-5.652,-5.7363,-5.7503,-5.9379,-6.1364,-6.314,-6.5206,-6.6363,-6.7486,-6.8728,-6.9583,-4.6308,-4.6289,-4.6133,-4.5705,-4.5044,-4.4527,-4.3725,-4.2759,-4.2273,-4.1938,-4.1713,-4.177,-4.1621,-4.1453,-4.1839,-4.1782,-4.1654,-4.2103,-4.2068,-4.1565,-4.1714,-4.1695,-4.1695,-4.121,-4.121,-4.1583,-4.1843,-4.1992,-4.2161,-4.3006,-4.3523,-4.3584,-4.3711,-4.339,-4.2664,-4.2933,-4.2914,-4.2664,-4.2914,-4.3214,-4.3691,-4.3691,-4.3691,-4.3691,-4.3691,-4.3691,-4.3691,-4.3691,-4.3691,-4.3691,-4.3691,-4.3409,-4.279,-4.3098,-4.2942,-4.2365,-4.2469,-4.2631,-4.2144,-4.2353,-4.2598,-4.2598,-4.25,-4.2101,-4.1456,-4.1114,-4.0809,-4.0265,-4.0316,-4.0508,-4.0537,-4.0603,-4.1005,-4.1283,-4.1387,-4.1463,-4.1424,-4.1598,-4.1463,-4.1327,-4.1927,-4.2524,-4.2769,-4.2919,-4.304,-4.3106,-4.3425,-4.4039,-4.4592,-4.5339,-4.6002,-4.6596,-4.6891,-4.7038,-4.7186,-4.8064,-4.9078,-5.034,-5.1467,-5.2879,-5.4376,-5.518,-5.5892,-5.6079,-5.7294,-5.8284,-5.8914,-6.0411,-6.2267,-6.3895,-6.5927,-6.776,-6.8134,-6.919,-7.0052,-4.6308,-4.6308,-4.5763,-4.5337,-4.4934,-4.453,-4.4087,-4.3645,-4.3279,-4.2964,-4.2744,-4.2087,-4.1938,-4.2424,-4.2405,-4.2383,-4.2383,-4.2273,-4.231,-4.231,-4.1919,-4.1714,-4.1695,-4.1229,-4.1079,-4.1284,-4.1394,-4.1545,-4.1826,-4.2645,-4.3087,-4.3087,-4.3458,-4.3584,-4.3068,-4.3125,-4.3087,-4.3106,-4.3145,-4.3272,-4.3584,-4.375,-4.3769,-4.3769,-4.3711,-4.375,-4.375,-4.3711,-4.373,-4.3711,-4.373,-4.3711,-4.3672,-4.3672,-4.3341,-4.3137,-4.3303,-4.3468,-4.3079,-4.2934,-4.3047,-4.3008,-4.2734,-4.23,-4.1752,-4.1428,-4.094,-4.054,-4.0546,-4.0565,-4.054,-4.0403,-4.0339,-4.0584,-4.066,-4.0743,-4.0588,-4.1036,-4.1172,-4.1327,-4.1927,-4.2677,-4.3442,-4.3502,-4.3781,-4.4015,-4.4358,-4.4845,-4.5657,-4.6277,-4.6743,-4.7186,-4.7794,-4.8255,-4.8377,-4.8957,-5.008,-5.1327,-5.2441,-5.3725,-5.4671,-5.5525,-5.6068,-5.6795,-5.8015,-5.9155,-6.0333,-6.1846,-6.3773,-6.5505,-6.7366,-6.8677,-6.866,-6.9511,-7.0302,-4.6133,-4.5783,-4.5588,-4.5376,-4.4991,-4.5163,-4.4834,-4.4087,-4.3933,-4.3783,-4.3368,-4.3084,-4.3273,-4.3557,-4.3254,-4.2706,-4.201,-4.2233,-4.2534,-4.2649,-4.2236,-4.2236,-4.2478,-4.2085,-4.1785,-4.15,-4.1721,-4.2002,-4.2497,-4.2838,-4.3367,-4.3706,-4.3706,-4.3537,-4.3348,-4.3178,-4.3008,-4.3008,-4.3178,-4.3687,-4.4006,-4.4382,-4.4551,-4.4531,-4.4277,-4.4277,-4.4551,-4.4551,-4.4433,-4.416,-4.416,-4.3974,-4.3787,-4.3452,-4.3002,-4.2773,-4.2735,-4.2716,-4.2364,-4.2748,-4.3167,-4.3147,-4.3176,-4.2895,-4.2277,-4.1947,-4.1617,-4.1138,-4.0897,-4.0916,-4.1082,-4.0913,-4.067,-4.0777,-4.0944,-4.0865,-4.0971,-4.1071,-4.117,-4.1561,-4.2236,-4.3157,-4.3725,-4.3903,-4.4184,-4.4891,-4.5254,-4.5828,-4.6233,-4.6743,-4.7186,-4.7794,-4.8354,-4.9078,-4.9795,-5.008,-5.0789,-5.205,-5.3291,-5.4376,-5.5339,-5.6263,-5.6902,-5.7535,-5.8701,-5.9947,-6.1137,-6.3355,-6.5191,-6.6542,-6.8399,-6.9258,-6.9078,-6.9847,-7.0552,-4.5783,-4.5412,-4.5255,-4.5006,-4.4818,-4.5145,-4.4894,-4.4508,-4.4489,-4.4395,-4.4319,-4.4052,-4.4205,-4.4319,-4.3822,-4.3173,-4.2432,-4.2734,-4.3135,-4.3289,-4.3159,-4.3197,-4.3214,-4.2836,-4.2363,-4.2076,-4.2142,-4.2444,-4.2772,-4.2944,-4.3461,-4.3976,-4.3823,-4.3823,-4.3614,-4.327,-4.3117,-4.3289,-4.3614,-4.4147,-4.4508,-4.4849,-4.5098,-4.5176,-4.4961,-4.4844,-4.5039,-4.5039,-4.4902,-4.4648,-4.459,-4.4421,-4.4064,-4.3725,-4.3196,-4.2667,-4.2724,-4.2555,-4.2106,-4.2759,-4.326,-4.326,-4.3438,-4.338,-4.2569,-4.2569,-4.2235,-4.1565,-4.1397,-4.1733,-4.1844,-4.162,-4.1432,-4.1264,-4.1235,-4.1162,-4.0903,-4.1163,-4.1582,-4.2027,-4.2697,-4.3462,-4.405,-4.4504,-4.4934,-4.5555,-4.6151,-4.6743,-4.6891,-4.7626,-4.8086,-4.8523,-4.9221,-5.0056,-5.0789,-5.1211,-5.1771,-5.3017,-5.3861,-5.4939,-5.6,-5.6785,-5.7706,-5.8327,-5.9405,-6.0694,-6.2445,-6.4662,-6.6223,-6.741,-6.8704,-6.983,-6.9909,-7.0157,-7.0797,-4.5431,-4.4902,-4.437,-4.4341,-4.4352,-4.4333,-4.4588,-4.4985,-4.4946,-4.518,-4.526,-4.474,-4.4645,-4.4703,-4.4083,-4.3541,-4.3641,-4.3936,-4.4129,-4.4109,-4.4185,-4.4166,-4.4243,-4.3518,-4.2963,-4.2963,-4.2444,-4.2289,-4.2499,-4.3019,-4.3536,-4.369,-4.4109,-4.3976,-4.3671,-4.3574,-4.3518,-4.3555,-4.3937,-4.4414,-4.4869,-4.4966,-4.5161,-4.5625,-4.5644,-4.5469,-4.5117,-4.5117,-4.5117,-4.5039,-4.5019,-4.5019,-4.481,-4.4508,-4.3994,-4.3159,-4.3368,-4.3197,-4.2574,-4.3177,-4.3683,-4.3645,-4.3651,-4.3292,-4.2645,-4.2773,-4.2569,-4.1882,-4.2049,-4.2235,-4.2402,-4.2364,-4.2046,-4.1339,-4.1474,-4.1399,-4.1017,-4.1322,-4.1935,-4.2491,-4.3157,-4.3767,-4.4352,-4.5106,-4.5853,-4.6151,-4.6891,-4.7794,-4.7941,-4.8644,-4.9245,-4.9389,-5.008,-5.1071,-5.1771,-5.2466,-5.3154,-5.3835,-5.4537,-5.5365,-5.6524,-5.7431,-5.8424,-5.921,-6.1084,-6.2323,-6.431,-6.635,-6.753,-6.8623,-6.9665,-7.0368,-7.0458,-7.0609,-7.1021,-4.5607,-4.4902,-4.5078,-4.4826,-4.436,-4.4517,-4.4793,-4.5028,-4.5203,-4.5454,-4.5532,-4.5609,-4.5629,-4.5357,-4.4693,-4.4341,-4.3988,-4.421,-4.4153,-4.4097,-4.3853,-4.422,-4.4565,-4.4027,-4.3721,-4.3317,-4.292,-4.2765,-4.2812,-4.3024,-4.3328,-4.3921,-4.3802,-4.3802,-4.394,-4.3625,-4.3449,-4.3625,-4.3977,-4.4329,-4.4504,-4.4854,-4.5105,-4.557,-4.5589,-4.5687,-4.5918,-4.5898,-4.5762,-4.5488,-4.5469,-4.5332,-4.4985,-4.4798,-4.4396,-4.3519,-4.3557,-4.3442,-4.2967,-4.3253,-4.3595,-4.369,-4.3722,-4.3342,-4.2949,-4.2721,-4.2588,-4.2235,-4.2049,-4.2049,-4.2735,-4.2902,-4.2659,-4.2046,-4.1834,-4.1724,-4.1548,-4.1857,-4.2416,-4.3198,-4.3767,-4.4201,-4.4955,-4.5704,-4.6299,-4.6743,-4.7648,-4.8377,-4.8933,-4.9509,-5.008,-5.053,-5.1352,-5.1911,-5.2466,-5.3154,-5.3971,-5.4645,-5.5206,-5.6,-5.7044,-5.8198,-5.9024,-6.0551,-6.2311,-6.4183,-6.6073,-6.757,-6.86,-6.9597,-7.0511,-7.0848,-7.0836,-7.1178,-7.1726,-4.5607,-4.4902,-4.5078,-4.4725,-4.4193,-4.4548,-4.4725,-4.4902,-4.5431,-4.5607,-4.5763,-4.6114,-4.6133,-4.5607,-4.5078,-4.4725,-4.4212,-4.4015,-4.4015,-4.3997,-4.4127,-4.448,-4.504,-4.4812,-4.4504,-4.4097,-4.3715,-4.3366,-4.3431,-4.3449,-4.3579,-4.3978,-4.3837,-4.3837,-4.4193,-4.3837,-4.3678,-4.3837,-4.4193,-4.4548,-4.4548,-4.4725,-4.5078,-4.5588,-4.5607,-4.5763,-4.6308,-4.6308,-4.6191,-4.5976,-4.5918,-4.5762,-4.5547,-4.5242,-4.4837,-4.4358,-4.4185,-4.3895,-4.3571,-4.3687,-4.386,-4.3956,-4.3994,-4.3668,-4.3196,-4.2911,-4.2759,-4.2421,-4.2383,-4.255,-4.3214,-4.3399,-4.3214,-4.2882,-4.2664,-4.2365,-4.2266,-4.2521,-4.2891,-4.3442,-4.405,-4.4805,-4.5405,-4.6151,-4.6596,-4.7355,-4.8086,-4.8812,-4.9509,-5.008,-5.0789,-5.1492,-5.2074,-5.2604,-5.3154,-5.3997,-5.4805,-5.5339,-5.6,-5.6785,-5.7688,-5.8802,-5.974,-6.1804,-6.3654,-6.5124,-6.6966,-6.8369,-6.9528,-7.0447,-7.1292,-7.1622,-7.1822,-7.2345,-7.2755,-4.545,-4.4902,-4.437,-4.4193,-4.4193,-4.4193,-4.437,-4.4902,-4.5255,-4.5431,-4.5607,-4.6133,-4.5939,-4.5607,-4.5078,-4.4548,-4.4193,-4.3659,-4.3481,-4.3837,-4.4137,-4.4883,-4.5236,-4.5373,-4.5178,-4.4826,-4.4296,-4.4137,-4.4118,-4.396,-4.4193,-4.4193,-4.4015,-4.4193,-4.4015,-4.4212,-4.4015,-4.4015,-4.4548,-4.4725,-4.4725,-4.4725,-4.5078,-4.5431,-4.5607,-4.5783,-4.6308,-4.6308,-4.6308,-4.6289,-4.625,-4.623,-4.6094,-4.5763,-4.5376,-4.5049,-4.5026,-4.4774,-4.4371,-4.4296,-4.447,-4.4798,-4.4434,-4.4051,-4.3424,-4.3403,-4.3323,-4.2888,-4.294,-4.3234,-4.3546,-4.3711,-4.3691,-4.3778,-4.3386,-4.3299,-4.2978,-4.2941,-4.3198,-4.3767,-4.4352,-4.5106,-4.5853,-4.6596,-4.7186,-4.7794,-4.8546,-4.9245,-4.9795,-5.0506,-5.1352,-5.205,-5.2904,-5.3452,-5.3997,-5.4267,-5.5206,-5.6236,-5.6758,-5.7532,-5.8564,-5.9721,-6.0939,-6.2866,-6.4684,-6.6186,-6.7539,-6.8938,-7.0345,-7.1394,-7.2089,-7.2472,-7.2947,-7.3394,-7.3492,-4.5876,-4.4902,-4.4725,-4.437,-4.3659,-4.3678,-4.3856,-4.4034,-4.4725,-4.5078,-4.5255,-4.5958,-4.5783,-4.5078,-4.4902,-4.4548,-4.3837,-4.3499,-4.3481,-4.3499,-4.3678,-4.437,-4.5078,-4.5431,-4.5431,-4.4902,-4.4548,-4.4193,-4.4193,-4.3837,-4.3856,-4.4212,-4.3837,-4.3678,-4.3678,-4.3678,-4.3678,-4.3659,-4.3837,-4.3837,-4.3837,-4.3837,-4.4193,-4.5078,-4.5078,-4.5431,-4.6133,-4.6308,-4.6308,-4.6308,-4.5958,-4.5958,-4.6308,-4.5763,-4.553,-4.5472,-4.5686,-4.5568,-4.4926,-4.5064,-4.5064,-4.4888,-4.4875,-4.478,-4.4473,-4.4049,-4.3871,-4.3659,-4.3465,-4.3234,-4.3546,-4.3711,-4.3923,-4.4076,-4.3718,-4.328,-4.3163,-4.3106,-4.331,-4.4201,-4.4676,-4.5448,-4.6151,-4.6891,-4.7355,-4.7941,-4.8812,-4.9818,-5.0364,-5.1327,-5.2327,-5.2904,-5.3614,-5.4132,-5.4562,-5.4831,-5.5604,-5.7017,-5.7761,-5.8396,-5.9635,-6.0939,-6.222,-6.3902,-6.5415,-6.6853,-6.8211,-6.953,-7.0842,-7.2277,-7.2936,-7.3413,-7.3858,-7.4239,-7.4186,-4.6516,-4.5413,-4.5413,-4.4876,-4.3958,-4.3811,-4.3738,-4.388,-4.4268,-4.4725,-4.5078,-4.5607,-4.5763,-4.5255,-4.5078,-4.4548,-4.3837,-4.3678,-4.3481,-4.3481,-4.3659,-4.4193,-4.4902,-4.5607,-4.5783,-4.5431,-4.4725,-4.4548,-4.437,-4.3837,-4.3659,-4.3856,-4.3678,-4.3481,-4.3499,-4.3481,-4.3499,-4.3481,-4.3481,-4.3481,-4.3481,-4.3481,-4.4015,-4.4725,-4.4902,-4.5431,-4.6133,-4.6308,-4.6308,-4.5958,-4.5783,-4.5783,-4.6133,-4.5783,-4.5783,-4.5783,-4.5958,-4.5763,-4.5431,-4.5255,-4.5255,-4.5216,-4.5182,-4.5164,-4.4953,-4.4472,-4.4354,-4.4039,-4.362,-4.3593,-4.3915,-4.4205,-4.4498,-4.4764,-4.4298,-4.3888,-4.3813,-4.4078,-4.4411,-4.4933,-4.5406,-4.59,-4.6788,-4.7208,-4.7648,-4.8377,-4.9389,-5.0104,-5.0789,-5.2189,-5.3154,-5.3589,-5.4158,-5.4697,-5.5339,-5.5604,-5.6497,-5.7788,-5.9323,-5.9872,-6.0586,-6.1972,-6.3117,-6.4498,-6.5981,-6.7501,-6.8822,-7.0225,-7.1765,-7.2944,-7.3662,-7.4231,-7.4664,-7.5128,-7.5052,-4.7057,-4.6114,-4.6114,-4.5587,-4.4764,-4.4251,-4.4031,-4.4175,-4.4182,-4.437,-4.4902,-4.5255,-4.5469,-4.5488,-4.4939,-4.4604,-4.4361,-4.3825,-4.3609,-4.377,-4.409,-4.4567,-4.4921,-4.5607,-4.5958,-4.5783,-4.5255,-4.4902,-4.4548,-4.4015,-4.3499,-4.3696,-4.3715,-4.3573,-4.3646,-4.3646,-4.3628,-4.388,-4.3646,-4.3628,-4.377,-4.3715,-4.4015,-4.4725,-4.5255,-4.5431,-4.5958,-4.6133,-4.5958,-4.5607,-4.5607,-4.5783,-4.6133,-4.5783,-4.5783,-4.5958,-4.5783,-4.5412,-4.5412,-4.5078,-4.5078,-4.5236,-4.5412,-4.5453,-4.5145,-4.5107,-4.4759,-4.4199,-4.3967,-4.4238,-4.4568,-4.4942,-4.521,-4.5489,-4.5354,-4.5211,-4.5146,-4.5396,-4.5425,-4.5513,-4.6095,-4.6673,-4.7217,-4.7648,-4.8086,-4.8691,-4.9675,-5.0506,-5.1352,-5.2466,-5.3427,-5.4132,-5.4671,-5.5232,-5.5868,-5.6524,-5.7532,-5.8774,-6.0667,-6.1643,-6.1935,-6.2856,-6.3854,-6.5153,-6.6598,-6.8108,-6.9492,-7.1015,-7.254,-7.3607,-7.4332,-7.4896,-7.5387,-7.5898,-7.6063,-4.6964,-4.6114,-4.5769,-4.5203,-4.46,-4.4251,-4.4086,-4.4068,-4.422,-4.4268,-4.4389,-4.4921,-4.5287,-4.5535,-4.4773,-4.451,-4.4976,-4.4448,-4.3995,-4.4031,-4.4539,-4.4781,-4.4958,-4.5312,-4.5431,-4.5431,-4.4725,-4.4567,-4.4567,-4.409,-4.3678,-4.409,-4.4028,-4.3958,-4.3976,-4.4196,-4.4598,-4.4725,-4.4285,-4.4138,-4.4244,-4.422,-4.4464,-4.4977,-4.5626,-4.5783,-4.5783,-4.5783,-4.5783,-4.5588,-4.5607,-4.5783,-4.6133,-4.5607,-4.5431,-4.5607,-4.5255,-4.4902,-4.4725,-4.4725,-4.4725,-4.4725,-4.5236,-4.5568,-4.5472,-4.5512,-4.5472,-4.5312,-4.5229,-4.5173,-4.5383,-4.5678,-4.5961,-4.6218,-4.6522,-4.6855,-4.6776,-4.5809,-4.5384,-4.5535,-4.5984,-4.6431,-4.7208,-4.7941,-4.8523,-4.9124,-4.9961,-5.093,-5.1911,-5.2879,-5.37,-5.4537,-5.5072,-5.5736,-5.6524,-5.7248,-5.8537,-5.9872,-6.1791,-6.2981,-6.3102,-6.4098,-6.5255,-6.6196,-6.7184,-6.8635,-7.0196,-7.1514,-7.3008,-7.3973,-7.494,-7.5466,-7.5992,-7.661,-7.686,-4.7278,-4.672,-4.6167,-4.5612,-4.5168,-4.4838,-4.4655,-4.4581,-4.4396,-4.4591,-4.4752,-4.5111,-4.5423,-4.5953,-4.5224,-4.5213,-4.5437,-4.4836,-4.438,-4.4562,-4.4864,-4.5234,-4.5224,-4.5167,-4.5287,-4.5507,-4.511,-4.4989,-4.4689,-4.4461,-4.4448,-4.4411,-4.4451,-4.4343,-4.4361,-4.4783,-4.4984,-4.4984,-4.4836,-4.4725,-4.4669,-4.4883,-4.5111,-4.5713,-4.621,-4.6192,-4.6229,-4.586,-4.5626,-4.5607,-4.5607,-4.5783,-4.6133,-4.5607,-4.5431,-4.5431,-4.5255,-4.4725,-4.437,-4.437,-4.4548,-4.4193,-4.5078,-4.5431,-4.5744,-4.5725,-4.5879,-4.5683,-4.5582,-4.5758,-4.577,-4.627,-4.653,-4.7048,-4.7504,-4.7896,-4.7856,-4.6985,-4.6268,-4.6439,-4.7121,-4.7432,-4.8054,-4.8423,-4.9101,-4.9818,-5.0388,-5.1352,-5.2327,-5.3291,-5.4132,-5.4805,-5.5472,-5.6132,-5.6915,-5.8088,-5.9513,-6.1025,-6.2799,-6.3549,-6.3743,-6.5157,-6.6707,-6.742,-6.7925,-6.9349,-7.0858,-7.2165,-7.3342,-7.4354,-7.5226,-7.5952,-7.6458,-7.6749,-7.6866,-4.7755,-4.7401,-4.6822,-4.6259,-4.5828,-4.5443,-4.5242,-4.5205,-4.4856,-4.4746,-4.5203,-4.5203,-4.5694,-4.617,-4.5549,-4.5587,-4.568,-4.5333,-4.4985,-4.504,-4.5549,-4.5706,-4.5858,-4.5782,-4.5649,-4.5661,-4.5205,-4.4999,-4.4988,-4.4925,-4.4762,-4.4801,-4.4746,-4.4765,-4.4948,-4.5206,-4.55,-4.5335,-4.5224,-4.5315,-4.5076,-4.5386,-4.6019,-4.6626,-4.6795,-4.6758,-4.6737,-4.6423,-4.5838,-4.5956,-4.5722,-4.5879,-4.6211,-4.5958,-4.5607,-4.5431,-4.5078,-4.4548,-4.4212,-4.4034,-4.4015,-4.4193,-4.4902,-4.5431,-4.5588,-4.5919,-4.6113,-4.6032,-4.591,-4.5877,-4.5891,-4.6637,-4.7196,-4.7549,-4.8042,-4.8474,-4.8653,-4.8454,-4.7964,-4.7542,-4.7939,-4.8373,-4.8607,-4.9073,-4.9866,-5.053,-5.1071,-5.1771,-5.2742,-5.37,-5.4537,-5.5339,-5.6,-5.7275,-5.817,-5.8968,-6.0393,-6.1842,-6.3678,-6.4267,-6.4574,-6.5989,-6.7281,-6.7865,-6.8648,-7.0125,-7.1453,-7.2721,-7.3822,-7.479,-7.5526,-7.6171,-7.657,-7.6848,-7.6909,-4.7401,-4.7401,-4.6447,-4.5883,-4.5828,-4.548,-4.5315,-4.5223,-4.4911,-4.4673,-4.4893,-4.4875,-4.5482,-4.5777,-4.5169,-4.5059,-4.5501,-4.5557,-4.5835,-4.589,-4.6328,-4.6715,-4.6514,-4.66,-4.6304,-4.5735,-4.513,-4.4782,-4.4646,-4.4522,-4.4764,-4.4746,-4.504,-4.5187,-4.5278,-4.5666,-4.5927,-4.6039,-4.5686,-4.5557,-4.5686,-4.5994,-4.6409,-4.7315,-4.7204,-4.7344,-4.7223,-4.7044,-4.6825,-4.7165,-4.6478,-4.6481,-4.6542,-4.5956,-4.545,-4.5078,-4.4725,-4.4193,-4.3856,-4.3678,-4.3659,-4.3837,-4.4548,-4.5078,-4.5255,-4.5783,-4.623,-4.6209,-4.6253,-4.6434,-4.6776,-4.7212,-4.7377,-4.7911,-4.8504,-4.9204,-4.9363,-4.9138,-4.8922,-4.8411,-4.8805,-4.9167,-4.9375,-4.9744,-5.0508,-5.1144,-5.1632,-5.2466,-5.3427,-5.4267,-5.5072,-5.5868,-5.6524,-5.8043,-5.9578,-6.0323,-6.135,-6.2565,-6.3978,-6.5144,-6.569,-6.6724,-6.765,-6.8642,-6.9566,-7.0858,-7.2144,-7.328,-7.4218,-7.5127,-7.5774,-7.6411,-7.6676,-7.6897,-7.6952,-4.7401,-4.7215,-4.6259,-4.5883,-4.5865,-4.57,-4.5608,-4.5572,-4.5388,-4.5297,-4.5297,-4.5315,-4.5779,-4.6057,-4.5611,-4.563,-4.5908,-4.6169,-4.643,-4.6802,-4.7316,-4.7376,-4.7299,-4.7203,-4.6849,-4.6257,-4.5374,-4.4851,-4.5076,-4.5335,-4.5225,-4.5278,-4.5535,-4.5608,-4.5627,-4.613,-4.6241,-4.656,-4.6448,-4.6336,-4.6299,-4.6295,-4.6934,-4.7559,-4.7651,-4.7515,-4.747,-4.7115,-4.7038,-4.7121,-4.6613,-4.6439,-4.6285,-4.6229,-4.5607,-4.5078,-4.4548,-4.4015,-4.3678,-4.3659,-4.3837,-4.4015,-4.4725,-4.5255,-4.5431,-4.5783,-4.6308,-4.6327,-4.6511,-4.6715,-4.7034,-4.7504,-4.7898,-4.8254,-4.906,-4.9695,-4.9853,-4.991,-4.9784,-4.9479,-4.9499,-4.9683,-5.0096,-5.0484,-5.103,-5.1614,-5.2213,-5.3017,-5.3997,-5.4805,-5.5604,-5.6524,-5.7303,-5.855,-6.0108,-6.1051,-6.1991,-6.3207,-6.4492,-6.5513,-6.6712,-6.7632,-6.8711,-6.9708,-7.0734,-7.1684,-7.2613,-7.3719,-7.4632,-7.5408,-7.6006,-7.6497,-7.6731,-7.6926,-7.6987,-4.7401,-4.7401,-4.6259,-4.5883,-4.5883,-4.5883,-4.5883,-4.6072,-4.5865,-4.5847,-4.6072,-4.5865,-4.6035,-4.6241,-4.6053,-4.6053,-4.6447,-4.6616,-4.699,-4.7364,-4.7883,-4.808,-4.7868,-4.7752,-4.7473,-4.6934,-4.6253,-4.5593,-4.5557,-4.5797,-4.6093,-4.5961,-4.5865,-4.5883,-4.5883,-4.6241,-4.6447,-4.6635,-4.6822,-4.6822,-4.6915,-4.6913,-4.7208,-4.8088,-4.7838,-4.7683,-4.7733,-4.7376,-4.7424,-4.7269,-4.698,-4.6651,-4.6478,-4.6307,-4.5879,-4.5097,-4.4548,-4.423,-4.3967,-4.4164,-4.4435,-4.4745,-4.5268,-4.5565,-4.5703,-4.6055,-4.6308,-4.6405,-4.6763,-4.6917,-4.7034,-4.7796,-4.8132,-4.8361,-4.9241,-5.0121,-5.0187,-5.0358,-5.0895,-5.0573,-5.0303,-5.0288,-5.0817,-5.1225,-5.1791,-5.2288,-5.2879,-5.37,-5.4537,-5.5472,-5.6263,-5.7174,-5.8071,-5.9177,-6.0416,-6.1616,-6.2544,-6.3605,-6.502,-6.6232,-6.7386,-6.8527,-6.9598,-7.0704,-7.1587,-7.2521,-7.338,-7.413,-7.4905,-7.5634,-7.6181,-7.6573,-7.6801,-7.6919,-7.698,-4.7401,-4.7401,-4.6278,-4.5883,-4.5902,-4.592,-4.6072,-4.6447,-4.6072,-4.6072,-4.6447,-4.6072,-4.6072,-4.6072,-4.5883,-4.5902,-4.6259,-4.6841,-4.7401,-4.7588,-4.8312,-4.8643,-4.8769,-4.8789,-4.8138,-4.7431,-4.7136,-4.6671,-4.6206,-4.5816,-4.5777,-4.5828,-4.5883,-4.5883,-4.5883,-4.6072,-4.5883,-4.6072,-4.6072,-4.6635,-4.7196,-4.7679,-4.7883,-4.8069,-4.7992,-4.7896,-4.7973,-4.7857,-4.8042,-4.8371,-4.804,-4.7871,-4.734,-4.6555,-4.5795,-4.5192,-4.4762,-4.4698,-4.4622,-4.4715,-4.5149,-4.564,-4.6101,-4.6165,-4.613,-4.627,-4.6483,-4.6813,-4.6975,-4.7168,-4.7372,-4.7898,-4.8047,-4.8618,-4.9465,-5.0121,-5.0299,-5.0871,-5.1278,-5.1548,-5.1225,-5.1317,-5.1561,-5.2038,-5.2502,-5.2992,-5.3563,-5.4402,-5.5206,-5.6,-5.6915,-5.7816,-5.8676,-5.9797,-6.0903,-6.211,-6.3189,-6.4263,-6.5545,-6.6912,-6.8002,-6.9157,-7.0371,-7.1412,-7.2389,-7.3252,-7.3989,-7.467,-7.5306,-7.5813,-7.6333,-7.663,-7.684,-7.6945,-7.6966,-4.8083,-4.8083,-4.6962,-4.6434,-4.6232,-4.6213,-4.6274,-4.6484,-4.6447,-4.6635,-4.7009,-4.6822,-4.6635,-4.6259,-4.6072,-4.6072,-4.6447,-4.7028,-4.7588,-4.796,-4.8497,-4.8848,-4.8848,-4.8848,-4.8497,-4.8127,-4.7755,-4.7288,-4.6579,-4.6001,-4.5755,-4.5847,-4.5883,-4.5883,-4.5883,-4.5883,-4.6072,-4.6259,-4.6635,-4.7196,-4.7569,-4.7941,-4.8127,-4.8127,-4.8127,-4.8127,-4.8127,-4.8127,-4.8312,-4.8789,-4.8437,-4.8144,-4.7812,-4.7184,-4.6184,-4.564,-4.5713,-4.5337,-4.4951,-4.5555,-4.6029,-4.6133,-4.6376,-4.654,-4.6288,-4.625,-4.6483,-4.7007,-4.7195,-4.7622,-4.8058,-4.8735,-4.9267,-4.9557,-4.9888,-5.0366,-5.0837,-5.1316,-5.1745,-5.2037,-5.2325,-5.2397,-5.2623,-5.2951,-5.3387,-5.3847,-5.4473,-5.5125,-5.5895,-5.6655,-5.756,-5.8451,-5.9301,-6.0259,-6.1557,-6.2678,-6.3933,-6.5112,-6.6226,-6.7539,-6.8535,-6.9743,-7.0995,-7.2102,-7.3029,-7.3832,-7.4582,-7.5092,-7.5577,-7.5979,-7.6457,-7.6665,-7.691,-7.6888,-7.6867,-4.8648,-4.8531,-4.7572,-4.6819,-4.6379,-4.6544,-4.6722,-4.6841,-4.6765,-4.7122,-4.7401,-4.7196,-4.6822,-4.6635,-4.6259,-4.6072,-4.6635,-4.7215,-4.7588,-4.8127,-4.8682,-4.8848,-4.8848,-4.8848,-4.8848,-4.8682,-4.7755,-4.7177,-4.6803,-4.6429,-4.5865,-4.5883,-4.5883,-4.5883,-4.5883,-4.5883,-4.6072,-4.6259,-4.7009,-4.7382,-4.7569,-4.7941,-4.7941,-4.7941,-4.7941,-4.8127,-4.8127,-4.8127,-4.8312,-4.8789,-4.8594,-4.8359,-4.8105,-4.7695,-4.7024,-4.6561,-4.6588,-4.6427,-4.6162,-4.6476,-4.678,-4.6806,-4.6636,-4.6659,-4.6426,-4.6289,-4.6658,-4.7181,-4.7681,-4.8229,-4.8728,-4.9238,-4.9459,-4.9849,-5.0445,-5.0905,-5.131,-5.1724,-5.2084,-5.2272,-5.2886,-5.3687,-5.3887,-5.4017,-5.43,-5.473,-5.519,-5.5815,-5.6578,-5.7431,-5.8198,-5.908,-6.0043,-6.0957,-6.2228,-6.3396,-6.4727,-6.5837,-6.7035,-6.822,-6.9231,-7.0329,-7.1562,-7.265,-7.3628,-7.4325,-7.4942,-7.5379,-7.5763,-7.6195,-7.6536,-7.6786,-7.6936,-7.6872,-7.6763,-4.8648,-4.8946,-4.7618,-4.6709,-4.6067,-4.6764,-4.719,-4.729,-4.7215,-4.7498,-4.7774,-4.7196,-4.6822,-4.6447,-4.6259,-4.6259,-4.6635,-4.7215,-4.7569,-4.8127,-4.8682,-4.8848,-4.8848,-4.8848,-4.8682,-4.8312,-4.7755,-4.7196,-4.6635,-4.6259,-4.5883,-4.5883,-4.5883,-4.5883,-4.5883,-4.5883,-4.5883,-4.6259,-4.6822,-4.7009,-4.7196,-4.7569,-4.7941,-4.7755,-4.796,-4.8146,-4.8127,-4.8127,-4.8312,-4.8848,-4.8769,-4.8594,-4.832,-4.8047,-4.7509,-4.7289,-4.7509,-4.7366,-4.7319,-4.7357,-4.754,-4.7709,-4.7383,-4.6719,-4.6348,-4.6658,-4.7181,-4.7528,-4.8027,-4.8216,-4.8545,-4.8838,-4.956,-5.0305,-5.085,-5.1198,-5.1581,-5.204,-5.227,-5.2635,-5.3275,-5.4202,-5.5016,-5.5146,-5.542,-5.5848,-5.6261,-5.6849,-5.7513,-5.8325,-5.8955,-5.9702,-6.0774,-6.1851,-6.3033,-6.4166,-6.5204,-6.639,-6.7675,-6.8786,-6.9849,-7.0995,-7.2175,-7.3045,-7.3963,-7.4623,-7.5277,-7.5641,-7.6044,-7.6394,-7.6665,-7.6858,-7.6828,-7.67,-7.6582,-4.8797,-4.8704,-4.8042,-4.7516,-4.7002,-4.7075,-4.7165,-4.7215,-4.6896,-4.7366,-4.8146,-4.7382,-4.7009,-4.7009,-4.6635,-4.6447,-4.6635,-4.7569,-4.7941,-4.8127,-4.8497,-4.8848,-4.8848,-4.8867,-4.8867,-4.8497,-4.7755,-4.7382,-4.7009,-4.6259,-4.5883,-4.5883,-4.5883,-4.5883,-4.5883,-4.5883,-4.5883,-4.6072,-4.6447,-4.6822,-4.6822,-4.7196,-4.7774,-4.796,-4.7588,-4.8127,-4.8497,-4.8312,-4.8497,-4.8682,-4.8848,-4.873,-4.8555,-4.8379,-4.8099,-4.7713,-4.8137,-4.7993,-4.7984,-4.8148,-4.8157,-4.7558,-4.6973,-4.6465,-4.6483,-4.6832,-4.7181,-4.7681,-4.8372,-4.8748,-4.9554,-5.0117,-5.0709,-5.1079,-5.1416,-5.1741,-5.2032,-5.2357,-5.267,-5.2987,-5.3672,-5.4646,-5.5483,-5.6403,-5.6701,-5.6999,-5.7356,-5.7879,-5.8557,-5.8955,-5.9454,-6.0316,-6.1255,-6.249,-6.364,-6.4549,-6.5611,-6.6935,-6.8314,-6.9302,-7.0503,-7.1562,-7.2632,-7.3529,-7.4281,-7.4942,-7.548,-7.5947,-7.6359,-7.6711,-7.6809,-7.6882,-7.6749,-7.6638,-7.6519,-4.8731,-4.8508,-4.8373,-4.7992,-4.7516,-4.7351,-4.7158,-4.7231,-4.6952,-4.729,-4.8146,-4.7588,-4.7401,-4.7215,-4.6822,-4.6822,-4.7009,-4.7755,-4.8127,-4.8497,-4.8682,-4.8848,-4.8848,-4.8848,-4.8867,-4.8663,-4.7941,-4.7401,-4.7215,-4.6466,-4.609,-4.5883,-4.5883,-4.5883,-4.5883,-4.6072,-4.6072,-4.6072,-4.6259,-4.6447,-4.6447,-4.6822,-4.7401,-4.7774,-4.7588,-4.7941,-4.8497,-4.8497,-4.8497,-4.8682,-4.8848,-4.8848,-4.875,-4.8652,-4.8429,-4.8468,-4.8284,-4.839,-4.8362,-4.8332,-4.8346,-4.7858,-4.7111,-4.6776,-4.6832,-4.7181,-4.7681,-4.8027,-4.8716,-4.953,-5.0125,-5.0499,-5.1026,-5.1375,-5.2165,-5.2514,-5.2645,-5.2899,-5.2988,-5.3162,-5.4171,-5.5312,-5.6435,-5.7395,-5.814,-5.8312,-5.8213,-5.8694,-5.9162,-5.9583,-5.9948,-6.0774,-6.1732,-6.3003,-6.4166,-6.5256,-6.6471,-6.8166,-6.935,-7.0097,-7.1123,-7.2138,-7.3066,-7.3916,-7.4623,-7.5239,-7.5741,-7.6109,-7.6566,-7.7057,-7.73,-7.766,-7.7304,-7.7151,-7.6738,-4.8267,-4.8267,-4.8286,-4.7846,-4.7295,-4.7534,-4.7379,-4.706,-4.7138,-4.731,-4.7793,-4.7588,-4.7401,-4.7196,-4.6822,-4.6822,-4.7382,-4.7755,-4.8312,-4.8682,-4.8867,-4.8848,-4.8848,-4.8848,-4.8848,-4.8663,-4.7941,-4.7401,-4.7401,-4.6447,-4.5883,-4.5883,-4.5883,-4.5883,-4.5902,-4.6259,-4.6259,-4.6072,-4.6447,-4.6259,-4.6259,-4.6447,-4.6822,-4.7196,-4.7401,-4.7941,-4.8312,-4.8497,-4.8497,-4.8867,-4.8848,-4.8848,-4.8828,-4.8808,-4.8789,-4.8808,-4.8828,-4.8808,-4.8808,-4.8066,-4.8036,-4.7939,-4.7208,-4.722,-4.7528,-4.8027,-4.8199,-4.8372,-4.9209,-4.9553,-4.9955,-5.0688,-5.1257,-5.1848,-5.2642,-5.297,-5.3079,-5.3514,-5.3625,-5.3688,-5.4768,-5.5926,-5.721,-5.8418,-5.9414,-5.9724,-5.9276,-5.9506,-5.9977,-6.0268,-6.0602,-6.1401,-6.244,-6.3762,-6.4933,-6.6093,-6.743,-6.9145,-7.0323,-7.0893,-7.1684,-7.2687,-7.3529,-7.4319,-7.4904,-7.5485,-7.5918,-7.6297,-7.6941,-7.7611,-7.837,-7.863,-7.8176,-7.7599,-7.7058,-4.8286,-4.8286,-4.8286,-4.8139,-4.7846,-4.7442,-4.7176,-4.687,-4.6781,-4.6953,-4.7028,-4.7009,-4.6822,-4.6822,-4.6822,-4.6822,-4.7382,-4.7941,-4.8312,-4.8867,-4.8848,-4.8848,-4.8848,-4.8848,-4.8848,-4.8682,-4.7941,-4.7401,-4.7401,-4.6447,-4.5883,-4.5883,-4.5883,-4.5883,-4.5883,-4.6072,-4.6072,-4.5883,-4.6072,-4.609,-4.5883,-4.6072,-4.6447,-4.6822,-4.7215,-4.7569,-4.8312,-4.8312,-4.8478,-4.8867,-4.8867,-4.8887,-4.8887,-4.8867,-4.8867,-4.8867,-4.8848,-4.8711,-4.8601,-4.8071,-4.7998,-4.782,-4.7754,-4.7528,-4.7701,-4.8199,-4.8544,-4.8887,-4.9721,-5.0104,-5.0653,-5.1476,-5.2101,-5.2675,-5.3076,-5.3245,-5.358,-5.4022,-5.4313,-5.4334,-5.5016,-5.6776,-5.8239,-5.9202,-6.0237,-6.0891,-6.0706,-6.0672,-6.1062,-6.1154,-6.1495,-6.235,-6.3434,-6.4518,-6.5813,-6.7099,-6.8324,-6.9852,-7.0771,-7.134,-7.2255,-7.3209,-7.3906,-7.4577,-7.513,-7.5679,-7.6135,-7.6672,-7.7506,-7.8239,-7.8437,-7.8419,-7.787,-7.7404,-7.7143,-4.8286,-4.8286,-4.8286,-4.8194,-4.8011,-4.7516,-4.7002,-4.6661,-4.6633,-4.6635,-4.6635,-4.6635,-4.6635,-4.6635,-4.6635,-4.6635,-4.7196,-4.7755,-4.8146,-4.8682,-4.8848,-4.8848,-4.8848,-4.8848,-4.8848,-4.8682,-4.7941,-4.7401,-4.7401,-4.6466,-4.5902,-4.5883,-4.5883,-4.5883,-4.5883,-4.5883,-4.5883,-4.5883,-4.5902,-4.5883,-4.5883,-4.6072,-4.6072,-4.6447,-4.6822,-4.7196,-4.7755,-4.8127,-4.8293,-4.8517,-4.878,-4.8799,-4.8945,-4.8984,-4.8965,-4.8926,-4.8828,-4.8816,-4.8626,-4.8553,-4.8493,-4.823,-4.8117,-4.8067,-4.822,-4.8716,-4.9059,-4.9401,-5.0061,-5.0569,-5.1179,-5.195,-5.2697,-5.3273,-5.3655,-5.3795,-5.3989,-5.4405,-5.4856,-5.4912,-5.5729,-5.7498,-5.9088,-6.0039,-6.1084,-6.1623,-6.1963,-6.2089,-6.2068,-6.2198,-6.236,-6.3269,-6.4357,-6.5513,-6.6791,-6.8214,-6.9459,-7.0629,-7.133,-7.1976,-7.2687,-7.3553,-7.4229,-7.4861,-7.5383,-7.589,-7.6427,-7.7019,-7.7458,-7.7576,-7.7478,-7.7441,-7.7313,-7.7392,-7.7407,-4.8286,-4.8286,-4.8286,-4.8066,-4.7754,-4.7681,-4.7204,-4.6434,-4.6614,-4.6653,-4.6672,-4.6484,-4.6484,-4.6484,-4.6653,-4.6635,-4.6822,-4.7569,-4.796,-4.8312,-4.8682,-4.8848,-4.8848,-4.8848,-4.8848,-4.8497,-4.8127,-4.7588,-4.7401,-4.6466,-4.5883,-4.5883,-4.5883,-4.5883,-4.5883,-4.5883,-4.5883,-4.5883,-4.5883,-4.5883,-4.5883,-4.5883,-4.6072,-4.6259,-4.6447,-4.6635,-4.7009,-4.7196,-4.7569,-4.7889,-4.8492,-4.8769,-4.8974,-4.9297,-4.916,-4.9004,-4.8867,-4.8797,-4.8808,-4.8753,-4.8949,-4.8702,-4.8739,-4.8839,-4.8887,-4.923,-4.9572,-4.9912,-5.0422,-5.0929,-5.1368,-5.2348,-5.3153,-5.3556,-5.4003,-5.4185,-5.4328,-5.4812,-5.5224,-5.5807,-5.6852,-5.8212,-5.9761,-6.0865,-6.1546,-6.2164,-6.2689,-6.3175,-6.322,-6.2947,-6.3378,-6.4213,-6.533,-6.6523,-6.7818,-6.9176,-7.0368,-7.1435,-7.1981,-7.2651,-7.3273,-7.3896,-7.4493,-7.5057,-7.5616,-7.6109,-7.6573,-7.6855,-7.7048,-7.7024,-7.7067,-7.7311,-7.7486,-7.8008,-7.8106,-4.8286,-4.8286,-4.8286,-4.8212,-4.8084,-4.7809,-4.7075,-4.6122,-4.6108,-4.6219,-4.6477,-4.6182,-4.6256,-4.6458,-4.6219,-4.6296,-4.6841,-4.7215,-4.7774,-4.8127,-4.8497,-4.8848,-4.8848,-4.8848,-4.8848,-4.8682,-4.8312,-4.7774,-4.7215,-4.6466,-4.5883,-4.5883,-4.5883,-4.5883,-4.5883,-4.5883,-4.5883,-4.5883,-4.5883,-4.5883,-4.5883,-4.5883,-4.6072,-4.6072,-4.6259,-4.6447,-4.6672,-4.7047,-4.7252,-4.7683,-4.8382,-4.8756,-4.8409,-4.9071,-4.9336,-4.8926,-4.8808,-4.8856,-4.8665,-4.9031,-4.9469,-4.9182,-4.9261,-4.9217,-4.9355,-4.9593,-4.9933,-5.0422,-5.0929,-5.1434,-5.2081,-5.2913,-5.3738,-5.4301,-5.4719,-5.501,-5.5326,-5.58,-5.6175,-5.7162,-5.8212,-5.9035,-6.0453,-6.1138,-6.1951,-6.262,-6.3357,-6.3866,-6.426,-6.3918,-6.4306,-6.5274,-6.6215,-6.7427,-6.8752,-7.0013,-7.1156,-7.2192,-7.2834,-7.3272,-7.361,-7.416,-7.474,-7.5348,-7.5861,-7.6316,-7.6702,-7.6887,-7.6992,-7.6956,-7.6994,-7.7336,-7.7697,-7.8204,-7.8789,-4.8286,-4.8286,-4.8286,-4.8194,-4.8029,-4.7791,-4.7167,-4.6452,-4.636,-4.6525,-4.6654,-4.6305,-4.6342,-4.658,-4.6177,-4.6145,-4.65,-4.6897,-4.7196,-4.7569,-4.8312,-4.8497,-4.8682,-4.8867,-4.8848,-4.8682,-4.8497,-4.7941,-4.7401,-4.6635,-4.6072,-4.5883,-4.5883,-4.5883,-4.5883,-4.5883,-4.5883,-4.5883,-4.5883,-4.5883,-4.5883,-4.5883,-4.5883,-4.5883,-4.6259,-4.6315,-4.6651,-4.7047,-4.7065,-4.731,-4.8215,-4.8516,-4.8319,-4.8749,-4.9219,-4.8867,-4.8848,-4.8934,-4.8882,-4.9392,-4.9532,-4.9567,-4.9609,-4.968,-4.9714,-4.9889,-5.0316,-5.0738,-5.1265,-5.1936,-5.2747,-5.3573,-5.4252,-5.5067,-5.5456,-5.5858,-5.6395,-5.6909,-5.7724,-5.8636,-5.9394,-6.0146,-6.1002,-6.1546,-6.222,-6.3018,-6.359,-6.4323,-6.4677,-6.4837,-6.544,-6.6498,-6.7313,-6.8271,-6.9687,-7.1079,-7.2283,-7.3259,-7.3869,-7.4219,-7.4275,-7.4469,-7.5018,-7.5616,-7.6212,-7.6552,-7.6819,-7.6899,-7.698,-7.6934,-7.7117,-7.7637,-7.8008,-7.834,-7.8941,-4.8286,-4.8286,-4.8286,-4.8066,-4.7736,-4.7736,-4.7516,-4.7185,-4.7167,-4.7185,-4.7094,-4.6709,-4.6764,-4.6965,-4.6489,-4.6269,-4.6458,-4.6707,-4.6897,-4.6653,-4.7569,-4.8127,-4.8331,-4.8555,-4.8857,-4.878,-4.8575,-4.8261,-4.7774,-4.7009,-4.6259,-4.5883,-4.5883,-4.5883,-4.5883,-4.5883,-4.5883,-4.5883,-4.5883,-4.5883,-4.5883,-4.5883,-4.5883,-4.5883,-4.5938,-4.603,-4.6342,-4.6661,-4.6679,-4.7399,-4.7836,-4.8348,-4.8627,-4.8741,-4.8906,-4.8926,-4.8906,-4.9012,-4.9262,-4.9631,-5.0035,-5.001,-5.0011,-5.0165,-5.0414,-5.0294,-5.0443,-5.1076,-5.1769,-5.2747,-5.3573,-5.4393,-5.5044,-5.5668,-5.6327,-5.6794,-5.7516,-5.8126,-5.898,-5.9737,-6.0081,-6.0755,-6.1275,-6.1951,-6.262,-6.3282,-6.3879,-6.448,-6.5153,-6.5503,-6.6314,-6.7336,-6.8203,-6.9181,-7.0838,-7.2208,-7.3492,-7.4388,-7.4787,-7.4885,-7.481,-7.4989,-7.5243,-7.5851,-7.6436,-7.6689,-7.6894,-7.6953,-7.6978,-7.6923,-7.7248,-7.7969,-7.8394,-7.8632,-7.9268,-4.8286,-4.8286,-4.8286,-4.8047,-4.7772,-4.8029,-4.7919,-4.7589,-4.7882,-4.7809,-4.7516,-4.7185,-4.7185,-4.7406,-4.6984,-4.6709,-4.6698,-4.674,-4.6896,-4.6765,-4.7271,-4.7908,-4.8075,-4.8698,-4.8962,-4.9188,-4.9149,-4.8807,-4.8056,-4.7234,-4.6635,-4.6447,-4.6072,-4.5883,-4.5883,-4.5883,-4.5883,-4.5883,-4.5883,-4.5883,-4.5883,-4.5883,-4.5883,-4.5902,-4.5938,-4.614,-4.6397,-4.6525,-4.6709,-4.7103,-4.7753,-4.829,-4.9108,-4.9033,-4.9082,-4.9238,-4.9004,-4.9071,-4.9197,-4.9648,-5.0136,-5.0236,-5.0346,-5.0839,-5.0881,-5.0612,-5.076,-5.1601,-5.2415,-5.3408,-5.423,-5.5044,-5.5691,-5.6446,-5.7169,-5.7751,-5.8458,-5.9258,-6.0119,-6.0562,-6.0862,-6.122,-6.1737,-6.222,-6.2914,-6.3442,-6.4095,-6.4735,-6.5739,-6.627,-6.6846,-6.7799,-6.8829,-7.0071,-7.1765,-7.3133,-7.4294,-7.4826,-7.5051,-7.5193,-7.5276,-7.5474,-7.571,-7.6204,-7.6653,-7.6839,-7.6938,-7.6983,-7.6965,-7.6902,-7.7428,-7.817,-7.8735,-7.9075,-7.9768,-4.8286,-4.8286,-4.8286,-4.8157,-4.8029,-4.8194,-4.8157,-4.8011,-4.8194,-4.8157,-4.7919,-4.7589,-4.7589,-4.7791,-4.7369,-4.7185,-4.6892,-4.679,-4.6944,-4.6986,-4.7178,-4.7856,-4.8158,-4.8727,-4.9389,-4.9616,-4.957,-4.8982,-4.8357,-4.7439,-4.7009,-4.6635,-4.6259,-4.5883,-4.5883,-4.5883,-4.5883,-4.5883,-4.5883,-4.5883,-4.5883,-4.5883,-4.5883,-4.5902,-4.6085,-4.6324,-4.669,-4.6874,-4.7149,-4.7324,-4.779,-4.8178,-4.8704,-4.8877,-4.9004,-4.9062,-4.8984,-4.8848,-4.9216,-4.9604,-5.0337,-5.0438,-5.0833,-5.1421,-5.1872,-5.1616,-5.1629,-5.2257,-5.3266,-5.423,-5.4742,-5.5553,-5.6358,-5.7132,-5.7692,-5.8402,-5.9363,-6.0457,-6.1118,-6.1522,-6.1874,-6.1959,-6.2394,-6.2732,-6.3263,-6.3704,-6.4354,-6.4852,-6.5892,-6.7187,-6.7637,-6.8402,-6.9633,-7.0914,-7.2576,-7.3864,-7.4905,-7.5225,-7.5416,-7.5359,-7.5447,-7.5829,-7.616,-7.6497,-7.6741,-7.6873,-7.6992,-7.6984,-7.6866,-7.6721,-7.7504,-7.8385,-7.8926,-7.9451,-8.0177,-4.8286,-4.8286,-4.8286,-4.8286,-4.8286,-4.8286,-4.8267,-4.8267,-4.8286,-4.8286,-4.8231,-4.7901,-4.8011,-4.7919,-4.7662,-4.7626,-4.7442,-4.725,-4.6984,-4.7047,-4.7055,-4.7664,-4.8214,-4.9034,-4.9586,-4.985,-4.9824,-4.9363,-4.8718,-4.774,-4.7009,-4.6635,-4.6259,-4.6072,-4.5883,-4.6072,-4.6072,-4.6072,-4.6072,-4.6072,-4.6072,-4.5883,-4.5883,-4.6012,-4.6269,-4.669,-4.7075,-4.7424,-4.7644,-4.7868,-4.8057,-4.814,-4.8324,-4.8633,-4.9023,-4.9023,-4.8965,-4.8887,-4.9236,-4.9787,-5.0154,-5.056,-5.1294,-5.1963,-5.239,-5.2581,-5.244,-5.3114,-5.397,-5.4742,-5.523,-5.6037,-5.6837,-5.7789,-5.8344,-5.9053,-6.0221,-6.1422,-6.195,-6.2492,-6.245,-6.2619,-6.3026,-6.3335,-6.3583,-6.4022,-6.4706,-6.5217,-6.598,-6.7567,-6.8638,-6.9581,-7.0641,-7.2039,-7.3402,-7.45,-7.5538,-7.5823,-7.5903,-7.5727,-7.5703,-7.5994,-7.6258,-7.6614,-7.6819,-7.6935,-7.6977,-7.6956,-7.6791,-7.6612,-7.7694,-7.8631,-7.8882,-7.9477,-8.0382,-4.8286,-4.8286,-4.8286,-4.8286,-4.8286,-4.8286,-4.8286,-4.8286,-4.8286,-4.8286,-4.8267,-4.8249,-4.8249,-4.8286,-4.8176,-4.8029,-4.7699,-4.7406,-4.7222,-4.7075,-4.7232,-4.7635,-4.8169,-4.9223,-4.9665,-4.9874,-5.0,-4.9648,-4.8943,-4.7908,-4.7401,-4.7196,-4.6635,-4.6447,-4.6447,-4.6466,-4.6315,-4.6296,-4.6484,-4.6503,-4.6259,-4.6259,-4.5883,-4.6048,-4.6269,-4.669,-4.7094,-4.7497,-4.7827,-4.8219,-4.8357,-4.831,-4.8213,-4.8447,-4.9023,-4.9062,-4.8984,-4.9071,-4.942,-4.9971,-5.0337,-5.0823,-5.1536,-5.2139,-5.2542,-5.29,-5.3114,-5.3874,-5.4742,-5.5067,-5.5715,-5.6678,-5.7631,-5.8575,-5.9458,-5.997,-6.097,-6.1874,-6.266,-6.266,-6.2645,-6.3197,-6.3693,-6.3869,-6.3829,-6.4396,-6.5309,-6.5941,-6.7047,-6.8328,-6.9543,-7.0626,-7.1592,-7.2783,-7.4075,-7.5192,-7.6046,-7.636,-7.6409,-7.609,-7.5952,-7.6118,-7.6394,-7.6699,-7.6868,-7.6989,-7.699,-7.696,-7.6747,-7.6769,-7.7982,-7.8838,-7.9047,-7.9446,-8.0279]}]]